<?xml version="1.0" encoding="UTF-8" standalone="no" ?>
<gpx xmlns="http://www.topografix.com/GPX/1/1" xmlns:xsi="http://www.w3.org/2001/XMLSchema-instance" xsi:schemaLocation="http://www.topografix.com/GPX/1/1 http://www.topografix.com/GPX/1/1/gpx.xsd" version="1.1" creator="VisuGPX - https://www.visugpx.com">
  <metadata>
    <name>DOU DE MOUTIERS</name>
  </metadata>
  <trk>
    <name><![CDATA[DU DE MOUTIERS]]></name>
    <trkseg>
      <trkpt lat="45.51334" lon="6.59833">
        <ele>1297.09</ele>
        <time>2016-01-24T07:42:57Z</time>
      </trkpt>
      <trkpt lat="45.51336" lon="6.59832">
        <ele>1297.74</ele>
        <time>2016-01-24T07:43:10Z</time>
      </trkpt>
      <trkpt lat="45.51336" lon="6.59835">
        <ele>1297.58</ele>
        <time>2016-01-24T07:43:27Z</time>
      </trkpt>
      <trkpt lat="45.51331" lon="6.59849">
        <ele>1298.3</ele>
        <time>2016-01-24T07:43:43Z</time>
      </trkpt>
      <trkpt lat="45.51326" lon="6.59854">
        <ele>1298.72</ele>
        <time>2016-01-24T07:43:53Z</time>
      </trkpt>
      <trkpt lat="45.51317" lon="6.59857">
        <ele>1299.58</ele>
        <time>2016-01-24T07:44:06Z</time>
      </trkpt>
      <trkpt lat="45.51306" lon="6.5986">
        <ele>1300.38</ele>
        <time>2016-01-24T07:44:20Z</time>
      </trkpt>
      <trkpt lat="45.51295" lon="6.59873">
        <ele>1301.39</ele>
        <time>2016-01-24T07:44:37Z</time>
      </trkpt>
      <trkpt lat="45.51294" lon="6.59874">
        <ele>1301.44</ele>
        <time>2016-01-24T07:44:38Z</time>
      </trkpt>
      <trkpt lat="45.51293" lon="6.59887">
        <ele>1302.07</ele>
        <time>2016-01-24T07:44:53Z</time>
      </trkpt>
      <trkpt lat="45.51293" lon="6.59886">
        <ele>1302.84</ele>
        <time>2016-01-24T07:45:16Z</time>
      </trkpt>
      <trkpt lat="45.51293" lon="6.5989">
        <ele>1302.87</ele>
        <time>2016-01-24T07:45:31Z</time>
      </trkpt>
      <trkpt lat="45.51293" lon="6.59901">
        <ele>1303.01</ele>
        <time>2016-01-24T07:45:50Z</time>
      </trkpt>
      <trkpt lat="45.51293" lon="6.59904">
        <ele>1303.06</ele>
        <time>2016-01-24T07:45:52Z</time>
      </trkpt>
      <trkpt lat="45.51292" lon="6.59916">
        <ele>1303.52</ele>
        <time>2016-01-24T07:46:01Z</time>
      </trkpt>
      <trkpt lat="45.51291" lon="6.59926">
        <ele>1304.09</ele>
        <time>2016-01-24T07:46:09Z</time>
      </trkpt>
      <trkpt lat="45.5129" lon="6.59941">
        <ele>1305.06</ele>
        <time>2016-01-24T07:46:21Z</time>
      </trkpt>
      <trkpt lat="45.5129" lon="6.59942">
        <ele>1305.5</ele>
        <time>2016-01-24T07:46:37Z</time>
      </trkpt>
      <trkpt lat="45.51291" lon="6.59947">
        <ele>1305.64</ele>
        <time>2016-01-24T07:46:56Z</time>
      </trkpt>
      <trkpt lat="45.51291" lon="6.59947">
        <ele>1305.96</ele>
        <time>2016-01-24T07:47:25Z</time>
      </trkpt>
      <trkpt lat="45.51288" lon="6.59948">
        <ele>1305.8</ele>
        <time>2016-01-24T07:47:48Z</time>
      </trkpt>
      <trkpt lat="45.51287" lon="6.59947">
        <ele>1306</ele>
        <time>2016-01-24T07:48:12Z</time>
      </trkpt>
      <trkpt lat="45.51289" lon="6.59944">
        <ele>1306.09</ele>
        <time>2016-01-24T07:48:39Z</time>
      </trkpt>
      <trkpt lat="45.51289" lon="6.59947">
        <ele>1306.67</ele>
        <time>2016-01-24T07:49:02Z</time>
      </trkpt>
      <trkpt lat="45.51289" lon="6.59946">
        <ele>1306.42</ele>
        <time>2016-01-24T07:49:31Z</time>
      </trkpt>
      <trkpt lat="45.51291" lon="6.59945">
        <ele>1306.53</ele>
        <time>2016-01-24T07:49:59Z</time>
      </trkpt>
      <trkpt lat="45.51292" lon="6.59948">
        <ele>1306.43</ele>
        <time>2016-01-24T07:50:28Z</time>
      </trkpt>
      <trkpt lat="45.5129" lon="6.59958">
        <ele>1306.76</ele>
        <time>2016-01-24T07:50:44Z</time>
      </trkpt>
      <trkpt lat="45.51285" lon="6.59974">
        <ele>1307.52</ele>
        <time>2016-01-24T07:50:57Z</time>
      </trkpt>
      <trkpt lat="45.51278" lon="6.59987">
        <ele>1308.37</ele>
        <time>2016-01-24T07:51:10Z</time>
      </trkpt>
      <trkpt lat="45.51265" lon="6.59998">
        <ele>1309.71</ele>
        <time>2016-01-24T07:51:28Z</time>
      </trkpt>
      <trkpt lat="45.51249" lon="6.60008">
        <ele>1310.79</ele>
        <time>2016-01-24T07:51:45Z</time>
      </trkpt>
      <trkpt lat="45.51236" lon="6.60015">
        <ele>1311.68</ele>
        <time>2016-01-24T07:51:59Z</time>
      </trkpt>
      <trkpt lat="45.51224" lon="6.60022">
        <ele>1312.51</ele>
        <time>2016-01-24T07:52:15Z</time>
      </trkpt>
      <trkpt lat="45.51212" lon="6.60026">
        <ele>1313.21</ele>
        <time>2016-01-24T07:52:32Z</time>
      </trkpt>
      <trkpt lat="45.51203" lon="6.60031">
        <ele>1313.89</ele>
        <time>2016-01-24T07:52:45Z</time>
      </trkpt>
      <trkpt lat="45.5119" lon="6.60043">
        <ele>1314.94</ele>
        <time>2016-01-24T07:52:59Z</time>
      </trkpt>
      <trkpt lat="45.51178" lon="6.60059">
        <ele>1315.95</ele>
        <time>2016-01-24T07:53:14Z</time>
      </trkpt>
      <trkpt lat="45.51168" lon="6.60068">
        <ele>1316.94</ele>
        <time>2016-01-24T07:53:27Z</time>
      </trkpt>
      <trkpt lat="45.51162" lon="6.60074">
        <ele>1317.43</ele>
        <time>2016-01-24T07:53:35Z</time>
      </trkpt>
      <trkpt lat="45.51151" lon="6.60083">
        <ele>1318.38</ele>
        <time>2016-01-24T07:53:48Z</time>
      </trkpt>
      <trkpt lat="45.51136" lon="6.60091">
        <ele>1319.95</ele>
        <time>2016-01-24T07:54:08Z</time>
      </trkpt>
      <trkpt lat="45.5112" lon="6.60094">
        <ele>1321.45</ele>
        <time>2016-01-24T07:54:26Z</time>
      </trkpt>
      <trkpt lat="45.5111" lon="6.60094">
        <ele>1322.5</ele>
        <time>2016-01-24T07:54:38Z</time>
      </trkpt>
      <trkpt lat="45.51094" lon="6.60099">
        <ele>1324.45</ele>
        <time>2016-01-24T07:54:58Z</time>
      </trkpt>
      <trkpt lat="45.51079" lon="6.60095">
        <ele>1325.63</ele>
        <time>2016-01-24T07:55:15Z</time>
      </trkpt>
      <trkpt lat="45.51061" lon="6.6009">
        <ele>1327.53</ele>
        <time>2016-01-24T07:55:36Z</time>
      </trkpt>
      <trkpt lat="45.51045" lon="6.60082">
        <ele>1329.11</ele>
        <time>2016-01-24T07:55:56Z</time>
      </trkpt>
      <trkpt lat="45.51032" lon="6.6007">
        <ele>1331.05</ele>
        <time>2016-01-24T07:56:15Z</time>
      </trkpt>
      <trkpt lat="45.51017" lon="6.60058">
        <ele>1332.72</ele>
        <time>2016-01-24T07:56:35Z</time>
      </trkpt>
      <trkpt lat="45.51002" lon="6.6005">
        <ele>1334.21</ele>
        <time>2016-01-24T07:56:54Z</time>
      </trkpt>
      <trkpt lat="45.50986" lon="6.60043">
        <ele>1335.54</ele>
        <time>2016-01-24T07:57:14Z</time>
      </trkpt>
      <trkpt lat="45.50974" lon="6.60036">
        <ele>1336.79</ele>
        <time>2016-01-24T07:57:30Z</time>
      </trkpt>
      <trkpt lat="45.50963" lon="6.60029">
        <ele>1337.99</ele>
        <time>2016-01-24T07:57:46Z</time>
      </trkpt>
      <trkpt lat="45.50951" lon="6.60017">
        <ele>1339.42</ele>
        <time>2016-01-24T07:58:04Z</time>
      </trkpt>
      <trkpt lat="45.50938" lon="6.60003">
        <ele>1340.64</ele>
        <time>2016-01-24T07:58:22Z</time>
      </trkpt>
      <trkpt lat="45.50931" lon="6.5999">
        <ele>1341.34</ele>
        <time>2016-01-24T07:58:36Z</time>
      </trkpt>
      <trkpt lat="45.50925" lon="6.59975">
        <ele>1342.07</ele>
        <time>2016-01-24T07:58:50Z</time>
      </trkpt>
      <trkpt lat="45.5092" lon="6.59958">
        <ele>1342.79</ele>
        <time>2016-01-24T07:59:05Z</time>
      </trkpt>
      <trkpt lat="45.50914" lon="6.59946">
        <ele>1343.63</ele>
        <time>2016-01-24T07:59:20Z</time>
      </trkpt>
      <trkpt lat="45.50907" lon="6.59936">
        <ele>1345.16</ele>
        <time>2016-01-24T07:59:35Z</time>
      </trkpt>
      <trkpt lat="45.509" lon="6.59926">
        <ele>1346.55</ele>
        <time>2016-01-24T07:59:49Z</time>
      </trkpt>
      <trkpt lat="45.50893" lon="6.59916">
        <ele>1347.84</ele>
        <time>2016-01-24T08:00:03Z</time>
      </trkpt>
      <trkpt lat="45.50884" lon="6.59906">
        <ele>1349.28</ele>
        <time>2016-01-24T08:00:20Z</time>
      </trkpt>
      <trkpt lat="45.50875" lon="6.59899">
        <ele>1351.28</ele>
        <time>2016-01-24T08:00:36Z</time>
      </trkpt>
      <trkpt lat="45.50864" lon="6.59892">
        <ele>1353.87</ele>
        <time>2016-01-24T08:00:54Z</time>
      </trkpt>
      <trkpt lat="45.50853" lon="6.59884">
        <ele>1356.07</ele>
        <time>2016-01-24T08:01:15Z</time>
      </trkpt>
      <trkpt lat="45.50843" lon="6.59878">
        <ele>1358.48</ele>
        <time>2016-01-24T08:01:33Z</time>
      </trkpt>
      <trkpt lat="45.50832" lon="6.59878">
        <ele>1360.91</ele>
        <time>2016-01-24T08:01:50Z</time>
      </trkpt>
      <trkpt lat="45.50824" lon="6.59874">
        <ele>1362.55</ele>
        <time>2016-01-24T08:02:06Z</time>
      </trkpt>
      <trkpt lat="45.50815" lon="6.59872">
        <ele>1365.08</ele>
        <time>2016-01-24T08:02:26Z</time>
      </trkpt>
      <trkpt lat="45.50806" lon="6.5987">
        <ele>1368.08</ele>
        <time>2016-01-24T08:02:42Z</time>
      </trkpt>
      <trkpt lat="45.50796" lon="6.59864">
        <ele>1370.65</ele>
        <time>2016-01-24T08:02:59Z</time>
      </trkpt>
      <trkpt lat="45.50789" lon="6.59858">
        <ele>1372.61</ele>
        <time>2016-01-24T08:03:15Z</time>
      </trkpt>
      <trkpt lat="45.5078" lon="6.59856">
        <ele>1374.34</ele>
        <time>2016-01-24T08:03:29Z</time>
      </trkpt>
      <trkpt lat="45.5077" lon="6.59854">
        <ele>1376.14</ele>
        <time>2016-01-24T08:03:44Z</time>
      </trkpt>
      <trkpt lat="45.50761" lon="6.59853">
        <ele>1377.35</ele>
        <time>2016-01-24T08:04:00Z</time>
      </trkpt>
      <trkpt lat="45.50754" lon="6.59844">
        <ele>1379.59</ele>
        <time>2016-01-24T08:04:16Z</time>
      </trkpt>
      <trkpt lat="45.50744" lon="6.59838">
        <ele>1382.45</ele>
        <time>2016-01-24T08:04:37Z</time>
      </trkpt>
      <trkpt lat="45.50736" lon="6.59829">
        <ele>1385.55</ele>
        <time>2016-01-24T08:04:55Z</time>
      </trkpt>
      <trkpt lat="45.50731" lon="6.59824">
        <ele>1387.52</ele>
        <time>2016-01-24T08:05:11Z</time>
      </trkpt>
      <trkpt lat="45.50724" lon="6.59821">
        <ele>1390.55</ele>
        <time>2016-01-24T08:05:28Z</time>
      </trkpt>
      <trkpt lat="45.50722" lon="6.59831">
        <ele>1392.94</ele>
        <time>2016-01-24T08:05:44Z</time>
      </trkpt>
      <trkpt lat="45.50718" lon="6.59842">
        <ele>1395.46</ele>
        <time>2016-01-24T08:06:02Z</time>
      </trkpt>
      <trkpt lat="45.50715" lon="6.59848">
        <ele>1397.7</ele>
        <time>2016-01-24T08:06:16Z</time>
      </trkpt>
      <trkpt lat="45.50708" lon="6.59858">
        <ele>1399.98</ele>
        <time>2016-01-24T08:06:34Z</time>
      </trkpt>
      <trkpt lat="45.50707" lon="6.59863">
        <ele>1402.19</ele>
        <time>2016-01-24T08:06:49Z</time>
      </trkpt>
      <trkpt lat="45.50707" lon="6.59862">
        <ele>1403.74</ele>
        <time>2016-01-24T08:07:06Z</time>
      </trkpt>
      <trkpt lat="45.50708" lon="6.5986">
        <ele>1403.85</ele>
        <time>2016-01-24T08:07:21Z</time>
      </trkpt>
      <trkpt lat="45.50702" lon="6.59857">
        <ele>1405.51</ele>
        <time>2016-01-24T08:07:37Z</time>
      </trkpt>
      <trkpt lat="45.50698" lon="6.59854">
        <ele>1407.61</ele>
        <time>2016-01-24T08:07:53Z</time>
      </trkpt>
      <trkpt lat="45.50694" lon="6.59847">
        <ele>1409.1</ele>
        <time>2016-01-24T08:08:09Z</time>
      </trkpt>
      <trkpt lat="45.50692" lon="6.59844">
        <ele>1410.26</ele>
        <time>2016-01-24T08:08:24Z</time>
      </trkpt>
      <trkpt lat="45.50686" lon="6.59852">
        <ele>1411.06</ele>
        <time>2016-01-24T08:08:40Z</time>
      </trkpt>
      <trkpt lat="45.50684" lon="6.59855">
        <ele>1412.58</ele>
        <time>2016-01-24T08:08:55Z</time>
      </trkpt>
      <trkpt lat="45.50682" lon="6.59858">
        <ele>1413.49</ele>
        <time>2016-01-24T08:09:08Z</time>
      </trkpt>
      <trkpt lat="45.5068" lon="6.59865">
        <ele>1414.71</ele>
        <time>2016-01-24T08:09:21Z</time>
      </trkpt>
      <trkpt lat="45.50678" lon="6.59865">
        <ele>1415.86</ele>
        <time>2016-01-24T08:09:36Z</time>
      </trkpt>
      <trkpt lat="45.50674" lon="6.59858">
        <ele>1417.25</ele>
        <time>2016-01-24T08:09:51Z</time>
      </trkpt>
      <trkpt lat="45.5067" lon="6.59858">
        <ele>1419.37</ele>
        <time>2016-01-24T08:10:05Z</time>
      </trkpt>
      <trkpt lat="45.50671" lon="6.59868">
        <ele>1421.24</ele>
        <time>2016-01-24T08:10:24Z</time>
      </trkpt>
      <trkpt lat="45.50667" lon="6.59877">
        <ele>1423.68</ele>
        <time>2016-01-24T08:10:42Z</time>
      </trkpt>
      <trkpt lat="45.50663" lon="6.59882">
        <ele>1425.95</ele>
        <time>2016-01-24T08:10:58Z</time>
      </trkpt>
      <trkpt lat="45.50656" lon="6.59878">
        <ele>1428.08</ele>
        <time>2016-01-24T08:11:14Z</time>
      </trkpt>
      <trkpt lat="45.50651" lon="6.59873">
        <ele>1430.3</ele>
        <time>2016-01-24T08:11:29Z</time>
      </trkpt>
      <trkpt lat="45.50645" lon="6.5987">
        <ele>1431.97</ele>
        <time>2016-01-24T08:11:44Z</time>
      </trkpt>
      <trkpt lat="45.50638" lon="6.59868">
        <ele>1433.78</ele>
        <time>2016-01-24T08:12:00Z</time>
      </trkpt>
      <trkpt lat="45.50632" lon="6.59862">
        <ele>1436.42</ele>
        <time>2016-01-24T08:12:17Z</time>
      </trkpt>
      <trkpt lat="45.50633" lon="6.59869">
        <ele>1437.92</ele>
        <time>2016-01-24T08:12:32Z</time>
      </trkpt>
      <trkpt lat="45.50635" lon="6.59877">
        <ele>1439.95</ele>
        <time>2016-01-24T08:12:49Z</time>
      </trkpt>
      <trkpt lat="45.50635" lon="6.5989">
        <ele>1441.86</ele>
        <time>2016-01-24T08:13:08Z</time>
      </trkpt>
      <trkpt lat="45.50636" lon="6.59898">
        <ele>1443.57</ele>
        <time>2016-01-24T08:13:21Z</time>
      </trkpt>
      <trkpt lat="45.50635" lon="6.59906">
        <ele>1445.03</ele>
        <time>2016-01-24T08:13:34Z</time>
      </trkpt>
      <trkpt lat="45.50635" lon="6.59916">
        <ele>1446.93</ele>
        <time>2016-01-24T08:13:48Z</time>
      </trkpt>
      <trkpt lat="45.50633" lon="6.59927">
        <ele>1449.41</ele>
        <time>2016-01-24T08:14:05Z</time>
      </trkpt>
      <trkpt lat="45.50626" lon="6.59928">
        <ele>1450.86</ele>
        <time>2016-01-24T08:14:22Z</time>
      </trkpt>
      <trkpt lat="45.50624" lon="6.59936">
        <ele>1452.77</ele>
        <time>2016-01-24T08:14:35Z</time>
      </trkpt>
      <trkpt lat="45.50622" lon="6.59952">
        <ele>1454.59</ele>
        <time>2016-01-24T08:14:54Z</time>
      </trkpt>
      <trkpt lat="45.50622" lon="6.59962">
        <ele>1457.24</ele>
        <time>2016-01-24T08:15:10Z</time>
      </trkpt>
      <trkpt lat="45.50617" lon="6.59969">
        <ele>1459.82</ele>
        <time>2016-01-24T08:15:28Z</time>
      </trkpt>
      <trkpt lat="45.50607" lon="6.59972">
        <ele>1462.23</ele>
        <time>2016-01-24T08:15:46Z</time>
      </trkpt>
      <trkpt lat="45.506" lon="6.59977">
        <ele>1464.42</ele>
        <time>2016-01-24T08:16:03Z</time>
      </trkpt>
      <trkpt lat="45.50597" lon="6.59984">
        <ele>1466.55</ele>
        <time>2016-01-24T08:16:18Z</time>
      </trkpt>
      <trkpt lat="45.50591" lon="6.59995">
        <ele>1468.53</ele>
        <time>2016-01-24T08:16:34Z</time>
      </trkpt>
      <trkpt lat="45.50587" lon="6.60006">
        <ele>1470.3</ele>
        <time>2016-01-24T08:16:50Z</time>
      </trkpt>
      <trkpt lat="45.50584" lon="6.60022">
        <ele>1472.7</ele>
        <time>2016-01-24T08:17:10Z</time>
      </trkpt>
      <trkpt lat="45.50583" lon="6.60034">
        <ele>1474.16</ele>
        <time>2016-01-24T08:17:26Z</time>
      </trkpt>
      <trkpt lat="45.50579" lon="6.60046">
        <ele>1475.81</ele>
        <time>2016-01-24T08:17:42Z</time>
      </trkpt>
      <trkpt lat="45.50576" lon="6.60061">
        <ele>1478.52</ele>
        <time>2016-01-24T08:18:01Z</time>
      </trkpt>
      <trkpt lat="45.50575" lon="6.6007">
        <ele>1479.95</ele>
        <time>2016-01-24T08:18:17Z</time>
      </trkpt>
      <trkpt lat="45.50573" lon="6.60083">
        <ele>1482.54</ele>
        <time>2016-01-24T08:18:36Z</time>
      </trkpt>
      <trkpt lat="45.50572" lon="6.60099">
        <ele>1484.86</ele>
        <time>2016-01-24T08:18:53Z</time>
      </trkpt>
      <trkpt lat="45.5057" lon="6.60109">
        <ele>1487.29</ele>
        <time>2016-01-24T08:19:09Z</time>
      </trkpt>
      <trkpt lat="45.50572" lon="6.60118">
        <ele>1489.6</ele>
        <time>2016-01-24T08:19:25Z</time>
      </trkpt>
      <trkpt lat="45.50577" lon="6.60131">
        <ele>1492.4</ele>
        <time>2016-01-24T08:19:44Z</time>
      </trkpt>
      <trkpt lat="45.50577" lon="6.6015">
        <ele>1495.25</ele>
        <time>2016-01-24T08:20:08Z</time>
      </trkpt>
      <trkpt lat="45.50571" lon="6.60163">
        <ele>1497.26</ele>
        <time>2016-01-24T08:20:24Z</time>
      </trkpt>
      <trkpt lat="45.50568" lon="6.60173">
        <ele>1499.23</ele>
        <time>2016-01-24T08:20:37Z</time>
      </trkpt>
      <trkpt lat="45.5057" lon="6.60184">
        <ele>1501.89</ele>
        <time>2016-01-24T08:20:54Z</time>
      </trkpt>
      <trkpt lat="45.50572" lon="6.60198">
        <ele>1504.25</ele>
        <time>2016-01-24T08:21:12Z</time>
      </trkpt>
      <trkpt lat="45.50569" lon="6.602">
        <ele>1506.36</ele>
        <time>2016-01-24T08:21:29Z</time>
      </trkpt>
      <trkpt lat="45.50561" lon="6.60201">
        <ele>1509.12</ele>
        <time>2016-01-24T08:21:47Z</time>
      </trkpt>
      <trkpt lat="45.5055" lon="6.60209">
        <ele>1510.44</ele>
        <time>2016-01-24T08:22:03Z</time>
      </trkpt>
      <trkpt lat="45.50552" lon="6.6022">
        <ele>1512.58</ele>
        <time>2016-01-24T08:22:18Z</time>
      </trkpt>
      <trkpt lat="45.50552" lon="6.6023">
        <ele>1514.73</ele>
        <time>2016-01-24T08:22:36Z</time>
      </trkpt>
      <trkpt lat="45.50545" lon="6.60238">
        <ele>1517.69</ele>
        <time>2016-01-24T08:22:55Z</time>
      </trkpt>
      <trkpt lat="45.50542" lon="6.60244">
        <ele>1519.82</ele>
        <time>2016-01-24T08:23:12Z</time>
      </trkpt>
      <trkpt lat="45.50536" lon="6.60244">
        <ele>1522.17</ele>
        <time>2016-01-24T08:23:29Z</time>
      </trkpt>
      <trkpt lat="45.50534" lon="6.60249">
        <ele>1524.32</ele>
        <time>2016-01-24T08:23:45Z</time>
      </trkpt>
      <trkpt lat="45.50536" lon="6.60256">
        <ele>1526.24</ele>
        <time>2016-01-24T08:24:01Z</time>
      </trkpt>
      <trkpt lat="45.50537" lon="6.60265">
        <ele>1527.76</ele>
        <time>2016-01-24T08:24:16Z</time>
      </trkpt>
      <trkpt lat="45.5054" lon="6.60273">
        <ele>1529.74</ele>
        <time>2016-01-24T08:24:32Z</time>
      </trkpt>
      <trkpt lat="45.50546" lon="6.60286">
        <ele>1531.69</ele>
        <time>2016-01-24T08:24:50Z</time>
      </trkpt>
      <trkpt lat="45.50551" lon="6.60293">
        <ele>1533.41</ele>
        <time>2016-01-24T08:25:07Z</time>
      </trkpt>
      <trkpt lat="45.50551" lon="6.603">
        <ele>1535.38</ele>
        <time>2016-01-24T08:25:22Z</time>
      </trkpt>
      <trkpt lat="45.50555" lon="6.60307">
        <ele>1537.46</ele>
        <time>2016-01-24T08:25:39Z</time>
      </trkpt>
      <trkpt lat="45.5056" lon="6.60307">
        <ele>1537.89</ele>
        <time>2016-01-24T08:25:58Z</time>
      </trkpt>
      <trkpt lat="45.5057" lon="6.60315">
        <ele>1539.92</ele>
        <time>2016-01-24T08:26:14Z</time>
      </trkpt>
      <trkpt lat="45.50579" lon="6.60314">
        <ele>1542.28</ele>
        <time>2016-01-24T08:26:29Z</time>
      </trkpt>
      <trkpt lat="45.50584" lon="6.60323">
        <ele>1543.9</ele>
        <time>2016-01-24T08:26:45Z</time>
      </trkpt>
      <trkpt lat="45.50589" lon="6.60334">
        <ele>1546.99</ele>
        <time>2016-01-24T08:27:04Z</time>
      </trkpt>
      <trkpt lat="45.50597" lon="6.60339">
        <ele>1549.05</ele>
        <time>2016-01-24T08:27:20Z</time>
      </trkpt>
      <trkpt lat="45.50597" lon="6.60345">
        <ele>1550.65</ele>
        <time>2016-01-24T08:27:32Z</time>
      </trkpt>
      <trkpt lat="45.50594" lon="6.60343">
        <ele>1553.25</ele>
        <time>2016-01-24T08:27:48Z</time>
      </trkpt>
      <trkpt lat="45.50588" lon="6.60343">
        <ele>1555.7</ele>
        <time>2016-01-24T08:28:07Z</time>
      </trkpt>
      <trkpt lat="45.50584" lon="6.60346">
        <ele>1556.63</ele>
        <time>2016-01-24T08:28:15Z</time>
      </trkpt>
      <trkpt lat="45.50583" lon="6.60363">
        <ele>1558.64</ele>
        <time>2016-01-24T08:28:32Z</time>
      </trkpt>
      <trkpt lat="45.50592" lon="6.60374">
        <ele>1561.03</ele>
        <time>2016-01-24T08:28:49Z</time>
      </trkpt>
      <trkpt lat="45.50599" lon="6.60378">
        <ele>1563.02</ele>
        <time>2016-01-24T08:29:04Z</time>
      </trkpt>
      <trkpt lat="45.50606" lon="6.60389">
        <ele>1564.97</ele>
        <time>2016-01-24T08:29:20Z</time>
      </trkpt>
      <trkpt lat="45.50613" lon="6.60394">
        <ele>1566.74</ele>
        <time>2016-01-24T08:29:38Z</time>
      </trkpt>
      <trkpt lat="45.50618" lon="6.60404">
        <ele>1569.3</ele>
        <time>2016-01-24T08:29:54Z</time>
      </trkpt>
      <trkpt lat="45.50622" lon="6.6041">
        <ele>1571.2</ele>
        <time>2016-01-24T08:30:09Z</time>
      </trkpt>
      <trkpt lat="45.50628" lon="6.60415">
        <ele>1573.63</ele>
        <time>2016-01-24T08:30:26Z</time>
      </trkpt>
      <trkpt lat="45.50633" lon="6.60418">
        <ele>1574.97</ele>
        <time>2016-01-24T08:30:35Z</time>
      </trkpt>
      <trkpt lat="45.50641" lon="6.60429">
        <ele>1577.14</ele>
        <time>2016-01-24T08:30:52Z</time>
      </trkpt>
      <trkpt lat="45.50649" lon="6.6044">
        <ele>1579.46</ele>
        <time>2016-01-24T08:31:09Z</time>
      </trkpt>
      <trkpt lat="45.50653" lon="6.60447">
        <ele>1581.65</ele>
        <time>2016-01-24T08:31:25Z</time>
      </trkpt>
      <trkpt lat="45.50658" lon="6.6045">
        <ele>1583.46</ele>
        <time>2016-01-24T08:31:40Z</time>
      </trkpt>
      <trkpt lat="45.50656" lon="6.60456">
        <ele>1585.06</ele>
        <time>2016-01-24T08:31:55Z</time>
      </trkpt>
      <trkpt lat="45.50645" lon="6.60454">
        <ele>1587.17</ele>
        <time>2016-01-24T08:32:13Z</time>
      </trkpt>
      <trkpt lat="45.50639" lon="6.60451">
        <ele>1588.83</ele>
        <time>2016-01-24T08:32:31Z</time>
      </trkpt>
      <trkpt lat="45.50629" lon="6.60451">
        <ele>1590.97</ele>
        <time>2016-01-24T08:32:47Z</time>
      </trkpt>
      <trkpt lat="45.50621" lon="6.60443">
        <ele>1592.54</ele>
        <time>2016-01-24T08:33:03Z</time>
      </trkpt>
      <trkpt lat="45.50613" lon="6.60442">
        <ele>1594.09</ele>
        <time>2016-01-24T08:33:18Z</time>
      </trkpt>
      <trkpt lat="45.506" lon="6.60443">
        <ele>1596.04</ele>
        <time>2016-01-24T08:33:36Z</time>
      </trkpt>
      <trkpt lat="45.5059" lon="6.60449">
        <ele>1597.21</ele>
        <time>2016-01-24T08:33:52Z</time>
      </trkpt>
      <trkpt lat="45.50577" lon="6.60449">
        <ele>1598.38</ele>
        <time>2016-01-24T08:34:08Z</time>
      </trkpt>
      <trkpt lat="45.50563" lon="6.6045">
        <ele>1599.35</ele>
        <time>2016-01-24T08:34:25Z</time>
      </trkpt>
      <trkpt lat="45.50555" lon="6.60453">
        <ele>1600.58</ele>
        <time>2016-01-24T08:34:42Z</time>
      </trkpt>
      <trkpt lat="45.50564" lon="6.60463">
        <ele>1602.61</ele>
        <time>2016-01-24T08:34:56Z</time>
      </trkpt>
      <trkpt lat="45.50573" lon="6.60473">
        <ele>1603.35</ele>
        <time>2016-01-24T08:35:11Z</time>
      </trkpt>
      <trkpt lat="45.50578" lon="6.6048">
        <ele>1604.76</ele>
        <time>2016-01-24T08:35:27Z</time>
      </trkpt>
      <trkpt lat="45.50586" lon="6.60486">
        <ele>1605.82</ele>
        <time>2016-01-24T08:35:42Z</time>
      </trkpt>
      <trkpt lat="45.50596" lon="6.60486">
        <ele>1608.19</ele>
        <time>2016-01-24T08:35:59Z</time>
      </trkpt>
      <trkpt lat="45.50608" lon="6.60493">
        <ele>1609.92</ele>
        <time>2016-01-24T08:36:14Z</time>
      </trkpt>
      <trkpt lat="45.50613" lon="6.60493">
        <ele>1611.17</ele>
        <time>2016-01-24T08:36:28Z</time>
      </trkpt>
      <trkpt lat="45.50611" lon="6.60491">
        <ele>1613.39</ele>
        <time>2016-01-24T08:36:45Z</time>
      </trkpt>
      <trkpt lat="45.50605" lon="6.6049">
        <ele>1615</ele>
        <time>2016-01-24T08:36:59Z</time>
      </trkpt>
      <trkpt lat="45.50597" lon="6.60492">
        <ele>1616.88</ele>
        <time>2016-01-24T08:37:15Z</time>
      </trkpt>
      <trkpt lat="45.50587" lon="6.60494">
        <ele>1618.33</ele>
        <time>2016-01-24T08:37:30Z</time>
      </trkpt>
      <trkpt lat="45.50581" lon="6.60501">
        <ele>1620.75</ele>
        <time>2016-01-24T08:37:48Z</time>
      </trkpt>
      <trkpt lat="45.50569" lon="6.605">
        <ele>1623.12</ele>
        <time>2016-01-24T08:38:06Z</time>
      </trkpt>
      <trkpt lat="45.50557" lon="6.60502">
        <ele>1624.62</ele>
        <time>2016-01-24T08:38:21Z</time>
      </trkpt>
      <trkpt lat="45.5055" lon="6.60503">
        <ele>1626.32</ele>
        <time>2016-01-24T08:38:36Z</time>
      </trkpt>
      <trkpt lat="45.50545" lon="6.60502">
        <ele>1626.33</ele>
        <time>2016-01-24T08:38:53Z</time>
      </trkpt>
      <trkpt lat="45.50542" lon="6.60504">
        <ele>1627.4</ele>
        <time>2016-01-24T08:39:08Z</time>
      </trkpt>
      <trkpt lat="45.50537" lon="6.60507">
        <ele>1628.3</ele>
        <time>2016-01-24T08:39:28Z</time>
      </trkpt>
      <trkpt lat="45.50529" lon="6.60511">
        <ele>1630.45</ele>
        <time>2016-01-24T08:39:43Z</time>
      </trkpt>
      <trkpt lat="45.50518" lon="6.60524">
        <ele>1632.62</ele>
        <time>2016-01-24T08:40:02Z</time>
      </trkpt>
      <trkpt lat="45.5051" lon="6.60528">
        <ele>1634.23</ele>
        <time>2016-01-24T08:40:18Z</time>
      </trkpt>
      <trkpt lat="45.50507" lon="6.60536">
        <ele>1635.69</ele>
        <time>2016-01-24T08:40:32Z</time>
      </trkpt>
      <trkpt lat="45.50511" lon="6.60548">
        <ele>1637.34</ele>
        <time>2016-01-24T08:40:49Z</time>
      </trkpt>
      <trkpt lat="45.50516" lon="6.60549">
        <ele>1639.02</ele>
        <time>2016-01-24T08:41:04Z</time>
      </trkpt>
      <trkpt lat="45.5052" lon="6.60552">
        <ele>1640.84</ele>
        <time>2016-01-24T08:41:18Z</time>
      </trkpt>
      <trkpt lat="45.50526" lon="6.60547">
        <ele>1642.53</ele>
        <time>2016-01-24T08:41:31Z</time>
      </trkpt>
      <trkpt lat="45.5053" lon="6.6055">
        <ele>1644.44</ele>
        <time>2016-01-24T08:41:47Z</time>
      </trkpt>
      <trkpt lat="45.50522" lon="6.60549">
        <ele>1646.55</ele>
        <time>2016-01-24T08:42:05Z</time>
      </trkpt>
      <trkpt lat="45.50519" lon="6.6055">
        <ele>1647.89</ele>
        <time>2016-01-24T08:42:22Z</time>
      </trkpt>
      <trkpt lat="45.50522" lon="6.60561">
        <ele>1650.33</ele>
        <time>2016-01-24T08:42:38Z</time>
      </trkpt>
      <trkpt lat="45.50527" lon="6.60565">
        <ele>1652.12</ele>
        <time>2016-01-24T08:42:53Z</time>
      </trkpt>
      <trkpt lat="45.50535" lon="6.60566">
        <ele>1654.45</ele>
        <time>2016-01-24T08:43:10Z</time>
      </trkpt>
      <trkpt lat="45.50542" lon="6.60574">
        <ele>1656.61</ele>
        <time>2016-01-24T08:43:26Z</time>
      </trkpt>
      <trkpt lat="45.50548" lon="6.60579">
        <ele>1659.22</ele>
        <time>2016-01-24T08:43:42Z</time>
      </trkpt>
      <trkpt lat="45.50554" lon="6.60589">
        <ele>1662.34</ele>
        <time>2016-01-24T08:44:01Z</time>
      </trkpt>
      <trkpt lat="45.50565" lon="6.60595">
        <ele>1663.99</ele>
        <time>2016-01-24T08:44:15Z</time>
      </trkpt>
      <trkpt lat="45.50573" lon="6.60604">
        <ele>1666.34</ele>
        <time>2016-01-24T08:44:33Z</time>
      </trkpt>
      <trkpt lat="45.50577" lon="6.60611">
        <ele>1668.81</ele>
        <time>2016-01-24T08:44:49Z</time>
      </trkpt>
      <trkpt lat="45.50584" lon="6.60614">
        <ele>1671.29</ele>
        <time>2016-01-24T08:45:02Z</time>
      </trkpt>
      <trkpt lat="45.50591" lon="6.60621">
        <ele>1673.33</ele>
        <time>2016-01-24T08:45:16Z</time>
      </trkpt>
      <trkpt lat="45.50601" lon="6.60624">
        <ele>1676.1</ele>
        <time>2016-01-24T08:45:34Z</time>
      </trkpt>
      <trkpt lat="45.50603" lon="6.60629">
        <ele>1678.16</ele>
        <time>2016-01-24T08:45:48Z</time>
      </trkpt>
      <trkpt lat="45.50595" lon="6.60634">
        <ele>1680.17</ele>
        <time>2016-01-24T08:46:02Z</time>
      </trkpt>
      <trkpt lat="45.50588" lon="6.60641">
        <ele>1681.54</ele>
        <time>2016-01-24T08:46:14Z</time>
      </trkpt>
      <trkpt lat="45.50583" lon="6.60645">
        <ele>1682.09</ele>
        <time>2016-01-24T08:46:20Z</time>
      </trkpt>
      <trkpt lat="45.50576" lon="6.60654">
        <ele>1683.41</ele>
        <time>2016-01-24T08:46:34Z</time>
      </trkpt>
      <trkpt lat="45.50571" lon="6.60663">
        <ele>1685.35</ele>
        <time>2016-01-24T08:46:47Z</time>
      </trkpt>
      <trkpt lat="45.50568" lon="6.60666">
        <ele>1685.7</ele>
        <time>2016-01-24T08:46:51Z</time>
      </trkpt>
      <trkpt lat="45.50561" lon="6.60673">
        <ele>1687.51</ele>
        <time>2016-01-24T08:47:03Z</time>
      </trkpt>
      <trkpt lat="45.50553" lon="6.60683">
        <ele>1690.22</ele>
        <time>2016-01-24T08:47:18Z</time>
      </trkpt>
      <trkpt lat="45.50546" lon="6.60689">
        <ele>1692.38</ele>
        <time>2016-01-24T08:47:32Z</time>
      </trkpt>
      <trkpt lat="45.50539" lon="6.60698">
        <ele>1694.38</ele>
        <time>2016-01-24T08:47:46Z</time>
      </trkpt>
      <trkpt lat="45.50533" lon="6.60706">
        <ele>1696.64</ele>
        <time>2016-01-24T08:48:00Z</time>
      </trkpt>
      <trkpt lat="45.5053" lon="6.60709">
        <ele>1698.54</ele>
        <time>2016-01-24T08:48:12Z</time>
      </trkpt>
      <trkpt lat="45.50524" lon="6.6071">
        <ele>1701.08</ele>
        <time>2016-01-24T08:48:28Z</time>
      </trkpt>
      <trkpt lat="45.50517" lon="6.60711">
        <ele>1703.62</ele>
        <time>2016-01-24T08:48:43Z</time>
      </trkpt>
      <trkpt lat="45.5051" lon="6.60715">
        <ele>1705.22</ele>
        <time>2016-01-24T08:48:56Z</time>
      </trkpt>
      <trkpt lat="45.50505" lon="6.60722">
        <ele>1707.88</ele>
        <time>2016-01-24T08:49:12Z</time>
      </trkpt>
      <trkpt lat="45.50501" lon="6.60729">
        <ele>1710.51</ele>
        <time>2016-01-24T08:49:29Z</time>
      </trkpt>
      <trkpt lat="45.50496" lon="6.60735">
        <ele>1712.9</ele>
        <time>2016-01-24T08:49:44Z</time>
      </trkpt>
      <trkpt lat="45.50495" lon="6.6074">
        <ele>1715.34</ele>
        <time>2016-01-24T08:49:59Z</time>
      </trkpt>
      <trkpt lat="45.5049" lon="6.60743">
        <ele>1717.45</ele>
        <time>2016-01-24T08:50:13Z</time>
      </trkpt>
      <trkpt lat="45.50491" lon="6.60753">
        <ele>1719.84</ele>
        <time>2016-01-24T08:50:29Z</time>
      </trkpt>
      <trkpt lat="45.50486" lon="6.60764">
        <ele>1722.18</ele>
        <time>2016-01-24T08:50:44Z</time>
      </trkpt>
      <trkpt lat="45.50479" lon="6.60773">
        <ele>1724.87</ele>
        <time>2016-01-24T08:51:02Z</time>
      </trkpt>
      <trkpt lat="45.50474" lon="6.60781">
        <ele>1727.7</ele>
        <time>2016-01-24T08:51:17Z</time>
      </trkpt>
      <trkpt lat="45.5047" lon="6.60786">
        <ele>1730.08</ele>
        <time>2016-01-24T08:51:31Z</time>
      </trkpt>
      <trkpt lat="45.50463" lon="6.60793">
        <ele>1732.91</ele>
        <time>2016-01-24T08:51:46Z</time>
      </trkpt>
      <trkpt lat="45.50457" lon="6.60798">
        <ele>1734.42</ele>
        <time>2016-01-24T08:51:59Z</time>
      </trkpt>
      <trkpt lat="45.50447" lon="6.60804">
        <ele>1737.34</ele>
        <time>2016-01-24T08:52:16Z</time>
      </trkpt>
      <trkpt lat="45.50436" lon="6.60806">
        <ele>1739.48</ele>
        <time>2016-01-24T08:52:31Z</time>
      </trkpt>
      <trkpt lat="45.50426" lon="6.60811">
        <ele>1741.77</ele>
        <time>2016-01-24T08:52:46Z</time>
      </trkpt>
      <trkpt lat="45.50417" lon="6.60814">
        <ele>1744.07</ele>
        <time>2016-01-24T08:53:01Z</time>
      </trkpt>
      <trkpt lat="45.50409" lon="6.60818">
        <ele>1746.16</ele>
        <time>2016-01-24T08:53:15Z</time>
      </trkpt>
      <trkpt lat="45.50402" lon="6.60827">
        <ele>1748.76</ele>
        <time>2016-01-24T08:53:32Z</time>
      </trkpt>
      <trkpt lat="45.50395" lon="6.60836">
        <ele>1751.3</ele>
        <time>2016-01-24T08:53:48Z</time>
      </trkpt>
      <trkpt lat="45.50388" lon="6.60843">
        <ele>1754.28</ele>
        <time>2016-01-24T08:54:06Z</time>
      </trkpt>
      <trkpt lat="45.50378" lon="6.60851">
        <ele>1757.48</ele>
        <time>2016-01-24T08:54:26Z</time>
      </trkpt>
      <trkpt lat="45.50371" lon="6.60858">
        <ele>1760.38</ele>
        <time>2016-01-24T08:54:42Z</time>
      </trkpt>
      <trkpt lat="45.50368" lon="6.60863">
        <ele>1762.83</ele>
        <time>2016-01-24T08:55:00Z</time>
      </trkpt>
      <trkpt lat="45.50362" lon="6.60865">
        <ele>1764.8</ele>
        <time>2016-01-24T08:55:14Z</time>
      </trkpt>
      <trkpt lat="45.50367" lon="6.60867">
        <ele>1766.07</ele>
        <time>2016-01-24T08:55:27Z</time>
      </trkpt>
      <trkpt lat="45.5037" lon="6.60864">
        <ele>1767.19</ele>
        <time>2016-01-24T08:55:46Z</time>
      </trkpt>
      <trkpt lat="45.50371" lon="6.60863">
        <ele>1767.99</ele>
        <time>2016-01-24T08:56:08Z</time>
      </trkpt>
      <trkpt lat="45.50373" lon="6.60864">
        <ele>1767.17</ele>
        <time>2016-01-24T08:56:26Z</time>
      </trkpt>
      <trkpt lat="45.50376" lon="6.60867">
        <ele>1767.89</ele>
        <time>2016-01-24T08:57:13Z</time>
      </trkpt>
      <trkpt lat="45.50377" lon="6.60867">
        <ele>1768.3</ele>
        <time>2016-01-24T08:57:49Z</time>
      </trkpt>
      <trkpt lat="45.50377" lon="6.60868">
        <ele>1769.53</ele>
        <time>2016-01-24T08:58:40Z</time>
      </trkpt>
      <trkpt lat="45.50375" lon="6.60869">
        <ele>1769.97</ele>
        <time>2016-01-24T08:59:12Z</time>
      </trkpt>
      <trkpt lat="45.50374" lon="6.60868">
        <ele>1771.56</ele>
        <time>2016-01-24T08:59:27Z</time>
      </trkpt>
      <trkpt lat="45.50373" lon="6.60868">
        <ele>1771.63</ele>
        <time>2016-01-24T08:59:45Z</time>
      </trkpt>
      <trkpt lat="45.50374" lon="6.60869">
        <ele>1772.04</ele>
        <time>2016-01-24T09:00:10Z</time>
      </trkpt>
      <trkpt lat="45.50375" lon="6.60867">
        <ele>1772.72</ele>
        <time>2016-01-24T09:00:30Z</time>
      </trkpt>
      <trkpt lat="45.50374" lon="6.60865">
        <ele>1772.7</ele>
        <time>2016-01-24T09:00:51Z</time>
      </trkpt>
      <trkpt lat="45.50373" lon="6.60867">
        <ele>1773.33</ele>
        <time>2016-01-24T09:01:25Z</time>
      </trkpt>
      <trkpt lat="45.50376" lon="6.60871">
        <ele>1774.04</ele>
        <time>2016-01-24T09:02:01Z</time>
      </trkpt>
      <trkpt lat="45.5038" lon="6.60877">
        <ele>1775.83</ele>
        <time>2016-01-24T09:02:22Z</time>
      </trkpt>
      <trkpt lat="45.50376" lon="6.60887">
        <ele>1778.14</ele>
        <time>2016-01-24T09:02:38Z</time>
      </trkpt>
      <trkpt lat="45.50371" lon="6.60889">
        <ele>1780.75</ele>
        <time>2016-01-24T09:02:52Z</time>
      </trkpt>
      <trkpt lat="45.50365" lon="6.60889">
        <ele>1782.94</ele>
        <time>2016-01-24T09:03:06Z</time>
      </trkpt>
      <trkpt lat="45.50355" lon="6.6089">
        <ele>1785.95</ele>
        <time>2016-01-24T09:03:24Z</time>
      </trkpt>
      <trkpt lat="45.50346" lon="6.60895">
        <ele>1788.9</ele>
        <time>2016-01-24T09:03:43Z</time>
      </trkpt>
      <trkpt lat="45.50337" lon="6.60899">
        <ele>1791.92</ele>
        <time>2016-01-24T09:04:01Z</time>
      </trkpt>
      <trkpt lat="45.50328" lon="6.60905">
        <ele>1793.94</ele>
        <time>2016-01-24T09:04:16Z</time>
      </trkpt>
      <trkpt lat="45.5032" lon="6.60912">
        <ele>1796.34</ele>
        <time>2016-01-24T09:04:34Z</time>
      </trkpt>
      <trkpt lat="45.50314" lon="6.60915">
        <ele>1798.67</ele>
        <time>2016-01-24T09:04:49Z</time>
      </trkpt>
      <trkpt lat="45.50309" lon="6.60916">
        <ele>1800.92</ele>
        <time>2016-01-24T09:05:04Z</time>
      </trkpt>
      <trkpt lat="45.50303" lon="6.60914">
        <ele>1803.75</ele>
        <time>2016-01-24T09:05:22Z</time>
      </trkpt>
      <trkpt lat="45.50297" lon="6.60917">
        <ele>1806.79</ele>
        <time>2016-01-24T09:05:38Z</time>
      </trkpt>
      <trkpt lat="45.50291" lon="6.60923">
        <ele>1809.23</ele>
        <time>2016-01-24T09:05:55Z</time>
      </trkpt>
      <trkpt lat="45.50284" lon="6.60932">
        <ele>1811.51</ele>
        <time>2016-01-24T09:06:12Z</time>
      </trkpt>
      <trkpt lat="45.50278" lon="6.60939">
        <ele>1813.76</ele>
        <time>2016-01-24T09:06:30Z</time>
      </trkpt>
      <trkpt lat="45.50269" lon="6.60946">
        <ele>1815.81</ele>
        <time>2016-01-24T09:06:47Z</time>
      </trkpt>
      <trkpt lat="45.50259" lon="6.60946">
        <ele>1817.39</ele>
        <time>2016-01-24T09:07:01Z</time>
      </trkpt>
      <trkpt lat="45.50248" lon="6.60947">
        <ele>1819.46</ele>
        <time>2016-01-24T09:07:19Z</time>
      </trkpt>
      <trkpt lat="45.50241" lon="6.60951">
        <ele>1822.18</ele>
        <time>2016-01-24T09:07:36Z</time>
      </trkpt>
      <trkpt lat="45.50234" lon="6.6096">
        <ele>1825.29</ele>
        <time>2016-01-24T09:07:52Z</time>
      </trkpt>
      <trkpt lat="45.50239" lon="6.60972">
        <ele>1827.99</ele>
        <time>2016-01-24T09:08:09Z</time>
      </trkpt>
      <trkpt lat="45.50247" lon="6.60982">
        <ele>1829.86</ele>
        <time>2016-01-24T09:08:28Z</time>
      </trkpt>
      <trkpt lat="45.50251" lon="6.60994">
        <ele>1832.54</ele>
        <time>2016-01-24T09:08:45Z</time>
      </trkpt>
      <trkpt lat="45.50253" lon="6.61005">
        <ele>1833.7</ele>
        <time>2016-01-24T09:09:00Z</time>
      </trkpt>
      <trkpt lat="45.50258" lon="6.61005">
        <ele>1835.21</ele>
        <time>2016-01-24T09:09:14Z</time>
      </trkpt>
      <trkpt lat="45.50264" lon="6.61005">
        <ele>1836.47</ele>
        <time>2016-01-24T09:09:27Z</time>
      </trkpt>
      <trkpt lat="45.50266" lon="6.61007">
        <ele>1837.64</ele>
        <time>2016-01-24T09:09:34Z</time>
      </trkpt>
      <trkpt lat="45.50263" lon="6.61018">
        <ele>1837.08</ele>
        <time>2016-01-24T09:09:45Z</time>
      </trkpt>
      <trkpt lat="45.50259" lon="6.61029">
        <ele>1837.82</ele>
        <time>2016-01-24T09:09:58Z</time>
      </trkpt>
      <trkpt lat="45.50257" lon="6.6104">
        <ele>1838.5</ele>
        <time>2016-01-24T09:10:11Z</time>
      </trkpt>
      <trkpt lat="45.50254" lon="6.61053">
        <ele>1839.69</ele>
        <time>2016-01-24T09:10:23Z</time>
      </trkpt>
      <trkpt lat="45.50252" lon="6.61065">
        <ele>1840.9</ele>
        <time>2016-01-24T09:10:35Z</time>
      </trkpt>
      <trkpt lat="45.50251" lon="6.61078">
        <ele>1842.04</ele>
        <time>2016-01-24T09:10:47Z</time>
      </trkpt>
      <trkpt lat="45.5025" lon="6.61092">
        <ele>1843.34</ele>
        <time>2016-01-24T09:11:02Z</time>
      </trkpt>
      <trkpt lat="45.50248" lon="6.61103">
        <ele>1844.88</ele>
        <time>2016-01-24T09:11:14Z</time>
      </trkpt>
      <trkpt lat="45.50248" lon="6.61118">
        <ele>1847.16</ele>
        <time>2016-01-24T09:11:29Z</time>
      </trkpt>
      <trkpt lat="45.50243" lon="6.61127">
        <ele>1848.46</ele>
        <time>2016-01-24T09:11:43Z</time>
      </trkpt>
      <trkpt lat="45.50236" lon="6.61123">
        <ele>1850.6</ele>
        <time>2016-01-24T09:11:57Z</time>
      </trkpt>
      <trkpt lat="45.50233" lon="6.61131">
        <ele>1852.73</ele>
        <time>2016-01-24T09:12:09Z</time>
      </trkpt>
      <trkpt lat="45.50231" lon="6.61147">
        <ele>1854.51</ele>
        <time>2016-01-24T09:12:26Z</time>
      </trkpt>
      <trkpt lat="45.50233" lon="6.61158">
        <ele>1856.59</ele>
        <time>2016-01-24T09:12:40Z</time>
      </trkpt>
      <trkpt lat="45.50239" lon="6.61167">
        <ele>1858.95</ele>
        <time>2016-01-24T09:12:55Z</time>
      </trkpt>
      <trkpt lat="45.50243" lon="6.61176">
        <ele>1860.64</ele>
        <time>2016-01-24T09:13:08Z</time>
      </trkpt>
      <trkpt lat="45.50236" lon="6.61176">
        <ele>1862.04</ele>
        <time>2016-01-24T09:13:22Z</time>
      </trkpt>
      <trkpt lat="45.5023" lon="6.61173">
        <ele>1863.78</ele>
        <time>2016-01-24T09:13:35Z</time>
      </trkpt>
      <trkpt lat="45.50223" lon="6.61167">
        <ele>1865.83</ele>
        <time>2016-01-24T09:13:49Z</time>
      </trkpt>
      <trkpt lat="45.50215" lon="6.61161">
        <ele>1867.61</ele>
        <time>2016-01-24T09:14:02Z</time>
      </trkpt>
      <trkpt lat="45.50208" lon="6.61165">
        <ele>1868.86</ele>
        <time>2016-01-24T09:14:15Z</time>
      </trkpt>
      <trkpt lat="45.50207" lon="6.61177">
        <ele>1870.68</ele>
        <time>2016-01-24T09:14:26Z</time>
      </trkpt>
      <trkpt lat="45.50207" lon="6.61191">
        <ele>1872.15</ele>
        <time>2016-01-24T09:14:40Z</time>
      </trkpt>
      <trkpt lat="45.50209" lon="6.61204">
        <ele>1874.26</ele>
        <time>2016-01-24T09:14:54Z</time>
      </trkpt>
      <trkpt lat="45.5021" lon="6.61216">
        <ele>1876.02</ele>
        <time>2016-01-24T09:15:07Z</time>
      </trkpt>
      <trkpt lat="45.50204" lon="6.6122">
        <ele>1877.68</ele>
        <time>2016-01-24T09:15:20Z</time>
      </trkpt>
      <trkpt lat="45.50194" lon="6.61219">
        <ele>1879.49</ele>
        <time>2016-01-24T09:15:35Z</time>
      </trkpt>
      <trkpt lat="45.50183" lon="6.61219">
        <ele>1881.4</ele>
        <time>2016-01-24T09:15:52Z</time>
      </trkpt>
      <trkpt lat="45.50174" lon="6.61217">
        <ele>1883.36</ele>
        <time>2016-01-24T09:16:06Z</time>
      </trkpt>
      <trkpt lat="45.50168" lon="6.61217">
        <ele>1885.03</ele>
        <time>2016-01-24T09:16:21Z</time>
      </trkpt>
      <trkpt lat="45.50162" lon="6.61215">
        <ele>1885.96</ele>
        <time>2016-01-24T09:16:37Z</time>
      </trkpt>
      <trkpt lat="45.50153" lon="6.61212">
        <ele>1887.97</ele>
        <time>2016-01-24T09:16:50Z</time>
      </trkpt>
      <trkpt lat="45.50144" lon="6.61211">
        <ele>1889.67</ele>
        <time>2016-01-24T09:17:02Z</time>
      </trkpt>
      <trkpt lat="45.50138" lon="6.61217">
        <ele>1891.25</ele>
        <time>2016-01-24T09:17:14Z</time>
      </trkpt>
      <trkpt lat="45.50134" lon="6.61221">
        <ele>1892.74</ele>
        <time>2016-01-24T09:17:22Z</time>
      </trkpt>
      <trkpt lat="45.50123" lon="6.61223">
        <ele>1893.91</ele>
        <time>2016-01-24T09:17:35Z</time>
      </trkpt>
      <trkpt lat="45.50114" lon="6.61223">
        <ele>1894.92</ele>
        <time>2016-01-24T09:17:48Z</time>
      </trkpt>
      <trkpt lat="45.5012" lon="6.61231">
        <ele>1897.47</ele>
        <time>2016-01-24T09:18:04Z</time>
      </trkpt>
      <trkpt lat="45.50116" lon="6.61235">
        <ele>1898.78</ele>
        <time>2016-01-24T09:18:17Z</time>
      </trkpt>
      <trkpt lat="45.50108" lon="6.61239">
        <ele>1901.61</ele>
        <time>2016-01-24T09:18:33Z</time>
      </trkpt>
      <trkpt lat="45.50099" lon="6.61243">
        <ele>1904.36</ele>
        <time>2016-01-24T09:18:51Z</time>
      </trkpt>
      <trkpt lat="45.50092" lon="6.61249">
        <ele>1906.96</ele>
        <time>2016-01-24T09:19:06Z</time>
      </trkpt>
      <trkpt lat="45.50087" lon="6.61261">
        <ele>1909.7</ele>
        <time>2016-01-24T09:19:20Z</time>
      </trkpt>
      <trkpt lat="45.50088" lon="6.61269">
        <ele>1911.31</ele>
        <time>2016-01-24T09:19:31Z</time>
      </trkpt>
      <trkpt lat="45.5009" lon="6.61282">
        <ele>1913.16</ele>
        <time>2016-01-24T09:19:46Z</time>
      </trkpt>
      <trkpt lat="45.50093" lon="6.61294">
        <ele>1914.71</ele>
        <time>2016-01-24T09:19:58Z</time>
      </trkpt>
      <trkpt lat="45.50096" lon="6.61307">
        <ele>1916.3</ele>
        <time>2016-01-24T09:20:12Z</time>
      </trkpt>
      <trkpt lat="45.50098" lon="6.61319">
        <ele>1917.41</ele>
        <time>2016-01-24T09:20:25Z</time>
      </trkpt>
      <trkpt lat="45.501" lon="6.61329">
        <ele>1918.54</ele>
        <time>2016-01-24T09:20:37Z</time>
      </trkpt>
      <trkpt lat="45.50097" lon="6.61338">
        <ele>1919.88</ele>
        <time>2016-01-24T09:20:50Z</time>
      </trkpt>
      <trkpt lat="45.50087" lon="6.61343">
        <ele>1921.76</ele>
        <time>2016-01-24T09:21:06Z</time>
      </trkpt>
      <trkpt lat="45.50078" lon="6.61345">
        <ele>1924.08</ele>
        <time>2016-01-24T09:21:21Z</time>
      </trkpt>
      <trkpt lat="45.5007" lon="6.61347">
        <ele>1926.22</ele>
        <time>2016-01-24T09:21:37Z</time>
      </trkpt>
      <trkpt lat="45.50063" lon="6.61354">
        <ele>1928.48</ele>
        <time>2016-01-24T09:21:51Z</time>
      </trkpt>
      <trkpt lat="45.50059" lon="6.61365">
        <ele>1930.8</ele>
        <time>2016-01-24T09:22:05Z</time>
      </trkpt>
      <trkpt lat="45.50056" lon="6.61371">
        <ele>1932.41</ele>
        <time>2016-01-24T09:22:18Z</time>
      </trkpt>
      <trkpt lat="45.50053" lon="6.61378">
        <ele>1934.41</ele>
        <time>2016-01-24T09:22:32Z</time>
      </trkpt>
      <trkpt lat="45.50048" lon="6.61387">
        <ele>1936.15</ele>
        <time>2016-01-24T09:22:44Z</time>
      </trkpt>
      <trkpt lat="45.50044" lon="6.61396">
        <ele>1937.77</ele>
        <time>2016-01-24T09:22:59Z</time>
      </trkpt>
      <trkpt lat="45.50041" lon="6.61404">
        <ele>1940.09</ele>
        <time>2016-01-24T09:23:12Z</time>
      </trkpt>
      <trkpt lat="45.50037" lon="6.61414">
        <ele>1942.46</ele>
        <time>2016-01-24T09:23:28Z</time>
      </trkpt>
      <trkpt lat="45.50032" lon="6.61424">
        <ele>1944.59</ele>
        <time>2016-01-24T09:23:45Z</time>
      </trkpt>
      <trkpt lat="45.50032" lon="6.61436">
        <ele>1947.02</ele>
        <time>2016-01-24T09:24:00Z</time>
      </trkpt>
      <trkpt lat="45.50036" lon="6.61448">
        <ele>1948.76</ele>
        <time>2016-01-24T09:24:16Z</time>
      </trkpt>
      <trkpt lat="45.5004" lon="6.61458">
        <ele>1949.65</ele>
        <time>2016-01-24T09:24:30Z</time>
      </trkpt>
      <trkpt lat="45.50041" lon="6.61469">
        <ele>1951.01</ele>
        <time>2016-01-24T09:24:43Z</time>
      </trkpt>
      <trkpt lat="45.50042" lon="6.61479">
        <ele>1952.83</ele>
        <time>2016-01-24T09:24:57Z</time>
      </trkpt>
      <trkpt lat="45.50039" lon="6.61488">
        <ele>1954.23</ele>
        <time>2016-01-24T09:25:11Z</time>
      </trkpt>
      <trkpt lat="45.5003" lon="6.61483">
        <ele>1956.04</ele>
        <time>2016-01-24T09:25:27Z</time>
      </trkpt>
      <trkpt lat="45.50023" lon="6.61477">
        <ele>1957.43</ele>
        <time>2016-01-24T09:25:40Z</time>
      </trkpt>
      <trkpt lat="45.50014" lon="6.61471">
        <ele>1958.8</ele>
        <time>2016-01-24T09:25:56Z</time>
      </trkpt>
      <trkpt lat="45.50008" lon="6.61468">
        <ele>1961.13</ele>
        <time>2016-01-24T09:26:11Z</time>
      </trkpt>
      <trkpt lat="45.50002" lon="6.61465">
        <ele>1963.47</ele>
        <time>2016-01-24T09:26:26Z</time>
      </trkpt>
      <trkpt lat="45.49999" lon="6.61469">
        <ele>1965.46</ele>
        <time>2016-01-24T09:26:42Z</time>
      </trkpt>
      <trkpt lat="45.5" lon="6.61485">
        <ele>1968.09</ele>
        <time>2016-01-24T09:26:58Z</time>
      </trkpt>
      <trkpt lat="45.50002" lon="6.61496">
        <ele>1969.9</ele>
        <time>2016-01-24T09:27:11Z</time>
      </trkpt>
      <trkpt lat="45.50004" lon="6.6151">
        <ele>1972.42</ele>
        <time>2016-01-24T09:27:29Z</time>
      </trkpt>
      <trkpt lat="45.5" lon="6.61515">
        <ele>1973.83</ele>
        <time>2016-01-24T09:27:40Z</time>
      </trkpt>
      <trkpt lat="45.49996" lon="6.61511">
        <ele>1974.32</ele>
        <time>2016-01-24T09:27:51Z</time>
      </trkpt>
      <trkpt lat="45.49986" lon="6.615">
        <ele>1974.45</ele>
        <time>2016-01-24T09:28:05Z</time>
      </trkpt>
      <trkpt lat="45.49975" lon="6.61487">
        <ele>1974.29</ele>
        <time>2016-01-24T09:28:20Z</time>
      </trkpt>
      <trkpt lat="45.49973" lon="6.61484">
        <ele>1974.08</ele>
        <time>2016-01-24T09:28:23Z</time>
      </trkpt>
      <trkpt lat="45.49968" lon="6.6148">
        <ele>1973.58</ele>
        <time>2016-01-24T09:28:28Z</time>
      </trkpt>
      <trkpt lat="45.49959" lon="6.61478">
        <ele>1973.19</ele>
        <time>2016-01-24T09:28:41Z</time>
      </trkpt>
      <trkpt lat="45.49959" lon="6.61477">
        <ele>1973.54</ele>
        <time>2016-01-24T09:29:08Z</time>
      </trkpt>
      <trkpt lat="45.49955" lon="6.61478">
        <ele>1973.6</ele>
        <time>2016-01-24T09:29:18Z</time>
      </trkpt>
      <trkpt lat="45.49946" lon="6.61485">
        <ele>1973.03</ele>
        <time>2016-01-24T09:29:26Z</time>
      </trkpt>
      <trkpt lat="45.49929" lon="6.61493">
        <ele>1971.05</ele>
        <time>2016-01-24T09:29:39Z</time>
      </trkpt>
      <trkpt lat="45.49914" lon="6.61491">
        <ele>1968.48</ele>
        <time>2016-01-24T09:29:51Z</time>
      </trkpt>
      <trkpt lat="45.49912" lon="6.61491">
        <ele>1968.13</ele>
        <time>2016-01-24T09:30:00Z</time>
      </trkpt>
      <trkpt lat="45.49905" lon="6.61489">
        <ele>1967.97</ele>
        <time>2016-01-24T09:30:09Z</time>
      </trkpt>
      <trkpt lat="45.49884" lon="6.61484">
        <ele>1966.25</ele>
        <time>2016-01-24T09:30:25Z</time>
      </trkpt>
      <trkpt lat="45.49866" lon="6.6148">
        <ele>1964.26</ele>
        <time>2016-01-24T09:30:37Z</time>
      </trkpt>
      <trkpt lat="45.49847" lon="6.61476">
        <ele>1961.06</ele>
        <time>2016-01-24T09:30:50Z</time>
      </trkpt>
      <trkpt lat="45.49829" lon="6.61468">
        <ele>1958.35</ele>
        <time>2016-01-24T09:31:03Z</time>
      </trkpt>
      <trkpt lat="45.49813" lon="6.61466">
        <ele>1956.37</ele>
        <time>2016-01-24T09:31:17Z</time>
      </trkpt>
      <trkpt lat="45.49797" lon="6.61466">
        <ele>1955.06</ele>
        <time>2016-01-24T09:31:30Z</time>
      </trkpt>
      <trkpt lat="45.49778" lon="6.61455">
        <ele>1953.49</ele>
        <time>2016-01-24T09:31:45Z</time>
      </trkpt>
      <trkpt lat="45.49767" lon="6.61444">
        <ele>1951.9</ele>
        <time>2016-01-24T09:31:56Z</time>
      </trkpt>
      <trkpt lat="45.49757" lon="6.6143">
        <ele>1950.77</ele>
        <time>2016-01-24T09:32:10Z</time>
      </trkpt>
      <trkpt lat="45.49747" lon="6.61417">
        <ele>1950.02</ele>
        <time>2016-01-24T09:32:22Z</time>
      </trkpt>
      <trkpt lat="45.4974" lon="6.61405">
        <ele>1949.11</ele>
        <time>2016-01-24T09:32:32Z</time>
      </trkpt>
      <trkpt lat="45.49727" lon="6.61392">
        <ele>1947.05</ele>
        <time>2016-01-24T09:32:45Z</time>
      </trkpt>
      <trkpt lat="45.49719" lon="6.61384">
        <ele>1946.05</ele>
        <time>2016-01-24T09:32:53Z</time>
      </trkpt>
      <trkpt lat="45.4971" lon="6.61376">
        <ele>1945.21</ele>
        <time>2016-01-24T09:33:04Z</time>
      </trkpt>
      <trkpt lat="45.49701" lon="6.61367">
        <ele>1945.81</ele>
        <time>2016-01-24T09:33:19Z</time>
      </trkpt>
      <trkpt lat="45.49694" lon="6.61359">
        <ele>1946.56</ele>
        <time>2016-01-24T09:33:35Z</time>
      </trkpt>
      <trkpt lat="45.49683" lon="6.61349">
        <ele>1947.91</ele>
        <time>2016-01-24T09:33:52Z</time>
      </trkpt>
      <trkpt lat="45.49677" lon="6.6134">
        <ele>1949.05</ele>
        <time>2016-01-24T09:34:07Z</time>
      </trkpt>
      <trkpt lat="45.49669" lon="6.61331">
        <ele>1950.07</ele>
        <time>2016-01-24T09:34:25Z</time>
      </trkpt>
      <trkpt lat="45.4966" lon="6.61324">
        <ele>1951.32</ele>
        <time>2016-01-24T09:34:41Z</time>
      </trkpt>
      <trkpt lat="45.49649" lon="6.61318">
        <ele>1952.24</ele>
        <time>2016-01-24T09:34:57Z</time>
      </trkpt>
      <trkpt lat="45.4964" lon="6.61314">
        <ele>1953.24</ele>
        <time>2016-01-24T09:35:10Z</time>
      </trkpt>
      <trkpt lat="45.49629" lon="6.61312">
        <ele>1954.32</ele>
        <time>2016-01-24T09:35:25Z</time>
      </trkpt>
      <trkpt lat="45.49617" lon="6.61312">
        <ele>1955.33</ele>
        <time>2016-01-24T09:35:44Z</time>
      </trkpt>
      <trkpt lat="45.49605" lon="6.61313">
        <ele>1956.14</ele>
        <time>2016-01-24T09:36:02Z</time>
      </trkpt>
      <trkpt lat="45.49595" lon="6.61309">
        <ele>1957.77</ele>
        <time>2016-01-24T09:36:18Z</time>
      </trkpt>
      <trkpt lat="45.49587" lon="6.61303">
        <ele>1959</ele>
        <time>2016-01-24T09:36:33Z</time>
      </trkpt>
      <trkpt lat="45.4958" lon="6.61299">
        <ele>1960.19</ele>
        <time>2016-01-24T09:36:46Z</time>
      </trkpt>
      <trkpt lat="45.4957" lon="6.61292">
        <ele>1961.7</ele>
        <time>2016-01-24T09:37:04Z</time>
      </trkpt>
      <trkpt lat="45.49556" lon="6.61287">
        <ele>1963.2</ele>
        <time>2016-01-24T09:37:22Z</time>
      </trkpt>
      <trkpt lat="45.49547" lon="6.61286">
        <ele>1964.6</ele>
        <time>2016-01-24T09:37:38Z</time>
      </trkpt>
      <trkpt lat="45.49539" lon="6.61285">
        <ele>1966.15</ele>
        <time>2016-01-24T09:37:54Z</time>
      </trkpt>
      <trkpt lat="45.49531" lon="6.61278">
        <ele>1967.23</ele>
        <time>2016-01-24T09:38:10Z</time>
      </trkpt>
      <trkpt lat="45.49523" lon="6.61265">
        <ele>1968.99</ele>
        <time>2016-01-24T09:38:27Z</time>
      </trkpt>
      <trkpt lat="45.4952" lon="6.61253">
        <ele>1970.08</ele>
        <time>2016-01-24T09:38:41Z</time>
      </trkpt>
      <trkpt lat="45.49513" lon="6.61241">
        <ele>1971.57</ele>
        <time>2016-01-24T09:38:57Z</time>
      </trkpt>
      <trkpt lat="45.49497" lon="6.61237">
        <ele>1973</ele>
        <time>2016-01-24T09:39:12Z</time>
      </trkpt>
      <trkpt lat="45.49486" lon="6.61235">
        <ele>1974.49</ele>
        <time>2016-01-24T09:39:29Z</time>
      </trkpt>
      <trkpt lat="45.49474" lon="6.61232">
        <ele>1975.83</ele>
        <time>2016-01-24T09:39:47Z</time>
      </trkpt>
      <trkpt lat="45.49465" lon="6.61231">
        <ele>1977.04</ele>
        <time>2016-01-24T09:40:03Z</time>
      </trkpt>
      <trkpt lat="45.49458" lon="6.61228">
        <ele>1977.84</ele>
        <time>2016-01-24T09:40:18Z</time>
      </trkpt>
      <trkpt lat="45.49451" lon="6.61222">
        <ele>1978.87</ele>
        <time>2016-01-24T09:40:33Z</time>
      </trkpt>
      <trkpt lat="45.49441" lon="6.61214">
        <ele>1980.32</ele>
        <time>2016-01-24T09:40:48Z</time>
      </trkpt>
      <trkpt lat="45.49435" lon="6.61197">
        <ele>1980.9</ele>
        <time>2016-01-24T09:41:03Z</time>
      </trkpt>
      <trkpt lat="45.49432" lon="6.61187">
        <ele>1981.42</ele>
        <time>2016-01-24T09:41:15Z</time>
      </trkpt>
      <trkpt lat="45.49423" lon="6.61175">
        <ele>1981.82</ele>
        <time>2016-01-24T09:41:30Z</time>
      </trkpt>
      <trkpt lat="45.49415" lon="6.61164">
        <ele>1982.28</ele>
        <time>2016-01-24T09:41:44Z</time>
      </trkpt>
      <trkpt lat="45.494" lon="6.61155">
        <ele>1983.29</ele>
        <time>2016-01-24T09:42:01Z</time>
      </trkpt>
      <trkpt lat="45.49387" lon="6.61151">
        <ele>1984.3</ele>
        <time>2016-01-24T09:42:18Z</time>
      </trkpt>
      <trkpt lat="45.49377" lon="6.61149">
        <ele>1985.13</ele>
        <time>2016-01-24T09:42:34Z</time>
      </trkpt>
      <trkpt lat="45.49367" lon="6.61149">
        <ele>1986.26</ele>
        <time>2016-01-24T09:42:50Z</time>
      </trkpt>
      <trkpt lat="45.49354" lon="6.61148">
        <ele>1987.9</ele>
        <time>2016-01-24T09:43:09Z</time>
      </trkpt>
      <trkpt lat="45.49343" lon="6.61146">
        <ele>1988.67</ele>
        <time>2016-01-24T09:43:27Z</time>
      </trkpt>
      <trkpt lat="45.49336" lon="6.61142">
        <ele>1990.41</ele>
        <time>2016-01-24T09:43:44Z</time>
      </trkpt>
      <trkpt lat="45.49331" lon="6.61142">
        <ele>1991.49</ele>
        <time>2016-01-24T09:43:59Z</time>
      </trkpt>
      <trkpt lat="45.49324" lon="6.61141">
        <ele>1992.12</ele>
        <time>2016-01-24T09:44:16Z</time>
      </trkpt>
      <trkpt lat="45.49313" lon="6.61131">
        <ele>1993.7</ele>
        <time>2016-01-24T09:44:33Z</time>
      </trkpt>
      <trkpt lat="45.493" lon="6.61119">
        <ele>1995.34</ele>
        <time>2016-01-24T09:44:52Z</time>
      </trkpt>
      <trkpt lat="45.49294" lon="6.6111">
        <ele>1995.63</ele>
        <time>2016-01-24T09:45:03Z</time>
      </trkpt>
      <trkpt lat="45.49283" lon="6.61098">
        <ele>1996.28</ele>
        <time>2016-01-24T09:45:20Z</time>
      </trkpt>
      <trkpt lat="45.49278" lon="6.61086">
        <ele>1997.29</ele>
        <time>2016-01-24T09:45:32Z</time>
      </trkpt>
      <trkpt lat="45.49266" lon="6.61075">
        <ele>1997.92</ele>
        <time>2016-01-24T09:45:48Z</time>
      </trkpt>
      <trkpt lat="45.49257" lon="6.61062">
        <ele>1998.67</ele>
        <time>2016-01-24T09:46:03Z</time>
      </trkpt>
      <trkpt lat="45.49249" lon="6.61051">
        <ele>1999.61</ele>
        <time>2016-01-24T09:46:18Z</time>
      </trkpt>
      <trkpt lat="45.49241" lon="6.61042">
        <ele>2000.47</ele>
        <time>2016-01-24T09:46:31Z</time>
      </trkpt>
      <trkpt lat="45.49234" lon="6.61031">
        <ele>2001.07</ele>
        <time>2016-01-24T09:46:44Z</time>
      </trkpt>
      <trkpt lat="45.49224" lon="6.61022">
        <ele>2001.77</ele>
        <time>2016-01-24T09:46:57Z</time>
      </trkpt>
      <trkpt lat="45.49223" lon="6.61021">
        <ele>2001.84</ele>
        <time>2016-01-24T09:46:58Z</time>
      </trkpt>
      <trkpt lat="45.49215" lon="6.61009">
        <ele>2002.53</ele>
        <time>2016-01-24T09:47:13Z</time>
      </trkpt>
      <trkpt lat="45.49208" lon="6.61001">
        <ele>2003.34</ele>
        <time>2016-01-24T09:47:24Z</time>
      </trkpt>
      <trkpt lat="45.49201" lon="6.60992">
        <ele>2004.4</ele>
        <time>2016-01-24T09:47:36Z</time>
      </trkpt>
      <trkpt lat="45.49193" lon="6.6098">
        <ele>2005.48</ele>
        <time>2016-01-24T09:47:50Z</time>
      </trkpt>
      <trkpt lat="45.49186" lon="6.60969">
        <ele>2006.22</ele>
        <time>2016-01-24T09:48:03Z</time>
      </trkpt>
      <trkpt lat="45.49181" lon="6.60959">
        <ele>2007.27</ele>
        <time>2016-01-24T09:48:16Z</time>
      </trkpt>
      <trkpt lat="45.49173" lon="6.60951">
        <ele>2008.03</ele>
        <time>2016-01-24T09:48:29Z</time>
      </trkpt>
      <trkpt lat="45.4917" lon="6.60946">
        <ele>2008.87</ele>
        <time>2016-01-24T09:48:41Z</time>
      </trkpt>
      <trkpt lat="45.49166" lon="6.6094">
        <ele>2009.06</ele>
        <time>2016-01-24T09:49:01Z</time>
      </trkpt>
      <trkpt lat="45.49157" lon="6.60928">
        <ele>2010.28</ele>
        <time>2016-01-24T09:49:16Z</time>
      </trkpt>
      <trkpt lat="45.49156" lon="6.60916">
        <ele>2011.6</ele>
        <time>2016-01-24T09:49:29Z</time>
      </trkpt>
      <trkpt lat="45.49157" lon="6.609">
        <ele>2013.32</ele>
        <time>2016-01-24T09:49:45Z</time>
      </trkpt>
      <trkpt lat="45.49155" lon="6.60888">
        <ele>2014.29</ele>
        <time>2016-01-24T09:50:00Z</time>
      </trkpt>
      <trkpt lat="45.49149" lon="6.60874">
        <ele>2016.89</ele>
        <time>2016-01-24T09:50:16Z</time>
      </trkpt>
      <trkpt lat="45.49145" lon="6.60865">
        <ele>2018.76</ele>
        <time>2016-01-24T09:50:30Z</time>
      </trkpt>
      <trkpt lat="45.49141" lon="6.60861">
        <ele>2020.3</ele>
        <time>2016-01-24T09:50:43Z</time>
      </trkpt>
      <trkpt lat="45.49136" lon="6.60852">
        <ele>2022.7</ele>
        <time>2016-01-24T09:50:57Z</time>
      </trkpt>
      <trkpt lat="45.49131" lon="6.60844">
        <ele>2024.78</ele>
        <time>2016-01-24T09:51:13Z</time>
      </trkpt>
      <trkpt lat="45.4913" lon="6.60841">
        <ele>2026.58</ele>
        <time>2016-01-24T09:51:27Z</time>
      </trkpt>
      <trkpt lat="45.49127" lon="6.60834">
        <ele>2026.99</ele>
        <time>2016-01-24T09:51:42Z</time>
      </trkpt>
      <trkpt lat="45.49121" lon="6.60826">
        <ele>2028.43</ele>
        <time>2016-01-24T09:51:56Z</time>
      </trkpt>
      <trkpt lat="45.49114" lon="6.60815">
        <ele>2031.62</ele>
        <time>2016-01-24T09:52:14Z</time>
      </trkpt>
      <trkpt lat="45.49105" lon="6.60804">
        <ele>2034.4</ele>
        <time>2016-01-24T09:52:31Z</time>
      </trkpt>
      <trkpt lat="45.491" lon="6.60795">
        <ele>2036.92</ele>
        <time>2016-01-24T09:52:47Z</time>
      </trkpt>
      <trkpt lat="45.49094" lon="6.60783">
        <ele>2039.59</ele>
        <time>2016-01-24T09:53:03Z</time>
      </trkpt>
      <trkpt lat="45.49088" lon="6.60772">
        <ele>2041.68</ele>
        <time>2016-01-24T09:53:18Z</time>
      </trkpt>
      <trkpt lat="45.49084" lon="6.60762">
        <ele>2042.93</ele>
        <time>2016-01-24T09:53:32Z</time>
      </trkpt>
      <trkpt lat="45.49083" lon="6.60758">
        <ele>2045.09</ele>
        <time>2016-01-24T09:53:48Z</time>
      </trkpt>
      <trkpt lat="45.49083" lon="6.60758">
        <ele>2045.71</ele>
        <time>2016-01-24T09:54:09Z</time>
      </trkpt>
      <trkpt lat="45.49084" lon="6.6076">
        <ele>2044.93</ele>
        <time>2016-01-24T09:54:26Z</time>
      </trkpt>
      <trkpt lat="45.49084" lon="6.6076">
        <ele>2044.82</ele>
        <time>2016-01-24T09:54:44Z</time>
      </trkpt>
      <trkpt lat="45.49083" lon="6.60761">
        <ele>2044.53</ele>
        <time>2016-01-24T09:55:05Z</time>
      </trkpt>
      <trkpt lat="45.49084" lon="6.6076">
        <ele>2044.29</ele>
        <time>2016-01-24T09:55:42Z</time>
      </trkpt>
      <trkpt lat="45.49083" lon="6.6076">
        <ele>2044.37</ele>
        <time>2016-01-24T09:56:22Z</time>
      </trkpt>
      <trkpt lat="45.49083" lon="6.6076">
        <ele>2044.24</ele>
        <time>2016-01-24T09:57:20Z</time>
      </trkpt>
      <trkpt lat="45.49083" lon="6.60759">
        <ele>2044.56</ele>
        <time>2016-01-24T09:57:40Z</time>
      </trkpt>
      <trkpt lat="45.49086" lon="6.60757">
        <ele>2045.18</ele>
        <time>2016-01-24T09:57:53Z</time>
      </trkpt>
      <trkpt lat="45.49097" lon="6.60746">
        <ele>2044.13</ele>
        <time>2016-01-24T09:58:08Z</time>
      </trkpt>
      <trkpt lat="45.49098" lon="6.60746">
        <ele>2043.46</ele>
        <time>2016-01-24T09:58:26Z</time>
      </trkpt>
      <trkpt lat="45.49098" lon="6.60748">
        <ele>2043.58</ele>
        <time>2016-01-24T09:59:04Z</time>
      </trkpt>
      <trkpt lat="45.49098" lon="6.60746">
        <ele>2043.73</ele>
        <time>2016-01-24T09:59:34Z</time>
      </trkpt>
      <trkpt lat="45.49098" lon="6.60746">
        <ele>2043.53</ele>
        <time>2016-01-24T09:59:49Z</time>
      </trkpt>
      <trkpt lat="45.49098" lon="6.60745">
        <ele>2043.53</ele>
        <time>2016-01-24T10:00:10Z</time>
      </trkpt>
      <trkpt lat="45.49097" lon="6.60745">
        <ele>2043.76</ele>
        <time>2016-01-24T10:00:37Z</time>
      </trkpt>
      <trkpt lat="45.49097" lon="6.60745">
        <ele>2043.22</ele>
        <time>2016-01-24T10:01:03Z</time>
      </trkpt>
      <trkpt lat="45.49097" lon="6.60744">
        <ele>2043.33</ele>
        <time>2016-01-24T10:01:27Z</time>
      </trkpt>
      <trkpt lat="45.49095" lon="6.60744">
        <ele>2043.13</ele>
        <time>2016-01-24T10:02:05Z</time>
      </trkpt>
      <trkpt lat="45.49095" lon="6.60744">
        <ele>2043.67</ele>
        <time>2016-01-24T10:02:23Z</time>
      </trkpt>
      <trkpt lat="45.49095" lon="6.60746">
        <ele>2043.72</ele>
        <time>2016-01-24T10:02:48Z</time>
      </trkpt>
      <trkpt lat="45.49094" lon="6.60746">
        <ele>2037.78</ele>
        <time>2016-01-24T10:02:52Z</time>
      </trkpt>
      <trkpt lat="45.49094" lon="6.60746">
        <ele>2037.78</ele>
        <time>2016-01-24T10:02:53Z</time>
      </trkpt>
      <trkpt lat="45.49095" lon="6.60746">
        <ele>2038.27</ele>
        <time>2016-01-24T10:03:17Z</time>
      </trkpt>
      <trkpt lat="45.49095" lon="6.60744">
        <ele>2038.63</ele>
        <time>2016-01-24T10:03:43Z</time>
      </trkpt>
      <trkpt lat="45.49095" lon="6.60743">
        <ele>2038.43</ele>
        <time>2016-01-24T10:04:18Z</time>
      </trkpt>
      <trkpt lat="45.49095" lon="6.60744">
        <ele>2038.39</ele>
        <time>2016-01-24T10:04:45Z</time>
      </trkpt>
      <trkpt lat="45.49094" lon="6.60742">
        <ele>2038.29</ele>
        <time>2016-01-24T10:05:12Z</time>
      </trkpt>
      <trkpt lat="45.49092" lon="6.60741">
        <ele>2038.51</ele>
        <time>2016-01-24T10:05:41Z</time>
      </trkpt>
      <trkpt lat="45.49093" lon="6.60742">
        <ele>2039.09</ele>
        <time>2016-01-24T10:06:08Z</time>
      </trkpt>
      <trkpt lat="45.49094" lon="6.60741">
        <ele>2039.41</ele>
        <time>2016-01-24T10:06:25Z</time>
      </trkpt>
      <trkpt lat="45.49098" lon="6.60741">
        <ele>2039.19</ele>
        <time>2016-01-24T10:06:52Z</time>
      </trkpt>
      <trkpt lat="45.49099" lon="6.60744">
        <ele>2039.25</ele>
        <time>2016-01-24T10:07:20Z</time>
      </trkpt>
      <trkpt lat="45.49096" lon="6.60746">
        <ele>2039.63</ele>
        <time>2016-01-24T10:07:42Z</time>
      </trkpt>
      <trkpt lat="45.49095" lon="6.60747">
        <ele>2039.93</ele>
        <time>2016-01-24T10:08:03Z</time>
      </trkpt>
      <trkpt lat="45.4909" lon="6.60753">
        <ele>2040.48</ele>
        <time>2016-01-24T10:08:20Z</time>
      </trkpt>
      <trkpt lat="45.4908" lon="6.60754">
        <ele>2041.25</ele>
        <time>2016-01-24T10:08:38Z</time>
      </trkpt>
      <trkpt lat="45.49069" lon="6.60754">
        <ele>2042.97</ele>
        <time>2016-01-24T10:08:53Z</time>
      </trkpt>
      <trkpt lat="45.49062" lon="6.6076">
        <ele>2044.99</ele>
        <time>2016-01-24T10:09:10Z</time>
      </trkpt>
      <trkpt lat="45.49058" lon="6.60775">
        <ele>2048.06</ele>
        <time>2016-01-24T10:09:26Z</time>
      </trkpt>
      <trkpt lat="45.49053" lon="6.60789">
        <ele>2050.52</ele>
        <time>2016-01-24T10:09:44Z</time>
      </trkpt>
      <trkpt lat="45.49052" lon="6.60794">
        <ele>2051.52</ele>
        <time>2016-01-24T10:09:58Z</time>
      </trkpt>
      <trkpt lat="45.49047" lon="6.60781">
        <ele>2053.94</ele>
        <time>2016-01-24T10:10:16Z</time>
      </trkpt>
      <trkpt lat="45.49039" lon="6.6077">
        <ele>2056.05</ele>
        <time>2016-01-24T10:10:34Z</time>
      </trkpt>
      <trkpt lat="45.4903" lon="6.60758">
        <ele>2058.5</ele>
        <time>2016-01-24T10:10:52Z</time>
      </trkpt>
      <trkpt lat="45.49022" lon="6.60747">
        <ele>2061.61</ele>
        <time>2016-01-24T10:11:10Z</time>
      </trkpt>
      <trkpt lat="45.49015" lon="6.60736">
        <ele>2063.97</ele>
        <time>2016-01-24T10:11:27Z</time>
      </trkpt>
      <trkpt lat="45.49009" lon="6.60732">
        <ele>2066.13</ele>
        <time>2016-01-24T10:11:42Z</time>
      </trkpt>
      <trkpt lat="45.49001" lon="6.60728">
        <ele>2068.67</ele>
        <time>2016-01-24T10:11:59Z</time>
      </trkpt>
      <trkpt lat="45.48993" lon="6.60723">
        <ele>2071.35</ele>
        <time>2016-01-24T10:12:16Z</time>
      </trkpt>
      <trkpt lat="45.48986" lon="6.60723">
        <ele>2073.9</ele>
        <time>2016-01-24T10:12:33Z</time>
      </trkpt>
      <trkpt lat="45.48977" lon="6.60725">
        <ele>2076.34</ele>
        <time>2016-01-24T10:12:50Z</time>
      </trkpt>
      <trkpt lat="45.48967" lon="6.6073">
        <ele>2079.18</ele>
        <time>2016-01-24T10:13:09Z</time>
      </trkpt>
      <trkpt lat="45.48958" lon="6.60735">
        <ele>2082.05</ele>
        <time>2016-01-24T10:13:26Z</time>
      </trkpt>
      <trkpt lat="45.4895" lon="6.60741">
        <ele>2084.16</ele>
        <time>2016-01-24T10:13:42Z</time>
      </trkpt>
      <trkpt lat="45.48943" lon="6.6075">
        <ele>2087.16</ele>
        <time>2016-01-24T10:13:59Z</time>
      </trkpt>
      <trkpt lat="45.48934" lon="6.60756">
        <ele>2090.14</ele>
        <time>2016-01-24T10:14:17Z</time>
      </trkpt>
      <trkpt lat="45.48929" lon="6.60767">
        <ele>2092.33</ele>
        <time>2016-01-24T10:14:34Z</time>
      </trkpt>
      <trkpt lat="45.48922" lon="6.60779">
        <ele>2095</ele>
        <time>2016-01-24T10:14:52Z</time>
      </trkpt>
      <trkpt lat="45.48917" lon="6.6079">
        <ele>2098.21</ele>
        <time>2016-01-24T10:15:09Z</time>
      </trkpt>
      <trkpt lat="45.48912" lon="6.60799">
        <ele>2100.55</ele>
        <time>2016-01-24T10:15:23Z</time>
      </trkpt>
      <trkpt lat="45.48906" lon="6.60806">
        <ele>2102.09</ele>
        <time>2016-01-24T10:15:35Z</time>
      </trkpt>
      <trkpt lat="45.48899" lon="6.60815">
        <ele>2105.25</ele>
        <time>2016-01-24T10:15:50Z</time>
      </trkpt>
      <trkpt lat="45.48892" lon="6.6083">
        <ele>2107.98</ele>
        <time>2016-01-24T10:16:07Z</time>
      </trkpt>
      <trkpt lat="45.48886" lon="6.60842">
        <ele>2110.35</ele>
        <time>2016-01-24T10:16:22Z</time>
      </trkpt>
      <trkpt lat="45.48881" lon="6.60856">
        <ele>2112.23</ele>
        <time>2016-01-24T10:16:37Z</time>
      </trkpt>
      <trkpt lat="45.48876" lon="6.60869">
        <ele>2114.25</ele>
        <time>2016-01-24T10:16:51Z</time>
      </trkpt>
      <trkpt lat="45.4887" lon="6.60883">
        <ele>2116.48</ele>
        <time>2016-01-24T10:17:07Z</time>
      </trkpt>
      <trkpt lat="45.48868" lon="6.60892">
        <ele>2117.28</ele>
        <time>2016-01-24T10:17:14Z</time>
      </trkpt>
      <trkpt lat="45.48863" lon="6.60908">
        <ele>2117.73</ele>
        <time>2016-01-24T10:17:27Z</time>
      </trkpt>
      <trkpt lat="45.48853" lon="6.60919">
        <ele>2119.55</ele>
        <time>2016-01-24T10:17:43Z</time>
      </trkpt>
      <trkpt lat="45.48851" lon="6.60938">
        <ele>2122.48</ele>
        <time>2016-01-24T10:17:59Z</time>
      </trkpt>
      <trkpt lat="45.4885" lon="6.60954">
        <ele>2123.6</ele>
        <time>2016-01-24T10:18:13Z</time>
      </trkpt>
      <trkpt lat="45.48846" lon="6.60967">
        <ele>2124.62</ele>
        <time>2016-01-24T10:18:25Z</time>
      </trkpt>
      <trkpt lat="45.4884" lon="6.60985">
        <ele>2126.25</ele>
        <time>2016-01-24T10:18:43Z</time>
      </trkpt>
      <trkpt lat="45.48829" lon="6.60996">
        <ele>2127.96</ele>
        <time>2016-01-24T10:18:59Z</time>
      </trkpt>
      <trkpt lat="45.4882" lon="6.61002">
        <ele>2130.59</ele>
        <time>2016-01-24T10:19:15Z</time>
      </trkpt>
      <trkpt lat="45.48812" lon="6.61004">
        <ele>2132.52</ele>
        <time>2016-01-24T10:19:29Z</time>
      </trkpt>
      <trkpt lat="45.48802" lon="6.61006">
        <ele>2134.59</ele>
        <time>2016-01-24T10:19:45Z</time>
      </trkpt>
      <trkpt lat="45.48792" lon="6.61008">
        <ele>2137.39</ele>
        <time>2016-01-24T10:20:02Z</time>
      </trkpt>
      <trkpt lat="45.48784" lon="6.61012">
        <ele>2139.52</ele>
        <time>2016-01-24T10:20:17Z</time>
      </trkpt>
      <trkpt lat="45.48775" lon="6.61014">
        <ele>2141.86</ele>
        <time>2016-01-24T10:20:33Z</time>
      </trkpt>
      <trkpt lat="45.48764" lon="6.61018">
        <ele>2143.78</ele>
        <time>2016-01-24T10:20:50Z</time>
      </trkpt>
      <trkpt lat="45.48754" lon="6.6102">
        <ele>2146.04</ele>
        <time>2016-01-24T10:21:05Z</time>
      </trkpt>
      <trkpt lat="45.48745" lon="6.61023">
        <ele>2148.69</ele>
        <time>2016-01-24T10:21:22Z</time>
      </trkpt>
      <trkpt lat="45.48736" lon="6.6103">
        <ele>2151.9</ele>
        <time>2016-01-24T10:21:42Z</time>
      </trkpt>
      <trkpt lat="45.48729" lon="6.61035">
        <ele>2154.34</ele>
        <time>2016-01-24T10:21:57Z</time>
      </trkpt>
      <trkpt lat="45.48722" lon="6.6104">
        <ele>2156.91</ele>
        <time>2016-01-24T10:22:13Z</time>
      </trkpt>
      <trkpt lat="45.48716" lon="6.61046">
        <ele>2158.38</ele>
        <time>2016-01-24T10:22:26Z</time>
      </trkpt>
      <trkpt lat="45.48711" lon="6.61052">
        <ele>2160.26</ele>
        <time>2016-01-24T10:22:39Z</time>
      </trkpt>
      <trkpt lat="45.48705" lon="6.61059">
        <ele>2161.91</ele>
        <time>2016-01-24T10:22:52Z</time>
      </trkpt>
      <trkpt lat="45.48698" lon="6.6107">
        <ele>2163.7</ele>
        <time>2016-01-24T10:23:08Z</time>
      </trkpt>
      <trkpt lat="45.48691" lon="6.61078">
        <ele>2164.98</ele>
        <time>2016-01-24T10:23:20Z</time>
      </trkpt>
      <trkpt lat="45.48683" lon="6.61088">
        <ele>2166.53</ele>
        <time>2016-01-24T10:23:35Z</time>
      </trkpt>
      <trkpt lat="45.48676" lon="6.61095">
        <ele>2168.22</ele>
        <time>2016-01-24T10:23:49Z</time>
      </trkpt>
      <trkpt lat="45.48671" lon="6.61105">
        <ele>2169.83</ele>
        <time>2016-01-24T10:24:03Z</time>
      </trkpt>
      <trkpt lat="45.48667" lon="6.61115">
        <ele>2172.09</ele>
        <time>2016-01-24T10:24:17Z</time>
      </trkpt>
      <trkpt lat="45.48665" lon="6.61127">
        <ele>2174.25</ele>
        <time>2016-01-24T10:24:31Z</time>
      </trkpt>
      <trkpt lat="45.48665" lon="6.6114">
        <ele>2175.88</ele>
        <time>2016-01-24T10:24:46Z</time>
      </trkpt>
      <trkpt lat="45.48663" lon="6.61155">
        <ele>2177.54</ele>
        <time>2016-01-24T10:25:00Z</time>
      </trkpt>
      <trkpt lat="45.4866" lon="6.6117">
        <ele>2178.53</ele>
        <time>2016-01-24T10:25:13Z</time>
      </trkpt>
      <trkpt lat="45.48658" lon="6.61185">
        <ele>2179.22</ele>
        <time>2016-01-24T10:25:27Z</time>
      </trkpt>
      <trkpt lat="45.48655" lon="6.612">
        <ele>2180.51</ele>
        <time>2016-01-24T10:25:42Z</time>
      </trkpt>
      <trkpt lat="45.48652" lon="6.61209">
        <ele>2182.49</ele>
        <time>2016-01-24T10:25:54Z</time>
      </trkpt>
      <trkpt lat="45.48647" lon="6.61219">
        <ele>2184.4</ele>
        <time>2016-01-24T10:26:07Z</time>
      </trkpt>
      <trkpt lat="45.48646" lon="6.61225">
        <ele>2186.3</ele>
        <time>2016-01-24T10:26:22Z</time>
      </trkpt>
      <trkpt lat="45.48647" lon="6.61224">
        <ele>2186.23</ele>
        <time>2016-01-24T10:26:42Z</time>
      </trkpt>
      <trkpt lat="45.48644" lon="6.61232">
        <ele>2186.42</ele>
        <time>2016-01-24T10:26:58Z</time>
      </trkpt>
      <trkpt lat="45.48636" lon="6.61248">
        <ele>2188.08</ele>
        <time>2016-01-24T10:27:14Z</time>
      </trkpt>
      <trkpt lat="45.48628" lon="6.61266">
        <ele>2188.61</ele>
        <time>2016-01-24T10:27:29Z</time>
      </trkpt>
      <trkpt lat="45.48623" lon="6.61285">
        <ele>2189.06</ele>
        <time>2016-01-24T10:27:43Z</time>
      </trkpt>
      <trkpt lat="45.48615" lon="6.61299">
        <ele>2190.9</ele>
        <time>2016-01-24T10:27:59Z</time>
      </trkpt>
      <trkpt lat="45.48609" lon="6.61309">
        <ele>2192.87</ele>
        <time>2016-01-24T10:28:13Z</time>
      </trkpt>
      <trkpt lat="45.48599" lon="6.61322">
        <ele>2195.09</ele>
        <time>2016-01-24T10:28:30Z</time>
      </trkpt>
      <trkpt lat="45.4859" lon="6.61332">
        <ele>2196.48</ele>
        <time>2016-01-24T10:28:45Z</time>
      </trkpt>
      <trkpt lat="45.4858" lon="6.61344">
        <ele>2197.77</ele>
        <time>2016-01-24T10:29:02Z</time>
      </trkpt>
      <trkpt lat="45.48575" lon="6.61356">
        <ele>2199.83</ele>
        <time>2016-01-24T10:29:18Z</time>
      </trkpt>
      <trkpt lat="45.48571" lon="6.6137">
        <ele>2202.31</ele>
        <time>2016-01-24T10:29:36Z</time>
      </trkpt>
      <trkpt lat="45.48567" lon="6.61382">
        <ele>2204.7</ele>
        <time>2016-01-24T10:29:52Z</time>
      </trkpt>
      <trkpt lat="45.48561" lon="6.6139">
        <ele>2207</ele>
        <time>2016-01-24T10:30:07Z</time>
      </trkpt>
      <trkpt lat="45.48554" lon="6.61399">
        <ele>2208.99</ele>
        <time>2016-01-24T10:30:22Z</time>
      </trkpt>
      <trkpt lat="45.48549" lon="6.61411">
        <ele>2210.71</ele>
        <time>2016-01-24T10:30:37Z</time>
      </trkpt>
      <trkpt lat="45.48544" lon="6.61421">
        <ele>2212.37</ele>
        <time>2016-01-24T10:30:51Z</time>
      </trkpt>
      <trkpt lat="45.48539" lon="6.6143">
        <ele>2214.52</ele>
        <time>2016-01-24T10:31:06Z</time>
      </trkpt>
      <trkpt lat="45.48534" lon="6.61436">
        <ele>2216.23</ele>
        <time>2016-01-24T10:31:18Z</time>
      </trkpt>
      <trkpt lat="45.4853" lon="6.61441">
        <ele>2217.73</ele>
        <time>2016-01-24T10:31:29Z</time>
      </trkpt>
      <trkpt lat="45.48525" lon="6.61447">
        <ele>2219.86</ele>
        <time>2016-01-24T10:31:42Z</time>
      </trkpt>
      <trkpt lat="45.48518" lon="6.61454">
        <ele>2222.79</ele>
        <time>2016-01-24T10:31:59Z</time>
      </trkpt>
      <trkpt lat="45.48512" lon="6.6146">
        <ele>2225.37</ele>
        <time>2016-01-24T10:32:16Z</time>
      </trkpt>
      <trkpt lat="45.48508" lon="6.61466">
        <ele>2226.98</ele>
        <time>2016-01-24T10:32:30Z</time>
      </trkpt>
      <trkpt lat="45.48502" lon="6.61475">
        <ele>2228.56</ele>
        <time>2016-01-24T10:32:43Z</time>
      </trkpt>
      <trkpt lat="45.48498" lon="6.61483">
        <ele>2230.02</ele>
        <time>2016-01-24T10:32:55Z</time>
      </trkpt>
      <trkpt lat="45.48493" lon="6.61492">
        <ele>2232.03</ele>
        <time>2016-01-24T10:33:08Z</time>
      </trkpt>
      <trkpt lat="45.48489" lon="6.615">
        <ele>2233.92</ele>
        <time>2016-01-24T10:33:21Z</time>
      </trkpt>
      <trkpt lat="45.48485" lon="6.61509">
        <ele>2236.34</ele>
        <time>2016-01-24T10:33:37Z</time>
      </trkpt>
      <trkpt lat="45.48481" lon="6.61518">
        <ele>2238.57</ele>
        <time>2016-01-24T10:33:52Z</time>
      </trkpt>
      <trkpt lat="45.48482" lon="6.61525">
        <ele>2240.36</ele>
        <time>2016-01-24T10:34:06Z</time>
      </trkpt>
      <trkpt lat="45.48488" lon="6.61533">
        <ele>2242.41</ele>
        <time>2016-01-24T10:34:22Z</time>
      </trkpt>
      <trkpt lat="45.48495" lon="6.61544">
        <ele>2244.67</ele>
        <time>2016-01-24T10:34:38Z</time>
      </trkpt>
      <trkpt lat="45.485" lon="6.61551">
        <ele>2247.11</ele>
        <time>2016-01-24T10:34:53Z</time>
      </trkpt>
      <trkpt lat="45.48506" lon="6.6156">
        <ele>2249.48</ele>
        <time>2016-01-24T10:35:08Z</time>
      </trkpt>
      <trkpt lat="45.48512" lon="6.61566">
        <ele>2251.4</ele>
        <time>2016-01-24T10:35:22Z</time>
      </trkpt>
      <trkpt lat="45.48519" lon="6.61572">
        <ele>2253.53</ele>
        <time>2016-01-24T10:35:37Z</time>
      </trkpt>
      <trkpt lat="45.48526" lon="6.61576">
        <ele>2255.51</ele>
        <time>2016-01-24T10:35:52Z</time>
      </trkpt>
      <trkpt lat="45.48527" lon="6.61587">
        <ele>2257.76</ele>
        <time>2016-01-24T10:36:08Z</time>
      </trkpt>
      <trkpt lat="45.48524" lon="6.61597">
        <ele>2259.55</ele>
        <time>2016-01-24T10:36:22Z</time>
      </trkpt>
      <trkpt lat="45.4852" lon="6.61609">
        <ele>2260.89</ele>
        <time>2016-01-24T10:36:36Z</time>
      </trkpt>
      <trkpt lat="45.48518" lon="6.61621">
        <ele>2262.75</ele>
        <time>2016-01-24T10:36:52Z</time>
      </trkpt>
      <trkpt lat="45.48512" lon="6.61635">
        <ele>2264.62</ele>
        <time>2016-01-24T10:37:08Z</time>
      </trkpt>
      <trkpt lat="45.48507" lon="6.61648">
        <ele>2265.86</ele>
        <time>2016-01-24T10:37:22Z</time>
      </trkpt>
      <trkpt lat="45.485" lon="6.6166">
        <ele>2266.39</ele>
        <time>2016-01-24T10:37:35Z</time>
      </trkpt>
      <trkpt lat="45.48494" lon="6.61672">
        <ele>2267.46</ele>
        <time>2016-01-24T10:37:50Z</time>
      </trkpt>
      <trkpt lat="45.48494" lon="6.61685">
        <ele>2269.39</ele>
        <time>2016-01-24T10:38:04Z</time>
      </trkpt>
      <trkpt lat="45.48493" lon="6.61696">
        <ele>2270.21</ele>
        <time>2016-01-24T10:38:13Z</time>
      </trkpt>
      <trkpt lat="45.48493" lon="6.61709">
        <ele>2270.62</ele>
        <time>2016-01-24T10:38:22Z</time>
      </trkpt>
      <trkpt lat="45.48491" lon="6.61724">
        <ele>2271.59</ele>
        <time>2016-01-24T10:38:35Z</time>
      </trkpt>
      <trkpt lat="45.48489" lon="6.61739">
        <ele>2272.07</ele>
        <time>2016-01-24T10:38:47Z</time>
      </trkpt>
      <trkpt lat="45.48487" lon="6.61755">
        <ele>2272.76</ele>
        <time>2016-01-24T10:39:00Z</time>
      </trkpt>
      <trkpt lat="45.48484" lon="6.61769">
        <ele>2273.53</ele>
        <time>2016-01-24T10:39:13Z</time>
      </trkpt>
      <trkpt lat="45.48478" lon="6.61785">
        <ele>2274.48</ele>
        <time>2016-01-24T10:39:27Z</time>
      </trkpt>
      <trkpt lat="45.48473" lon="6.618">
        <ele>2276.01</ele>
        <time>2016-01-24T10:39:42Z</time>
      </trkpt>
      <trkpt lat="45.48469" lon="6.61815">
        <ele>2277.29</ele>
        <time>2016-01-24T10:39:56Z</time>
      </trkpt>
      <trkpt lat="45.48469" lon="6.61831">
        <ele>2278.28</ele>
        <time>2016-01-24T10:40:09Z</time>
      </trkpt>
      <trkpt lat="45.48466" lon="6.61852">
        <ele>2278.99</ele>
        <time>2016-01-24T10:40:25Z</time>
      </trkpt>
      <trkpt lat="45.48465" lon="6.61869">
        <ele>2279.67</ele>
        <time>2016-01-24T10:40:39Z</time>
      </trkpt>
      <trkpt lat="45.48464" lon="6.61873">
        <ele>2279.79</ele>
        <time>2016-01-24T10:40:42Z</time>
      </trkpt>
      <trkpt lat="45.4846" lon="6.61893">
        <ele>2279.88</ele>
        <time>2016-01-24T10:40:57Z</time>
      </trkpt>
      <trkpt lat="45.48457" lon="6.61914">
        <ele>2280.16</ele>
        <time>2016-01-24T10:41:10Z</time>
      </trkpt>
      <trkpt lat="45.48457" lon="6.6193">
        <ele>2280.6</ele>
        <time>2016-01-24T10:41:27Z</time>
      </trkpt>
      <trkpt lat="45.48456" lon="6.61942">
        <ele>2282.98</ele>
        <time>2016-01-24T10:41:44Z</time>
      </trkpt>
      <trkpt lat="45.48454" lon="6.61951">
        <ele>2284.97</ele>
        <time>2016-01-24T10:41:58Z</time>
      </trkpt>
      <trkpt lat="45.48454" lon="6.61966">
        <ele>2287.72</ele>
        <time>2016-01-24T10:42:20Z</time>
      </trkpt>
      <trkpt lat="45.48457" lon="6.61977">
        <ele>2289.52</ele>
        <time>2016-01-24T10:42:35Z</time>
      </trkpt>
      <trkpt lat="45.4846" lon="6.61987">
        <ele>2290.88</ele>
        <time>2016-01-24T10:42:48Z</time>
      </trkpt>
      <trkpt lat="45.48465" lon="6.61989">
        <ele>2292.66</ele>
        <time>2016-01-24T10:43:02Z</time>
      </trkpt>
      <trkpt lat="45.4847" lon="6.6199">
        <ele>2295.24</ele>
        <time>2016-01-24T10:43:19Z</time>
      </trkpt>
      <trkpt lat="45.48474" lon="6.61999">
        <ele>2297.3</ele>
        <time>2016-01-24T10:43:35Z</time>
      </trkpt>
      <trkpt lat="45.48481" lon="6.6201">
        <ele>2300.08</ele>
        <time>2016-01-24T10:43:55Z</time>
      </trkpt>
      <trkpt lat="45.48486" lon="6.6202">
        <ele>2302.53</ele>
        <time>2016-01-24T10:44:12Z</time>
      </trkpt>
      <trkpt lat="45.48492" lon="6.62028">
        <ele>2305.03</ele>
        <time>2016-01-24T10:44:29Z</time>
      </trkpt>
      <trkpt lat="45.48496" lon="6.62033">
        <ele>2307.35</ele>
        <time>2016-01-24T10:44:45Z</time>
      </trkpt>
      <trkpt lat="45.48497" lon="6.62035">
        <ele>2308.38</ele>
        <time>2016-01-24T10:45:04Z</time>
      </trkpt>
      <trkpt lat="45.48498" lon="6.62035">
        <ele>2307.47</ele>
        <time>2016-01-24T10:45:29Z</time>
      </trkpt>
      <trkpt lat="45.48497" lon="6.62036">
        <ele>2307.6</ele>
        <time>2016-01-24T10:46:04Z</time>
      </trkpt>
      <trkpt lat="45.48496" lon="6.62036">
        <ele>2307.27</ele>
        <time>2016-01-24T10:46:40Z</time>
      </trkpt>
      <trkpt lat="45.48495" lon="6.62036">
        <ele>2307.85</ele>
        <time>2016-01-24T10:46:49Z</time>
      </trkpt>
      <trkpt lat="45.48495" lon="6.62037">
        <ele>2308.27</ele>
        <time>2016-01-24T10:47:01Z</time>
      </trkpt>
      <trkpt lat="45.48495" lon="6.62037">
        <ele>2308.55</ele>
        <time>2016-01-24T10:47:18Z</time>
      </trkpt>
      <trkpt lat="45.48496" lon="6.62036">
        <ele>2308.95</ele>
        <time>2016-01-24T10:47:36Z</time>
      </trkpt>
      <trkpt lat="45.48499" lon="6.62034">
        <ele>2309.32</ele>
        <time>2016-01-24T10:47:57Z</time>
      </trkpt>
      <trkpt lat="45.48507" lon="6.62031">
        <ele>2311.94</ele>
        <time>2016-01-24T10:48:14Z</time>
      </trkpt>
      <trkpt lat="45.48512" lon="6.62034">
        <ele>2313.66</ele>
        <time>2016-01-24T10:48:26Z</time>
      </trkpt>
      <trkpt lat="45.48515" lon="6.62038">
        <ele>2315.98</ele>
        <time>2016-01-24T10:48:40Z</time>
      </trkpt>
      <trkpt lat="45.48521" lon="6.62038">
        <ele>2316.85</ele>
        <time>2016-01-24T10:48:53Z</time>
      </trkpt>
      <trkpt lat="45.48524" lon="6.6203">
        <ele>2318.87</ele>
        <time>2016-01-24T10:49:08Z</time>
      </trkpt>
      <trkpt lat="45.48527" lon="6.62019">
        <ele>2320.9</ele>
        <time>2016-01-24T10:49:23Z</time>
      </trkpt>
      <trkpt lat="45.48532" lon="6.62012">
        <ele>2323.28</ele>
        <time>2016-01-24T10:49:43Z</time>
      </trkpt>
      <trkpt lat="45.48537" lon="6.62017">
        <ele>2324.91</ele>
        <time>2016-01-24T10:49:56Z</time>
      </trkpt>
      <trkpt lat="45.48543" lon="6.6202">
        <ele>2326.74</ele>
        <time>2016-01-24T10:50:09Z</time>
      </trkpt>
      <trkpt lat="45.48548" lon="6.6202">
        <ele>2328.85</ele>
        <time>2016-01-24T10:50:25Z</time>
      </trkpt>
      <trkpt lat="45.48548" lon="6.62013">
        <ele>2330.76</ele>
        <time>2016-01-24T10:50:39Z</time>
      </trkpt>
      <trkpt lat="45.48552" lon="6.62004">
        <ele>2333.1</ele>
        <time>2016-01-24T10:50:54Z</time>
      </trkpt>
      <trkpt lat="45.48552" lon="6.62004">
        <ele>2334.45</ele>
        <time>2016-01-24T10:51:09Z</time>
      </trkpt>
      <trkpt lat="45.48558" lon="6.61994">
        <ele>2336.55</ele>
        <time>2016-01-24T10:51:30Z</time>
      </trkpt>
      <trkpt lat="45.4856" lon="6.62">
        <ele>2338.02</ele>
        <time>2016-01-24T10:51:46Z</time>
      </trkpt>
      <trkpt lat="45.48566" lon="6.62006">
        <ele>2340.55</ele>
        <time>2016-01-24T10:52:02Z</time>
      </trkpt>
      <trkpt lat="45.48567" lon="6.62002">
        <ele>2342.14</ele>
        <time>2016-01-24T10:52:16Z</time>
      </trkpt>
      <trkpt lat="45.48571" lon="6.61994">
        <ele>2344.28</ele>
        <time>2016-01-24T10:52:32Z</time>
      </trkpt>
      <trkpt lat="45.48573" lon="6.61988">
        <ele>2345.64</ele>
        <time>2016-01-24T10:52:43Z</time>
      </trkpt>
      <trkpt lat="45.48578" lon="6.61983">
        <ele>2347.34</ele>
        <time>2016-01-24T10:52:57Z</time>
      </trkpt>
      <trkpt lat="45.48579" lon="6.61988">
        <ele>2348.76</ele>
        <time>2016-01-24T10:53:11Z</time>
      </trkpt>
      <trkpt lat="45.48583" lon="6.61989">
        <ele>2350.42</ele>
        <time>2016-01-24T10:53:25Z</time>
      </trkpt>
      <trkpt lat="45.48586" lon="6.61989">
        <ele>2351.84</ele>
        <time>2016-01-24T10:53:38Z</time>
      </trkpt>
      <trkpt lat="45.48587" lon="6.61986">
        <ele>2352.72</ele>
        <time>2016-01-24T10:53:58Z</time>
      </trkpt>
      <trkpt lat="45.48595" lon="6.61989">
        <ele>2355.22</ele>
        <time>2016-01-24T10:54:14Z</time>
      </trkpt>
      <trkpt lat="45.48599" lon="6.61992">
        <ele>2357.06</ele>
        <time>2016-01-24T10:54:26Z</time>
      </trkpt>
      <trkpt lat="45.48599" lon="6.61987">
        <ele>2358.41</ele>
        <time>2016-01-24T10:54:39Z</time>
      </trkpt>
      <trkpt lat="45.48603" lon="6.61981">
        <ele>2360.6</ele>
        <time>2016-01-24T10:54:55Z</time>
      </trkpt>
      <trkpt lat="45.48605" lon="6.61976">
        <ele>2362.71</ele>
        <time>2016-01-24T10:55:12Z</time>
      </trkpt>
      <trkpt lat="45.48609" lon="6.6198">
        <ele>2363.8</ele>
        <time>2016-01-24T10:55:26Z</time>
      </trkpt>
      <trkpt lat="45.48613" lon="6.61986">
        <ele>2365.91</ele>
        <time>2016-01-24T10:55:40Z</time>
      </trkpt>
      <trkpt lat="45.48616" lon="6.61992">
        <ele>2368.26</ele>
        <time>2016-01-24T10:55:55Z</time>
      </trkpt>
      <trkpt lat="45.48616" lon="6.61993">
        <ele>2369.58</ele>
        <time>2016-01-24T10:56:10Z</time>
      </trkpt>
      <trkpt lat="45.48617" lon="6.61989">
        <ele>2370.12</ele>
        <time>2016-01-24T10:56:25Z</time>
      </trkpt>
      <trkpt lat="45.48621" lon="6.61983">
        <ele>2372.32</ele>
        <time>2016-01-24T10:56:39Z</time>
      </trkpt>
      <trkpt lat="45.48624" lon="6.61978">
        <ele>2374.64</ele>
        <time>2016-01-24T10:56:54Z</time>
      </trkpt>
      <trkpt lat="45.48626" lon="6.61977">
        <ele>2376.42</ele>
        <time>2016-01-24T10:57:08Z</time>
      </trkpt>
      <trkpt lat="45.48628" lon="6.61976">
        <ele>2376.92</ele>
        <time>2016-01-24T10:57:25Z</time>
      </trkpt>
      <trkpt lat="45.48632" lon="6.61976">
        <ele>2377.28</ele>
        <time>2016-01-24T10:57:43Z</time>
      </trkpt>
      <trkpt lat="45.48637" lon="6.61973">
        <ele>2379.48</ele>
        <time>2016-01-24T10:57:58Z</time>
      </trkpt>
      <trkpt lat="45.48643" lon="6.61971">
        <ele>2382</ele>
        <time>2016-01-24T10:58:13Z</time>
      </trkpt>
      <trkpt lat="45.48649" lon="6.61968">
        <ele>2383.5</ele>
        <time>2016-01-24T10:58:27Z</time>
      </trkpt>
      <trkpt lat="45.48654" lon="6.61962">
        <ele>2386.28</ele>
        <time>2016-01-24T10:58:43Z</time>
      </trkpt>
      <trkpt lat="45.48657" lon="6.6196">
        <ele>2387.72</ele>
        <time>2016-01-24T10:58:55Z</time>
      </trkpt>
      <trkpt lat="45.48661" lon="6.61957">
        <ele>2389.92</ele>
        <time>2016-01-24T10:59:09Z</time>
      </trkpt>
      <trkpt lat="45.48664" lon="6.61954">
        <ele>2391.61</ele>
        <time>2016-01-24T10:59:26Z</time>
      </trkpt>
      <trkpt lat="45.4867" lon="6.61951">
        <ele>2392.34</ele>
        <time>2016-01-24T10:59:39Z</time>
      </trkpt>
      <trkpt lat="45.48677" lon="6.61946">
        <ele>2394.04</ele>
        <time>2016-01-24T10:59:55Z</time>
      </trkpt>
      <trkpt lat="45.48683" lon="6.61946">
        <ele>2395.45</ele>
        <time>2016-01-24T11:00:08Z</time>
      </trkpt>
      <trkpt lat="45.48684" lon="6.61955">
        <ele>2397.09</ele>
        <time>2016-01-24T11:00:21Z</time>
      </trkpt>
      <trkpt lat="45.48684" lon="6.61963">
        <ele>2399.09</ele>
        <time>2016-01-24T11:00:36Z</time>
      </trkpt>
      <trkpt lat="45.48686" lon="6.61962">
        <ele>2400.22</ele>
        <time>2016-01-24T11:00:47Z</time>
      </trkpt>
      <trkpt lat="45.48692" lon="6.61958">
        <ele>2402.17</ele>
        <time>2016-01-24T11:01:02Z</time>
      </trkpt>
      <trkpt lat="45.48697" lon="6.61952">
        <ele>2403.35</ele>
        <time>2016-01-24T11:01:14Z</time>
      </trkpt>
      <trkpt lat="45.487" lon="6.61949">
        <ele>2405.04</ele>
        <time>2016-01-24T11:01:28Z</time>
      </trkpt>
      <trkpt lat="45.48703" lon="6.61949">
        <ele>2406.6</ele>
        <time>2016-01-24T11:01:40Z</time>
      </trkpt>
      <trkpt lat="45.48704" lon="6.61956">
        <ele>2408.23</ele>
        <time>2016-01-24T11:01:55Z</time>
      </trkpt>
      <trkpt lat="45.48705" lon="6.61964">
        <ele>2410.15</ele>
        <time>2016-01-24T11:02:09Z</time>
      </trkpt>
      <trkpt lat="45.48708" lon="6.61972">
        <ele>2411.54</ele>
        <time>2016-01-24T11:02:23Z</time>
      </trkpt>
      <trkpt lat="45.48718" lon="6.61977">
        <ele>2413.05</ele>
        <time>2016-01-24T11:02:38Z</time>
      </trkpt>
      <trkpt lat="45.48724" lon="6.61982">
        <ele>2414.51</ele>
        <time>2016-01-24T11:02:53Z</time>
      </trkpt>
      <trkpt lat="45.48729" lon="6.61981">
        <ele>2416.75</ele>
        <time>2016-01-24T11:03:08Z</time>
      </trkpt>
      <trkpt lat="45.48734" lon="6.61983">
        <ele>2418.57</ele>
        <time>2016-01-24T11:03:20Z</time>
      </trkpt>
      <trkpt lat="45.4874" lon="6.61988">
        <ele>2419.97</ele>
        <time>2016-01-24T11:03:30Z</time>
      </trkpt>
      <trkpt lat="45.48746" lon="6.61996">
        <ele>2420.89</ele>
        <time>2016-01-24T11:03:43Z</time>
      </trkpt>
      <trkpt lat="45.48751" lon="6.62">
        <ele>2421.64</ele>
        <time>2016-01-24T11:03:53Z</time>
      </trkpt>
      <trkpt lat="45.48755" lon="6.62004">
        <ele>2422.46</ele>
        <time>2016-01-24T11:04:07Z</time>
      </trkpt>
      <trkpt lat="45.48754" lon="6.62001">
        <ele>2422.77</ele>
        <time>2016-01-24T11:04:30Z</time>
      </trkpt>
      <trkpt lat="45.48755" lon="6.62001">
        <ele>2422.74</ele>
        <time>2016-01-24T11:04:50Z</time>
      </trkpt>
      <trkpt lat="45.48757" lon="6.62001">
        <ele>2422.89</ele>
        <time>2016-01-24T11:05:13Z</time>
      </trkpt>
      <trkpt lat="45.48761" lon="6.62002">
        <ele>2423.05</ele>
        <time>2016-01-24T11:05:22Z</time>
      </trkpt>
      <trkpt lat="45.48768" lon="6.62001">
        <ele>2423.81</ele>
        <time>2016-01-24T11:05:36Z</time>
      </trkpt>
      <trkpt lat="45.48773" lon="6.61996">
        <ele>2425.9</ele>
        <time>2016-01-24T11:05:51Z</time>
      </trkpt>
      <trkpt lat="45.4878" lon="6.6199">
        <ele>2428.5</ele>
        <time>2016-01-24T11:06:07Z</time>
      </trkpt>
      <trkpt lat="45.48785" lon="6.61994">
        <ele>2430.97</ele>
        <time>2016-01-24T11:06:21Z</time>
      </trkpt>
      <trkpt lat="45.48795" lon="6.61999">
        <ele>2432.64</ele>
        <time>2016-01-24T11:06:36Z</time>
      </trkpt>
      <trkpt lat="45.48804" lon="6.61994">
        <ele>2433.08</ele>
        <time>2016-01-24T11:06:50Z</time>
      </trkpt>
      <trkpt lat="45.48809" lon="6.61992">
        <ele>2434.57</ele>
        <time>2016-01-24T11:07:04Z</time>
      </trkpt>
      <trkpt lat="45.48814" lon="6.61995">
        <ele>2436.36</ele>
        <time>2016-01-24T11:07:19Z</time>
      </trkpt>
      <trkpt lat="45.48813" lon="6.62">
        <ele>2438.1</ele>
        <time>2016-01-24T11:07:30Z</time>
      </trkpt>
      <trkpt lat="45.48818" lon="6.62005">
        <ele>2439.69</ele>
        <time>2016-01-24T11:07:44Z</time>
      </trkpt>
      <trkpt lat="45.48821" lon="6.6201">
        <ele>2442.03</ele>
        <time>2016-01-24T11:07:59Z</time>
      </trkpt>
      <trkpt lat="45.48825" lon="6.62014">
        <ele>2443.85</ele>
        <time>2016-01-24T11:08:12Z</time>
      </trkpt>
      <trkpt lat="45.4883" lon="6.62019">
        <ele>2445.27</ele>
        <time>2016-01-24T11:08:24Z</time>
      </trkpt>
      <trkpt lat="45.48832" lon="6.62025">
        <ele>2446.12</ele>
        <time>2016-01-24T11:08:39Z</time>
      </trkpt>
      <trkpt lat="45.48833" lon="6.62026">
        <ele>2446.47</ele>
        <time>2016-01-24T11:08:53Z</time>
      </trkpt>
      <trkpt lat="45.48835" lon="6.62027">
        <ele>2446.72</ele>
        <time>2016-01-24T11:09:07Z</time>
      </trkpt>
      <trkpt lat="45.48834" lon="6.62027">
        <ele>2447.48</ele>
        <time>2016-01-24T11:09:25Z</time>
      </trkpt>
      <trkpt lat="45.48836" lon="6.6203">
        <ele>2446.31</ele>
        <time>2016-01-24T11:09:42Z</time>
      </trkpt>
      <trkpt lat="45.48846" lon="6.62036">
        <ele>2446.53</ele>
        <time>2016-01-24T11:09:57Z</time>
      </trkpt>
      <trkpt lat="45.48849" lon="6.62037">
        <ele>2446.7</ele>
        <time>2016-01-24T11:10:01Z</time>
      </trkpt>
      <trkpt lat="45.48863" lon="6.62042">
        <ele>2446.25</ele>
        <time>2016-01-24T11:10:11Z</time>
      </trkpt>
      <trkpt lat="45.48869" lon="6.62046">
        <ele>2444.91</ele>
        <time>2016-01-24T11:10:22Z</time>
      </trkpt>
      <trkpt lat="45.48875" lon="6.6205">
        <ele>2445.7</ele>
        <time>2016-01-24T11:10:39Z</time>
      </trkpt>
      <trkpt lat="45.48876" lon="6.62051">
        <ele>2445.64</ele>
        <time>2016-01-24T11:10:41Z</time>
      </trkpt>
      <trkpt lat="45.4888" lon="6.62054">
        <ele>2445.69</ele>
        <time>2016-01-24T11:10:46Z</time>
      </trkpt>
      <trkpt lat="45.48892" lon="6.62061">
        <ele>2445.48</ele>
        <time>2016-01-24T11:11:00Z</time>
      </trkpt>
      <trkpt lat="45.48899" lon="6.62064">
        <ele>2446.14</ele>
        <time>2016-01-24T11:11:11Z</time>
      </trkpt>
      <trkpt lat="45.489" lon="6.62064">
        <ele>2446.25</ele>
        <time>2016-01-24T11:11:12Z</time>
      </trkpt>
      <trkpt lat="45.4891" lon="6.62069">
        <ele>2446.2</ele>
        <time>2016-01-24T11:11:24Z</time>
      </trkpt>
      <trkpt lat="45.48911" lon="6.6207">
        <ele>2446.85</ele>
        <time>2016-01-24T11:11:42Z</time>
      </trkpt>
      <trkpt lat="45.48913" lon="6.62074">
        <ele>2447.15</ele>
        <time>2016-01-24T11:12:05Z</time>
      </trkpt>
      <trkpt lat="45.48914" lon="6.62074">
        <ele>2449.15</ele>
        <time>2016-01-24T11:12:22Z</time>
      </trkpt>
      <trkpt lat="45.48914" lon="6.62073">
        <ele>2447.54</ele>
        <time>2016-01-24T11:12:40Z</time>
      </trkpt>
      <trkpt lat="45.48914" lon="6.62073">
        <ele>2448.71</ele>
        <time>2016-01-24T11:13:03Z</time>
      </trkpt>
      <trkpt lat="45.48914" lon="6.62074">
        <ele>2447.51</ele>
        <time>2016-01-24T11:13:24Z</time>
      </trkpt>
      <trkpt lat="45.48914" lon="6.62075">
        <ele>2448.1</ele>
        <time>2016-01-24T11:13:49Z</time>
      </trkpt>
      <trkpt lat="45.48916" lon="6.62078">
        <ele>2448.52</ele>
        <time>2016-01-24T11:14:09Z</time>
      </trkpt>
      <trkpt lat="45.48921" lon="6.62085">
        <ele>2448.79</ele>
        <time>2016-01-24T11:14:17Z</time>
      </trkpt>
      <trkpt lat="45.48934" lon="6.62108">
        <ele>2448.08</ele>
        <time>2016-01-24T11:14:28Z</time>
      </trkpt>
      <trkpt lat="45.48939" lon="6.62121">
        <ele>2446.03</ele>
        <time>2016-01-24T11:14:34Z</time>
      </trkpt>
      <trkpt lat="45.48944" lon="6.62133">
        <ele>2444.52</ele>
        <time>2016-01-24T11:14:46Z</time>
      </trkpt>
      <trkpt lat="45.48948" lon="6.6214">
        <ele>2444.44</ele>
        <time>2016-01-24T11:14:58Z</time>
      </trkpt>
      <trkpt lat="45.48953" lon="6.62148">
        <ele>2445.54</ele>
        <time>2016-01-24T11:15:10Z</time>
      </trkpt>
      <trkpt lat="45.48959" lon="6.6216">
        <ele>2448</ele>
        <time>2016-01-24T11:15:26Z</time>
      </trkpt>
      <trkpt lat="45.48963" lon="6.62166">
        <ele>2449.31</ele>
        <time>2016-01-24T11:15:39Z</time>
      </trkpt>
      <trkpt lat="45.48968" lon="6.62176">
        <ele>2450.75</ele>
        <time>2016-01-24T11:15:51Z</time>
      </trkpt>
      <trkpt lat="45.48973" lon="6.62188">
        <ele>2452.43</ele>
        <time>2016-01-24T11:16:08Z</time>
      </trkpt>
      <trkpt lat="45.48977" lon="6.62198">
        <ele>2453.33</ele>
        <time>2016-01-24T11:16:21Z</time>
      </trkpt>
      <trkpt lat="45.48978" lon="6.62202">
        <ele>2453.71</ele>
        <time>2016-01-24T11:16:25Z</time>
      </trkpt>
      <trkpt lat="45.48979" lon="6.62208">
        <ele>2454</ele>
        <time>2016-01-24T11:16:30Z</time>
      </trkpt>
      <trkpt lat="45.48981" lon="6.62226">
        <ele>2453.34</ele>
        <time>2016-01-24T11:16:43Z</time>
      </trkpt>
      <trkpt lat="45.48983" lon="6.62238">
        <ele>2453.72</ele>
        <time>2016-01-24T11:16:55Z</time>
      </trkpt>
      <trkpt lat="45.48986" lon="6.62248">
        <ele>2455.3</ele>
        <time>2016-01-24T11:17:08Z</time>
      </trkpt>
      <trkpt lat="45.48986" lon="6.6225">
        <ele>2455.4</ele>
        <time>2016-01-24T11:17:09Z</time>
      </trkpt>
      <trkpt lat="45.48989" lon="6.62266">
        <ele>2455.72</ele>
        <time>2016-01-24T11:17:22Z</time>
      </trkpt>
      <trkpt lat="45.48991" lon="6.62272">
        <ele>2456.24</ele>
        <time>2016-01-24T11:17:34Z</time>
      </trkpt>
      <trkpt lat="45.48992" lon="6.62281">
        <ele>2457.45</ele>
        <time>2016-01-24T11:17:44Z</time>
      </trkpt>
      <trkpt lat="45.48993" lon="6.62284">
        <ele>2457.7</ele>
        <time>2016-01-24T11:17:47Z</time>
      </trkpt>
      <trkpt lat="45.48994" lon="6.62291">
        <ele>2458.09</ele>
        <time>2016-01-24T11:17:54Z</time>
      </trkpt>
      <trkpt lat="45.48996" lon="6.62303">
        <ele>2458.34</ele>
        <time>2016-01-24T11:18:04Z</time>
      </trkpt>
      <trkpt lat="45.48999" lon="6.62317">
        <ele>2458.89</ele>
        <time>2016-01-24T11:18:17Z</time>
      </trkpt>
      <trkpt lat="45.49002" lon="6.62327">
        <ele>2459.94</ele>
        <time>2016-01-24T11:18:29Z</time>
      </trkpt>
      <trkpt lat="45.49005" lon="6.6234">
        <ele>2461.07</ele>
        <time>2016-01-24T11:18:44Z</time>
      </trkpt>
      <trkpt lat="45.49007" lon="6.62357">
        <ele>2463.85</ele>
        <time>2016-01-24T11:19:07Z</time>
      </trkpt>
      <trkpt lat="45.49011" lon="6.62369">
        <ele>2465.52</ele>
        <time>2016-01-24T11:19:22Z</time>
      </trkpt>
      <trkpt lat="45.49012" lon="6.62374">
        <ele>2466.8</ele>
        <time>2016-01-24T11:19:33Z</time>
      </trkpt>
      <trkpt lat="45.49015" lon="6.62386">
        <ele>2468.49</ele>
        <time>2016-01-24T11:19:47Z</time>
      </trkpt>
      <trkpt lat="45.49019" lon="6.62394">
        <ele>2469.89</ele>
        <time>2016-01-24T11:20:01Z</time>
      </trkpt>
      <trkpt lat="45.49021" lon="6.62407">
        <ele>2471.62</ele>
        <time>2016-01-24T11:20:17Z</time>
      </trkpt>
      <trkpt lat="45.49023" lon="6.62416">
        <ele>2473.2</ele>
        <time>2016-01-24T11:20:31Z</time>
      </trkpt>
      <trkpt lat="45.49024" lon="6.62426">
        <ele>2473.85</ele>
        <time>2016-01-24T11:20:40Z</time>
      </trkpt>
      <trkpt lat="45.49026" lon="6.62432">
        <ele>2474.7</ele>
        <time>2016-01-24T11:20:50Z</time>
      </trkpt>
      <trkpt lat="45.49032" lon="6.62437">
        <ele>2475.6</ele>
        <time>2016-01-24T11:21:00Z</time>
      </trkpt>
      <trkpt lat="45.49037" lon="6.62443">
        <ele>2477.47</ele>
        <time>2016-01-24T11:21:14Z</time>
      </trkpt>
      <trkpt lat="45.4904" lon="6.62449">
        <ele>2478.67</ele>
        <time>2016-01-24T11:21:26Z</time>
      </trkpt>
      <trkpt lat="45.49042" lon="6.62462">
        <ele>2479.77</ele>
        <time>2016-01-24T11:21:40Z</time>
      </trkpt>
      <trkpt lat="45.49044" lon="6.6247">
        <ele>2481.25</ele>
        <time>2016-01-24T11:21:53Z</time>
      </trkpt>
      <trkpt lat="45.49044" lon="6.62472">
        <ele>2482.19</ele>
        <time>2016-01-24T11:22:09Z</time>
      </trkpt>
      <trkpt lat="45.49045" lon="6.62479">
        <ele>2482.71</ele>
        <time>2016-01-24T11:22:22Z</time>
      </trkpt>
      <trkpt lat="45.49045" lon="6.62484">
        <ele>2484.27</ele>
        <time>2016-01-24T11:22:36Z</time>
      </trkpt>
      <trkpt lat="45.49048" lon="6.62492">
        <ele>2485.08</ele>
        <time>2016-01-24T11:22:52Z</time>
      </trkpt>
      <trkpt lat="45.4905" lon="6.62496">
        <ele>2485.74</ele>
        <time>2016-01-24T11:23:04Z</time>
      </trkpt>
      <trkpt lat="45.49054" lon="6.62506">
        <ele>2486.17</ele>
        <time>2016-01-24T11:23:13Z</time>
      </trkpt>
      <trkpt lat="45.4906" lon="6.62522">
        <ele>2486.76</ele>
        <time>2016-01-24T11:23:29Z</time>
      </trkpt>
      <trkpt lat="45.49066" lon="6.62533">
        <ele>2486.67</ele>
        <time>2016-01-24T11:23:42Z</time>
      </trkpt>
      <trkpt lat="45.49067" lon="6.62541">
        <ele>2486.7</ele>
        <time>2016-01-24T11:23:53Z</time>
      </trkpt>
      <trkpt lat="45.49067" lon="6.62541">
        <ele>2486.69</ele>
        <time>2016-01-24T11:24:05Z</time>
      </trkpt>
      <trkpt lat="45.49067" lon="6.62542">
        <ele>2487.35</ele>
        <time>2016-01-24T11:24:22Z</time>
      </trkpt>
      <trkpt lat="45.49066" lon="6.62544">
        <ele>2487.31</ele>
        <time>2016-01-24T11:24:39Z</time>
      </trkpt>
      <trkpt lat="45.49065" lon="6.62544">
        <ele>2486.43</ele>
        <time>2016-01-24T11:24:57Z</time>
      </trkpt>
      <trkpt lat="45.49067" lon="6.62544">
        <ele>2485.76</ele>
        <time>2016-01-24T11:25:14Z</time>
      </trkpt>
      <trkpt lat="45.49065" lon="6.62543">
        <ele>2486.33</ele>
        <time>2016-01-24T11:25:34Z</time>
      </trkpt>
      <trkpt lat="45.49065" lon="6.62543">
        <ele>2486.62</ele>
        <time>2016-01-24T11:26:00Z</time>
      </trkpt>
      <trkpt lat="45.49066" lon="6.62539">
        <ele>2486.42</ele>
        <time>2016-01-24T11:26:13Z</time>
      </trkpt>
      <trkpt lat="45.49066" lon="6.62537">
        <ele>2486.49</ele>
        <time>2016-01-24T11:26:27Z</time>
      </trkpt>
      <trkpt lat="45.49065" lon="6.62536">
        <ele>2486.27</ele>
        <time>2016-01-24T11:26:49Z</time>
      </trkpt>
      <trkpt lat="45.49065" lon="6.62538">
        <ele>2486.14</ele>
        <time>2016-01-24T11:27:14Z</time>
      </trkpt>
      <trkpt lat="45.49065" lon="6.62538">
        <ele>2486.4</ele>
        <time>2016-01-24T11:27:37Z</time>
      </trkpt>
      <trkpt lat="45.49064" lon="6.62539">
        <ele>2486.09</ele>
        <time>2016-01-24T11:28:00Z</time>
      </trkpt>
      <trkpt lat="45.49064" lon="6.62539">
        <ele>2486.55</ele>
        <time>2016-01-24T11:28:21Z</time>
      </trkpt>
      <trkpt lat="45.49063" lon="6.62539">
        <ele>2486.06</ele>
        <time>2016-01-24T11:28:47Z</time>
      </trkpt>
      <trkpt lat="45.49062" lon="6.62539">
        <ele>2486.34</ele>
        <time>2016-01-24T11:29:06Z</time>
      </trkpt>
      <trkpt lat="45.49063" lon="6.62539">
        <ele>2486.77</ele>
        <time>2016-01-24T11:29:23Z</time>
      </trkpt>
      <trkpt lat="45.49062" lon="6.62538">
        <ele>2486.62</ele>
        <time>2016-01-24T11:29:42Z</time>
      </trkpt>
      <trkpt lat="45.49062" lon="6.62537">
        <ele>2486.57</ele>
        <time>2016-01-24T11:30:02Z</time>
      </trkpt>
      <trkpt lat="45.49062" lon="6.62537">
        <ele>2486.64</ele>
        <time>2016-01-24T11:30:24Z</time>
      </trkpt>
      <trkpt lat="45.49062" lon="6.62536">
        <ele>2486.79</ele>
        <time>2016-01-24T11:30:50Z</time>
      </trkpt>
      <trkpt lat="45.49061" lon="6.62535">
        <ele>2486.69</ele>
        <time>2016-01-24T11:30:54Z</time>
      </trkpt>
      <trkpt lat="45.49059" lon="6.6253">
        <ele>2486.55</ele>
        <time>2016-01-24T11:30:58Z</time>
      </trkpt>
      <trkpt lat="45.49052" lon="6.62513">
        <ele>2486.23</ele>
        <time>2016-01-24T11:31:11Z</time>
      </trkpt>
      <trkpt lat="45.49047" lon="6.62505">
        <ele>2486.42</ele>
        <time>2016-01-24T11:31:21Z</time>
      </trkpt>
      <trkpt lat="45.49046" lon="6.62502">
        <ele>2486.2</ele>
        <time>2016-01-24T11:31:33Z</time>
      </trkpt>
      <trkpt lat="45.49046" lon="6.62502">
        <ele>2486.15</ele>
        <time>2016-01-24T11:31:53Z</time>
      </trkpt>
      <trkpt lat="45.49046" lon="6.62499">
        <ele>2485.99</ele>
        <time>2016-01-24T11:32:11Z</time>
      </trkpt>
      <trkpt lat="45.49046" lon="6.62491">
        <ele>2486.2</ele>
        <time>2016-01-24T11:32:29Z</time>
      </trkpt>
      <trkpt lat="45.49047" lon="6.62491">
        <ele>2486.19</ele>
        <time>2016-01-24T11:32:47Z</time>
      </trkpt>
      <trkpt lat="45.49047" lon="6.62493">
        <ele>2486.52</ele>
        <time>2016-01-24T11:33:12Z</time>
      </trkpt>
      <trkpt lat="45.49046" lon="6.62494">
        <ele>2486.56</ele>
        <time>2016-01-24T11:33:32Z</time>
      </trkpt>
      <trkpt lat="45.49047" lon="6.62496">
        <ele>2486.25</ele>
        <time>2016-01-24T11:33:50Z</time>
      </trkpt>
      <trkpt lat="45.49047" lon="6.62498">
        <ele>2486.56</ele>
        <time>2016-01-24T11:34:07Z</time>
      </trkpt>
      <trkpt lat="45.49046" lon="6.62498">
        <ele>2486.82</ele>
        <time>2016-01-24T11:34:39Z</time>
      </trkpt>
      <trkpt lat="45.49049" lon="6.62501">
        <ele>2486.51</ele>
        <time>2016-01-24T11:34:50Z</time>
      </trkpt>
      <trkpt lat="45.49051" lon="6.62508">
        <ele>2486.53</ele>
        <time>2016-01-24T11:34:55Z</time>
      </trkpt>
      <trkpt lat="45.49053" lon="6.62514">
        <ele>2486.59</ele>
        <time>2016-01-24T11:34:58Z</time>
      </trkpt>
      <trkpt lat="45.49061" lon="6.62529">
        <ele>2487.19</ele>
        <time>2016-01-24T11:35:11Z</time>
      </trkpt>
      <trkpt lat="45.49062" lon="6.62533">
        <ele>2487.35</ele>
        <time>2016-01-24T11:35:24Z</time>
      </trkpt>
      <trkpt lat="45.49062" lon="6.62534">
        <ele>2487.55</ele>
        <time>2016-01-24T11:35:40Z</time>
      </trkpt>
      <trkpt lat="45.49062" lon="6.62535">
        <ele>2487.75</ele>
        <time>2016-01-24T11:35:59Z</time>
      </trkpt>
      <trkpt lat="45.49063" lon="6.62536">
        <ele>2487.78</ele>
        <time>2016-01-24T11:36:16Z</time>
      </trkpt>
      <trkpt lat="45.49063" lon="6.62535">
        <ele>2488.01</ele>
        <time>2016-01-24T11:36:37Z</time>
      </trkpt>
      <trkpt lat="45.49063" lon="6.62537">
        <ele>2487.87</ele>
        <time>2016-01-24T11:36:52Z</time>
      </trkpt>
      <trkpt lat="45.49065" lon="6.62537">
        <ele>2487.95</ele>
        <time>2016-01-24T11:37:05Z</time>
      </trkpt>
      <trkpt lat="45.49065" lon="6.62537">
        <ele>2487.95</ele>
        <time>2016-01-24T11:37:24Z</time>
      </trkpt>
      <trkpt lat="45.49064" lon="6.62536">
        <ele>2487.97</ele>
        <time>2016-01-24T11:37:44Z</time>
      </trkpt>
      <trkpt lat="45.49064" lon="6.62535">
        <ele>2487.97</ele>
        <time>2016-01-24T11:38:13Z</time>
      </trkpt>
      <trkpt lat="45.49062" lon="6.62534">
        <ele>2488.34</ele>
        <time>2016-01-24T11:38:36Z</time>
      </trkpt>
      <trkpt lat="45.49061" lon="6.62532">
        <ele>2488.34</ele>
        <time>2016-01-24T11:38:42Z</time>
      </trkpt>
      <trkpt lat="45.49059" lon="6.62527">
        <ele>2488.22</ele>
        <time>2016-01-24T11:38:45Z</time>
      </trkpt>
      <trkpt lat="45.49051" lon="6.62508">
        <ele>2487.84</ele>
        <time>2016-01-24T11:38:59Z</time>
      </trkpt>
      <trkpt lat="45.49043" lon="6.62491">
        <ele>2487.65</ele>
        <time>2016-01-24T11:39:10Z</time>
      </trkpt>
      <trkpt lat="45.49033" lon="6.62459">
        <ele>2486.16</ele>
        <time>2016-01-24T11:39:18Z</time>
      </trkpt>
      <trkpt lat="45.49024" lon="6.62432">
        <ele>2482.89</ele>
        <time>2016-01-24T11:39:23Z</time>
      </trkpt>
      <trkpt lat="45.49018" lon="6.62415">
        <ele>2479.37</ele>
        <time>2016-01-24T11:39:27Z</time>
      </trkpt>
      <trkpt lat="45.49012" lon="6.62391">
        <ele>2475.86</ele>
        <time>2016-01-24T11:39:32Z</time>
      </trkpt>
      <trkpt lat="45.49005" lon="6.62366">
        <ele>2472.83</ele>
        <time>2016-01-24T11:39:36Z</time>
      </trkpt>
      <trkpt lat="45.48999" lon="6.62336">
        <ele>2469.61</ele>
        <time>2016-01-24T11:39:40Z</time>
      </trkpt>
      <trkpt lat="45.48995" lon="6.62313">
        <ele>2465.89</ele>
        <time>2016-01-24T11:39:44Z</time>
      </trkpt>
      <trkpt lat="45.48993" lon="6.62303">
        <ele>2463.17</ele>
        <time>2016-01-24T11:39:47Z</time>
      </trkpt>
      <trkpt lat="45.48992" lon="6.62294">
        <ele>2459.94</ele>
        <time>2016-01-24T11:39:53Z</time>
      </trkpt>
      <trkpt lat="45.48987" lon="6.62274">
        <ele>2459.15</ele>
        <time>2016-01-24T11:40:04Z</time>
      </trkpt>
      <trkpt lat="45.48985" lon="6.62258">
        <ele>2457.5</ele>
        <time>2016-01-24T11:40:10Z</time>
      </trkpt>
      <trkpt lat="45.4898" lon="6.62232">
        <ele>2456.09</ele>
        <time>2016-01-24T11:40:22Z</time>
      </trkpt>
      <trkpt lat="45.48978" lon="6.62216">
        <ele>2454.41</ele>
        <time>2016-01-24T11:40:30Z</time>
      </trkpt>
      <trkpt lat="45.48976" lon="6.62203">
        <ele>2454.42</ele>
        <time>2016-01-24T11:40:39Z</time>
      </trkpt>
      <trkpt lat="45.48963" lon="6.62176">
        <ele>2454.01</ele>
        <time>2016-01-24T11:40:50Z</time>
      </trkpt>
      <trkpt lat="45.48944" lon="6.62138">
        <ele>2451.62</ele>
        <time>2016-01-24T11:40:58Z</time>
      </trkpt>
      <trkpt lat="45.48938" lon="6.62122">
        <ele>2447.47</ele>
        <time>2016-01-24T11:41:03Z</time>
      </trkpt>
      <trkpt lat="45.48932" lon="6.62108">
        <ele>2445.66</ele>
        <time>2016-01-24T11:41:14Z</time>
      </trkpt>
      <trkpt lat="45.48927" lon="6.62096">
        <ele>2446.64</ele>
        <time>2016-01-24T11:41:27Z</time>
      </trkpt>
      <trkpt lat="45.48922" lon="6.62087">
        <ele>2448.23</ele>
        <time>2016-01-24T11:41:37Z</time>
      </trkpt>
      <trkpt lat="45.48916" lon="6.62079">
        <ele>2449.26</ele>
        <time>2016-01-24T11:41:48Z</time>
      </trkpt>
      <trkpt lat="45.48916" lon="6.62079">
        <ele>2449.3</ele>
        <time>2016-01-24T11:41:49Z</time>
      </trkpt>
      <trkpt lat="45.48913" lon="6.62074">
        <ele>2449.06</ele>
        <time>2016-01-24T11:42:00Z</time>
      </trkpt>
      <trkpt lat="45.48914" lon="6.62075">
        <ele>2448.93</ele>
        <time>2016-01-24T11:42:14Z</time>
      </trkpt>
      <trkpt lat="45.48915" lon="6.62077">
        <ele>2448.93</ele>
        <time>2016-01-24T11:42:29Z</time>
      </trkpt>
      <trkpt lat="45.48914" lon="6.62075">
        <ele>2448.8</ele>
        <time>2016-01-24T11:42:46Z</time>
      </trkpt>
      <trkpt lat="45.48913" lon="6.62075">
        <ele>2447.86</ele>
        <time>2016-01-24T11:43:02Z</time>
      </trkpt>
      <trkpt lat="45.4891" lon="6.62076">
        <ele>2447.9</ele>
        <time>2016-01-24T11:43:18Z</time>
      </trkpt>
      <trkpt lat="45.48909" lon="6.62076">
        <ele>2447.84</ele>
        <time>2016-01-24T11:43:34Z</time>
      </trkpt>
      <trkpt lat="45.48909" lon="6.62075">
        <ele>2448.08</ele>
        <time>2016-01-24T11:43:52Z</time>
      </trkpt>
      <trkpt lat="45.48909" lon="6.62075">
        <ele>2448.02</ele>
        <time>2016-01-24T11:44:05Z</time>
      </trkpt>
      <trkpt lat="45.48912" lon="6.62074">
        <ele>2448.06</ele>
        <time>2016-01-24T11:44:27Z</time>
      </trkpt>
      <trkpt lat="45.48913" lon="6.62074">
        <ele>2447.86</ele>
        <time>2016-01-24T11:44:48Z</time>
      </trkpt>
      <trkpt lat="45.48913" lon="6.62075">
        <ele>2448.1</ele>
        <time>2016-01-24T11:45:09Z</time>
      </trkpt>
      <trkpt lat="45.48914" lon="6.62075">
        <ele>2448.28</ele>
        <time>2016-01-24T11:45:28Z</time>
      </trkpt>
      <trkpt lat="45.48914" lon="6.62075">
        <ele>2448.09</ele>
        <time>2016-01-24T11:45:48Z</time>
      </trkpt>
      <trkpt lat="45.48913" lon="6.62076">
        <ele>2449.36</ele>
        <time>2016-01-24T11:46:06Z</time>
      </trkpt>
      <trkpt lat="45.48913" lon="6.62079">
        <ele>2449.92</ele>
        <time>2016-01-24T11:46:19Z</time>
      </trkpt>
      <trkpt lat="45.48912" lon="6.6208">
        <ele>2449.58</ele>
        <time>2016-01-24T11:46:41Z</time>
      </trkpt>
      <trkpt lat="45.48912" lon="6.62081">
        <ele>2449.68</ele>
        <time>2016-01-24T11:46:57Z</time>
      </trkpt>
      <trkpt lat="45.48911" lon="6.62082">
        <ele>2449.67</ele>
        <time>2016-01-24T11:47:13Z</time>
      </trkpt>
      <trkpt lat="45.48911" lon="6.62082">
        <ele>2449.84</ele>
        <time>2016-01-24T11:47:34Z</time>
      </trkpt>
      <trkpt lat="45.48911" lon="6.62081">
        <ele>2449.62</ele>
        <time>2016-01-24T11:47:52Z</time>
      </trkpt>
      <trkpt lat="45.48911" lon="6.62081">
        <ele>2449.81</ele>
        <time>2016-01-24T11:48:17Z</time>
      </trkpt>
      <trkpt lat="45.48911" lon="6.62081">
        <ele>2449.72</ele>
        <time>2016-01-24T11:48:38Z</time>
      </trkpt>
      <trkpt lat="45.48911" lon="6.62081">
        <ele>2449.8</ele>
        <time>2016-01-24T11:49:00Z</time>
      </trkpt>
      <trkpt lat="45.48911" lon="6.62081">
        <ele>2449.6</ele>
        <time>2016-01-24T11:49:20Z</time>
      </trkpt>
      <trkpt lat="45.48911" lon="6.62081">
        <ele>2449.91</ele>
        <time>2016-01-24T11:49:38Z</time>
      </trkpt>
      <trkpt lat="45.48911" lon="6.62081">
        <ele>2450.11</ele>
        <time>2016-01-24T11:49:56Z</time>
      </trkpt>
      <trkpt lat="45.48911" lon="6.62081">
        <ele>2449.98</ele>
        <time>2016-01-24T11:50:14Z</time>
      </trkpt>
      <trkpt lat="45.48911" lon="6.62081">
        <ele>2450.18</ele>
        <time>2016-01-24T11:50:32Z</time>
      </trkpt>
      <trkpt lat="45.48911" lon="6.62082">
        <ele>2450.16</ele>
        <time>2016-01-24T11:50:51Z</time>
      </trkpt>
      <trkpt lat="45.48911" lon="6.62081">
        <ele>2450.31</ele>
        <time>2016-01-24T11:51:08Z</time>
      </trkpt>
      <trkpt lat="45.48912" lon="6.6208">
        <ele>2450.1</ele>
        <time>2016-01-24T11:51:28Z</time>
      </trkpt>
      <trkpt lat="45.48911" lon="6.6208">
        <ele>2450.27</ele>
        <time>2016-01-24T11:51:46Z</time>
      </trkpt>
      <trkpt lat="45.48911" lon="6.62079">
        <ele>2450.27</ele>
        <time>2016-01-24T11:52:06Z</time>
      </trkpt>
      <trkpt lat="45.48911" lon="6.6208">
        <ele>2449.96</ele>
        <time>2016-01-24T11:52:24Z</time>
      </trkpt>
      <trkpt lat="45.4891" lon="6.62082">
        <ele>2449.81</ele>
        <time>2016-01-24T11:52:41Z</time>
      </trkpt>
      <trkpt lat="45.4891" lon="6.62082">
        <ele>2449.61</ele>
        <time>2016-01-24T11:52:58Z</time>
      </trkpt>
      <trkpt lat="45.4891" lon="6.62081">
        <ele>2449.63</ele>
        <time>2016-01-24T11:53:15Z</time>
      </trkpt>
      <trkpt lat="45.48911" lon="6.6208">
        <ele>2449.42</ele>
        <time>2016-01-24T11:53:35Z</time>
      </trkpt>
      <trkpt lat="45.48911" lon="6.6208">
        <ele>2449.94</ele>
        <time>2016-01-24T11:53:56Z</time>
      </trkpt>
      <trkpt lat="45.4891" lon="6.6208">
        <ele>2449.67</ele>
        <time>2016-01-24T11:54:15Z</time>
      </trkpt>
      <trkpt lat="45.48911" lon="6.6208">
        <ele>2449.79</ele>
        <time>2016-01-24T11:54:36Z</time>
      </trkpt>
      <trkpt lat="45.48912" lon="6.62081">
        <ele>2449.76</ele>
        <time>2016-01-24T11:54:55Z</time>
      </trkpt>
      <trkpt lat="45.48912" lon="6.6208">
        <ele>2450.04</ele>
        <time>2016-01-24T11:55:15Z</time>
      </trkpt>
      <trkpt lat="45.48911" lon="6.62078">
        <ele>2449.71</ele>
        <time>2016-01-24T11:55:38Z</time>
      </trkpt>
      <trkpt lat="45.48911" lon="6.62078">
        <ele>2450.3</ele>
        <time>2016-01-24T11:56:05Z</time>
      </trkpt>
      <trkpt lat="45.48911" lon="6.6208">
        <ele>2450.5</ele>
        <time>2016-01-24T11:56:25Z</time>
      </trkpt>
      <trkpt lat="45.48912" lon="6.62081">
        <ele>2450.52</ele>
        <time>2016-01-24T11:56:46Z</time>
      </trkpt>
      <trkpt lat="45.48912" lon="6.62081">
        <ele>2450.45</ele>
        <time>2016-01-24T11:57:07Z</time>
      </trkpt>
      <trkpt lat="45.48912" lon="6.6208">
        <ele>2450.38</ele>
        <time>2016-01-24T11:57:29Z</time>
      </trkpt>
      <trkpt lat="45.48912" lon="6.62081">
        <ele>2450.46</ele>
        <time>2016-01-24T11:57:49Z</time>
      </trkpt>
      <trkpt lat="45.48912" lon="6.62082">
        <ele>2450.41</ele>
        <time>2016-01-24T11:58:08Z</time>
      </trkpt>
      <trkpt lat="45.48912" lon="6.62082">
        <ele>2450.6</ele>
        <time>2016-01-24T11:58:29Z</time>
      </trkpt>
      <trkpt lat="45.48911" lon="6.62082">
        <ele>2450.62</ele>
        <time>2016-01-24T11:58:46Z</time>
      </trkpt>
      <trkpt lat="45.48911" lon="6.62082">
        <ele>2450.71</ele>
        <time>2016-01-24T11:59:03Z</time>
      </trkpt>
      <trkpt lat="45.48911" lon="6.62082">
        <ele>2450.93</ele>
        <time>2016-01-24T11:59:21Z</time>
      </trkpt>
      <trkpt lat="45.48912" lon="6.62082">
        <ele>2450.69</ele>
        <time>2016-01-24T11:59:39Z</time>
      </trkpt>
      <trkpt lat="45.48913" lon="6.62082">
        <ele>2450.75</ele>
        <time>2016-01-24T11:59:59Z</time>
      </trkpt>
      <trkpt lat="45.48913" lon="6.62083">
        <ele>2450.87</ele>
        <time>2016-01-24T12:00:19Z</time>
      </trkpt>
      <trkpt lat="45.48913" lon="6.62084">
        <ele>2450.85</ele>
        <time>2016-01-24T12:00:40Z</time>
      </trkpt>
      <trkpt lat="45.48913" lon="6.62083">
        <ele>2450.96</ele>
        <time>2016-01-24T12:01:01Z</time>
      </trkpt>
      <trkpt lat="45.48912" lon="6.62083">
        <ele>2451.06</ele>
        <time>2016-01-24T12:01:19Z</time>
      </trkpt>
      <trkpt lat="45.48911" lon="6.62083">
        <ele>2451.23</ele>
        <time>2016-01-24T12:01:37Z</time>
      </trkpt>
      <trkpt lat="45.48911" lon="6.62083">
        <ele>2451.36</ele>
        <time>2016-01-24T12:01:56Z</time>
      </trkpt>
      <trkpt lat="45.48911" lon="6.62083">
        <ele>2451.39</ele>
        <time>2016-01-24T12:02:16Z</time>
      </trkpt>
      <trkpt lat="45.48912" lon="6.62082">
        <ele>2451.37</ele>
        <time>2016-01-24T12:02:34Z</time>
      </trkpt>
      <trkpt lat="45.48912" lon="6.62081">
        <ele>2451.29</ele>
        <time>2016-01-24T12:02:57Z</time>
      </trkpt>
      <trkpt lat="45.48912" lon="6.6208">
        <ele>2451.06</ele>
        <time>2016-01-24T12:03:15Z</time>
      </trkpt>
      <trkpt lat="45.48912" lon="6.62081">
        <ele>2451.41</ele>
        <time>2016-01-24T12:03:31Z</time>
      </trkpt>
      <trkpt lat="45.48913" lon="6.62081">
        <ele>2451.27</ele>
        <time>2016-01-24T12:03:45Z</time>
      </trkpt>
      <trkpt lat="45.48912" lon="6.62081">
        <ele>2451.23</ele>
        <time>2016-01-24T12:04:02Z</time>
      </trkpt>
      <trkpt lat="45.48912" lon="6.62081">
        <ele>2451.19</ele>
        <time>2016-01-24T12:04:19Z</time>
      </trkpt>
      <trkpt lat="45.48911" lon="6.62081">
        <ele>2451.28</ele>
        <time>2016-01-24T12:04:38Z</time>
      </trkpt>
      <trkpt lat="45.48911" lon="6.62081">
        <ele>2451.17</ele>
        <time>2016-01-24T12:04:58Z</time>
      </trkpt>
      <trkpt lat="45.4891" lon="6.6208">
        <ele>2451.16</ele>
        <time>2016-01-24T12:05:14Z</time>
      </trkpt>
      <trkpt lat="45.48911" lon="6.62079">
        <ele>2451.03</ele>
        <time>2016-01-24T12:05:28Z</time>
      </trkpt>
      <trkpt lat="45.48911" lon="6.62079">
        <ele>2451.12</ele>
        <time>2016-01-24T12:05:42Z</time>
      </trkpt>
      <trkpt lat="45.48911" lon="6.62078">
        <ele>2451.15</ele>
        <time>2016-01-24T12:05:58Z</time>
      </trkpt>
      <trkpt lat="45.48911" lon="6.62078">
        <ele>2451.3</ele>
        <time>2016-01-24T12:06:12Z</time>
      </trkpt>
      <trkpt lat="45.48911" lon="6.62078">
        <ele>2451.33</ele>
        <time>2016-01-24T12:06:28Z</time>
      </trkpt>
      <trkpt lat="45.48911" lon="6.62078">
        <ele>2451.19</ele>
        <time>2016-01-24T12:06:42Z</time>
      </trkpt>
      <trkpt lat="45.48911" lon="6.62078">
        <ele>2451.16</ele>
        <time>2016-01-24T12:06:58Z</time>
      </trkpt>
      <trkpt lat="45.48911" lon="6.62078">
        <ele>2451.01</ele>
        <time>2016-01-24T12:07:12Z</time>
      </trkpt>
      <trkpt lat="45.48911" lon="6.62078">
        <ele>2450.83</ele>
        <time>2016-01-24T12:07:29Z</time>
      </trkpt>
      <trkpt lat="45.48911" lon="6.62078">
        <ele>2450.68</ele>
        <time>2016-01-24T12:07:44Z</time>
      </trkpt>
      <trkpt lat="45.48912" lon="6.62078">
        <ele>2450.65</ele>
        <time>2016-01-24T12:08:01Z</time>
      </trkpt>
      <trkpt lat="45.48912" lon="6.62078">
        <ele>2450.94</ele>
        <time>2016-01-24T12:08:19Z</time>
      </trkpt>
      <trkpt lat="45.48912" lon="6.62078">
        <ele>2451.67</ele>
        <time>2016-01-24T12:08:31Z</time>
      </trkpt>
      <trkpt lat="45.48913" lon="6.62079">
        <ele>2451.71</ele>
        <time>2016-01-24T12:08:54Z</time>
      </trkpt>
      <trkpt lat="45.48914" lon="6.62079">
        <ele>2451.51</ele>
        <time>2016-01-24T12:09:12Z</time>
      </trkpt>
      <trkpt lat="45.48913" lon="6.62074">
        <ele>2451.38</ele>
        <time>2016-01-24T12:09:23Z</time>
      </trkpt>
      <trkpt lat="45.48911" lon="6.62071">
        <ele>2451.02</ele>
        <time>2016-01-24T12:09:38Z</time>
      </trkpt>
      <trkpt lat="45.4891" lon="6.62069">
        <ele>2451.12</ele>
        <time>2016-01-24T12:09:53Z</time>
      </trkpt>
      <trkpt lat="45.4891" lon="6.62069">
        <ele>2451.73</ele>
        <time>2016-01-24T12:10:08Z</time>
      </trkpt>
      <trkpt lat="45.4891" lon="6.62065">
        <ele>2450.58</ele>
        <time>2016-01-24T12:10:17Z</time>
      </trkpt>
      <trkpt lat="45.48916" lon="6.62058">
        <ele>2449.55</ele>
        <time>2016-01-24T12:10:27Z</time>
      </trkpt>
      <trkpt lat="45.48913" lon="6.62038">
        <ele>2446.55</ele>
        <time>2016-01-24T12:10:34Z</time>
      </trkpt>
      <trkpt lat="45.48923" lon="6.62034">
        <ele>2442.33</ele>
        <time>2016-01-24T12:10:38Z</time>
      </trkpt>
      <trkpt lat="45.48924" lon="6.62031">
        <ele>2442.33</ele>
        <time>2016-01-24T12:10:39Z</time>
      </trkpt>
      <trkpt lat="45.4892" lon="6.62023">
        <ele>2438.62</ele>
        <time>2016-01-24T12:10:42Z</time>
      </trkpt>
      <trkpt lat="45.48924" lon="6.62014">
        <ele>2435</ele>
        <time>2016-01-24T12:10:46Z</time>
      </trkpt>
      <trkpt lat="45.48927" lon="6.62014">
        <ele>2431.64</ele>
        <time>2016-01-24T12:10:49Z</time>
      </trkpt>
      <trkpt lat="45.48927" lon="6.62014">
        <ele>2428.5</ele>
        <time>2016-01-24T12:10:54Z</time>
      </trkpt>
      <trkpt lat="45.48927" lon="6.62014">
        <ele>2428.18</ele>
        <time>2016-01-24T12:10:55Z</time>
      </trkpt>
      <trkpt lat="45.48939" lon="6.62005">
        <ele>2426.07</ele>
        <time>2016-01-24T12:11:02Z</time>
      </trkpt>
      <trkpt lat="45.48938" lon="6.62004">
        <ele>2422.47</ele>
        <time>2016-01-24T12:11:06Z</time>
      </trkpt>
      <trkpt lat="45.48938" lon="6.62003">
        <ele>2421.93</ele>
        <time>2016-01-24T12:11:07Z</time>
      </trkpt>
      <trkpt lat="45.48933" lon="6.61995">
        <ele>2420.47</ele>
        <time>2016-01-24T12:11:11Z</time>
      </trkpt>
      <trkpt lat="45.4893" lon="6.6199">
        <ele>2418.99</ele>
        <time>2016-01-24T12:11:14Z</time>
      </trkpt>
      <trkpt lat="45.48939" lon="6.61982">
        <ele>2415.66</ele>
        <time>2016-01-24T12:11:20Z</time>
      </trkpt>
      <trkpt lat="45.48944" lon="6.61973">
        <ele>2411.89</ele>
        <time>2016-01-24T12:11:24Z</time>
      </trkpt>
      <trkpt lat="45.48944" lon="6.61964">
        <ele>2408.36</ele>
        <time>2016-01-24T12:11:27Z</time>
      </trkpt>
      <trkpt lat="45.48945" lon="6.61963">
        <ele>2405.91</ele>
        <time>2016-01-24T12:11:28Z</time>
      </trkpt>
      <trkpt lat="45.48954" lon="6.61962">
        <ele>2400.74</ele>
        <time>2016-01-24T12:11:32Z</time>
      </trkpt>
      <trkpt lat="45.48957" lon="6.61963">
        <ele>2397.31</ele>
        <time>2016-01-24T12:11:36Z</time>
      </trkpt>
      <trkpt lat="45.48957" lon="6.61962">
        <ele>2394.48</ele>
        <time>2016-01-24T12:11:44Z</time>
      </trkpt>
      <trkpt lat="45.48962" lon="6.61954">
        <ele>2394</ele>
        <time>2016-01-24T12:11:49Z</time>
      </trkpt>
      <trkpt lat="45.4896" lon="6.6195">
        <ele>2390.03</ele>
        <time>2016-01-24T12:11:55Z</time>
      </trkpt>
      <trkpt lat="45.4896" lon="6.61949">
        <ele>2389.62</ele>
        <time>2016-01-24T12:11:56Z</time>
      </trkpt>
      <trkpt lat="45.48958" lon="6.61945">
        <ele>2387.22</ele>
        <time>2016-01-24T12:12:04Z</time>
      </trkpt>
      <trkpt lat="45.48967" lon="6.6194">
        <ele>2386.22</ele>
        <time>2016-01-24T12:12:08Z</time>
      </trkpt>
      <trkpt lat="45.48972" lon="6.61941">
        <ele>2383.41</ele>
        <time>2016-01-24T12:12:11Z</time>
      </trkpt>
      <trkpt lat="45.48976" lon="6.61933">
        <ele>2377.82</ele>
        <time>2016-01-24T12:12:16Z</time>
      </trkpt>
      <trkpt lat="45.48976" lon="6.61933">
        <ele>2377.82</ele>
        <time>2016-01-24T12:12:17Z</time>
      </trkpt>
      <trkpt lat="45.48975" lon="6.61932">
        <ele>2374.75</ele>
        <time>2016-01-24T12:12:20Z</time>
      </trkpt>
      <trkpt lat="45.48971" lon="6.61926">
        <ele>2371.99</ele>
        <time>2016-01-24T12:12:32Z</time>
      </trkpt>
      <trkpt lat="45.48971" lon="6.61925">
        <ele>2371.82</ele>
        <time>2016-01-24T12:12:33Z</time>
      </trkpt>
      <trkpt lat="45.48966" lon="6.61919">
        <ele>2369.8</ele>
        <time>2016-01-24T12:12:43Z</time>
      </trkpt>
      <trkpt lat="45.48969" lon="6.619">
        <ele>2368.21</ele>
        <time>2016-01-24T12:12:48Z</time>
      </trkpt>
      <trkpt lat="45.48961" lon="6.61891">
        <ele>2365.75</ele>
        <time>2016-01-24T12:12:50Z</time>
      </trkpt>
      <trkpt lat="45.48944" lon="6.61877">
        <ele>2359.7</ele>
        <time>2016-01-24T12:12:53Z</time>
      </trkpt>
      <trkpt lat="45.48933" lon="6.61869">
        <ele>2355.94</ele>
        <time>2016-01-24T12:12:55Z</time>
      </trkpt>
      <trkpt lat="45.48924" lon="6.61863">
        <ele>2352.64</ele>
        <time>2016-01-24T12:12:57Z</time>
      </trkpt>
      <trkpt lat="45.48917" lon="6.61857">
        <ele>2349.55</ele>
        <time>2016-01-24T12:12:59Z</time>
      </trkpt>
      <trkpt lat="45.48909" lon="6.61852">
        <ele>2346.23</ele>
        <time>2016-01-24T12:13:02Z</time>
      </trkpt>
      <trkpt lat="45.48898" lon="6.61844">
        <ele>2343.01</ele>
        <time>2016-01-24T12:13:06Z</time>
      </trkpt>
      <trkpt lat="45.48891" lon="6.61839">
        <ele>2339.66</ele>
        <time>2016-01-24T12:13:10Z</time>
      </trkpt>
      <trkpt lat="45.4889" lon="6.61837">
        <ele>2337.53</ele>
        <time>2016-01-24T12:13:16Z</time>
      </trkpt>
      <trkpt lat="45.48898" lon="6.6182">
        <ele>2336.54</ele>
        <time>2016-01-24T12:13:21Z</time>
      </trkpt>
      <trkpt lat="45.48898" lon="6.61782">
        <ele>2331.23</ele>
        <time>2016-01-24T12:13:25Z</time>
      </trkpt>
      <trkpt lat="45.48894" lon="6.61761">
        <ele>2324.77</ele>
        <time>2016-01-24T12:13:27Z</time>
      </trkpt>
      <trkpt lat="45.48891" lon="6.6175">
        <ele>2322.65</ele>
        <time>2016-01-24T12:13:28Z</time>
      </trkpt>
      <trkpt lat="45.48886" lon="6.61735">
        <ele>2318.82</ele>
        <time>2016-01-24T12:13:30Z</time>
      </trkpt>
      <trkpt lat="45.48885" lon="6.61733">
        <ele>2315.43</ele>
        <time>2016-01-24T12:13:32Z</time>
      </trkpt>
      <trkpt lat="45.48884" lon="6.61733">
        <ele>2311.89</ele>
        <time>2016-01-24T12:13:35Z</time>
      </trkpt>
      <trkpt lat="45.48883" lon="6.61733">
        <ele>2308.85</ele>
        <time>2016-01-24T12:13:42Z</time>
      </trkpt>
      <trkpt lat="45.48881" lon="6.61733">
        <ele>2308.19</ele>
        <time>2016-01-24T12:14:05Z</time>
      </trkpt>
      <trkpt lat="45.48881" lon="6.61735">
        <ele>2308.88</ele>
        <time>2016-01-24T12:14:30Z</time>
      </trkpt>
      <trkpt lat="45.48882" lon="6.61739">
        <ele>2308.72</ele>
        <time>2016-01-24T12:14:59Z</time>
      </trkpt>
      <trkpt lat="45.48882" lon="6.6174">
        <ele>2309</ele>
        <time>2016-01-24T12:15:30Z</time>
      </trkpt>
      <trkpt lat="45.48883" lon="6.61741">
        <ele>2308.77</ele>
        <time>2016-01-24T12:16:03Z</time>
      </trkpt>
      <trkpt lat="45.48882" lon="6.6174">
        <ele>2308.58</ele>
        <time>2016-01-24T12:16:29Z</time>
      </trkpt>
      <trkpt lat="45.48882" lon="6.6174">
        <ele>2309.02</ele>
        <time>2016-01-24T12:16:50Z</time>
      </trkpt>
      <trkpt lat="45.48884" lon="6.6174">
        <ele>2308.47</ele>
        <time>2016-01-24T12:17:20Z</time>
      </trkpt>
      <trkpt lat="45.48886" lon="6.61737">
        <ele>2308.33</ele>
        <time>2016-01-24T12:18:07Z</time>
      </trkpt>
      <trkpt lat="45.48885" lon="6.61738">
        <ele>2307.95</ele>
        <time>2016-01-24T12:18:30Z</time>
      </trkpt>
      <trkpt lat="45.48885" lon="6.61738">
        <ele>2308.11</ele>
        <time>2016-01-24T12:18:53Z</time>
      </trkpt>
      <trkpt lat="45.48885" lon="6.61739">
        <ele>2308.26</ele>
        <time>2016-01-24T12:19:15Z</time>
      </trkpt>
      <trkpt lat="45.48883" lon="6.61738">
        <ele>2308.11</ele>
        <time>2016-01-24T12:19:37Z</time>
      </trkpt>
      <trkpt lat="45.48882" lon="6.61737">
        <ele>2308.07</ele>
        <time>2016-01-24T12:19:40Z</time>
      </trkpt>
      <trkpt lat="45.4888" lon="6.61734">
        <ele>2308.05</ele>
        <time>2016-01-24T12:19:42Z</time>
      </trkpt>
      <trkpt lat="45.48889" lon="6.61697">
        <ele>2306.22</ele>
        <time>2016-01-24T12:19:48Z</time>
      </trkpt>
      <trkpt lat="45.48904" lon="6.61659">
        <ele>2300.42</ele>
        <time>2016-01-24T12:19:52Z</time>
      </trkpt>
      <trkpt lat="45.48914" lon="6.61634">
        <ele>2293.1</ele>
        <time>2016-01-24T12:19:55Z</time>
      </trkpt>
      <trkpt lat="45.48912" lon="6.61627">
        <ele>2288.65</ele>
        <time>2016-01-24T12:19:57Z</time>
      </trkpt>
      <trkpt lat="45.48912" lon="6.61625">
        <ele>2286.57</ele>
        <time>2016-01-24T12:19:58Z</time>
      </trkpt>
      <trkpt lat="45.48911" lon="6.61622">
        <ele>2280.76</ele>
        <time>2016-01-24T12:20:02Z</time>
      </trkpt>
      <trkpt lat="45.4891" lon="6.61624">
        <ele>2277.54</ele>
        <time>2016-01-24T12:20:06Z</time>
      </trkpt>
      <trkpt lat="45.48908" lon="6.61623">
        <ele>2275.93</ele>
        <time>2016-01-24T12:20:23Z</time>
      </trkpt>
      <trkpt lat="45.48923" lon="6.61611">
        <ele>2275.08</ele>
        <time>2016-01-24T12:20:29Z</time>
      </trkpt>
      <trkpt lat="45.48937" lon="6.61595">
        <ele>2271.33</ele>
        <time>2016-01-24T12:20:32Z</time>
      </trkpt>
      <trkpt lat="45.4895" lon="6.61578">
        <ele>2265.61</ele>
        <time>2016-01-24T12:20:35Z</time>
      </trkpt>
      <trkpt lat="45.48958" lon="6.61568">
        <ele>2261.21</ele>
        <time>2016-01-24T12:20:37Z</time>
      </trkpt>
      <trkpt lat="45.48965" lon="6.61553">
        <ele>2256.59</ele>
        <time>2016-01-24T12:20:39Z</time>
      </trkpt>
      <trkpt lat="45.48971" lon="6.61536">
        <ele>2251.68</ele>
        <time>2016-01-24T12:20:41Z</time>
      </trkpt>
      <trkpt lat="45.48977" lon="6.6152">
        <ele>2246.41</ele>
        <time>2016-01-24T12:20:43Z</time>
      </trkpt>
      <trkpt lat="45.48981" lon="6.61504">
        <ele>2241.02</ele>
        <time>2016-01-24T12:20:45Z</time>
      </trkpt>
      <trkpt lat="45.48982" lon="6.61495">
        <ele>2238.48</ele>
        <time>2016-01-24T12:20:46Z</time>
      </trkpt>
      <trkpt lat="45.4898" lon="6.61464">
        <ele>2228.92</ele>
        <time>2016-01-24T12:20:50Z</time>
      </trkpt>
      <trkpt lat="45.48988" lon="6.61447">
        <ele>2221.96</ele>
        <time>2016-01-24T12:20:53Z</time>
      </trkpt>
      <trkpt lat="45.48987" lon="6.61438">
        <ele>2217.46</ele>
        <time>2016-01-24T12:20:55Z</time>
      </trkpt>
      <trkpt lat="45.4898" lon="6.61428">
        <ele>2209.37</ele>
        <time>2016-01-24T12:20:58Z</time>
      </trkpt>
      <trkpt lat="45.48978" lon="6.61428">
        <ele>2205.41</ele>
        <time>2016-01-24T12:21:01Z</time>
      </trkpt>
      <trkpt lat="45.48977" lon="6.61431">
        <ele>2202.35</ele>
        <time>2016-01-24T12:21:06Z</time>
      </trkpt>
      <trkpt lat="45.48976" lon="6.61432">
        <ele>2200.73</ele>
        <time>2016-01-24T12:21:23Z</time>
      </trkpt>
      <trkpt lat="45.48975" lon="6.61432">
        <ele>2200.6</ele>
        <time>2016-01-24T12:21:50Z</time>
      </trkpt>
      <trkpt lat="45.48973" lon="6.61434">
        <ele>2200.4</ele>
        <time>2016-01-24T12:22:20Z</time>
      </trkpt>
      <trkpt lat="45.48975" lon="6.61433">
        <ele>2200.17</ele>
        <time>2016-01-24T12:22:42Z</time>
      </trkpt>
      <trkpt lat="45.48975" lon="6.61431">
        <ele>2200.55</ele>
        <time>2016-01-24T12:23:01Z</time>
      </trkpt>
      <trkpt lat="45.48975" lon="6.61431">
        <ele>2200.41</ele>
        <time>2016-01-24T12:23:14Z</time>
      </trkpt>
      <trkpt lat="45.48978" lon="6.61423">
        <ele>2200.1</ele>
        <time>2016-01-24T12:23:18Z</time>
      </trkpt>
      <trkpt lat="45.48983" lon="6.61402">
        <ele>2197.77</ele>
        <time>2016-01-24T12:23:22Z</time>
      </trkpt>
      <trkpt lat="45.48985" lon="6.61374">
        <ele>2193.29</ele>
        <time>2016-01-24T12:23:25Z</time>
      </trkpt>
      <trkpt lat="45.48989" lon="6.61352">
        <ele>2188.68</ele>
        <time>2016-01-24T12:23:27Z</time>
      </trkpt>
      <trkpt lat="45.48997" lon="6.61321">
        <ele>2176.18</ele>
        <time>2016-01-24T12:23:30Z</time>
      </trkpt>
      <trkpt lat="45.48999" lon="6.61309">
        <ele>2172.89</ele>
        <time>2016-01-24T12:23:31Z</time>
      </trkpt>
      <trkpt lat="45.49" lon="6.61297">
        <ele>2169.65</ele>
        <time>2016-01-24T12:23:32Z</time>
      </trkpt>
      <trkpt lat="45.49001" lon="6.61285">
        <ele>2166.58</ele>
        <time>2016-01-24T12:23:33Z</time>
      </trkpt>
      <trkpt lat="45.49003" lon="6.61273">
        <ele>2163.47</ele>
        <time>2016-01-24T12:23:34Z</time>
      </trkpt>
      <trkpt lat="45.49009" lon="6.61248">
        <ele>2157.08</ele>
        <time>2016-01-24T12:23:36Z</time>
      </trkpt>
      <trkpt lat="45.49011" lon="6.61234">
        <ele>2150.79</ele>
        <time>2016-01-24T12:23:38Z</time>
      </trkpt>
      <trkpt lat="45.49013" lon="6.61234">
        <ele>2146.01</ele>
        <time>2016-01-24T12:23:40Z</time>
      </trkpt>
      <trkpt lat="45.49013" lon="6.61235">
        <ele>2142.92</ele>
        <time>2016-01-24T12:23:42Z</time>
      </trkpt>
      <trkpt lat="45.49013" lon="6.61236">
        <ele>2139.72</ele>
        <time>2016-01-24T12:23:46Z</time>
      </trkpt>
      <trkpt lat="45.49011" lon="6.6124">
        <ele>2137.87</ele>
        <time>2016-01-24T12:24:01Z</time>
      </trkpt>
      <trkpt lat="45.49012" lon="6.61241">
        <ele>2137.76</ele>
        <time>2016-01-24T12:24:16Z</time>
      </trkpt>
      <trkpt lat="45.49011" lon="6.61241">
        <ele>2137.11</ele>
        <time>2016-01-24T12:24:33Z</time>
      </trkpt>
      <trkpt lat="45.4901" lon="6.6124">
        <ele>2137.05</ele>
        <time>2016-01-24T12:24:53Z</time>
      </trkpt>
      <trkpt lat="45.49009" lon="6.61236">
        <ele>2137.15</ele>
        <time>2016-01-24T12:25:09Z</time>
      </trkpt>
      <trkpt lat="45.49001" lon="6.61227">
        <ele>2136.88</ele>
        <time>2016-01-24T12:25:13Z</time>
      </trkpt>
      <trkpt lat="45.48967" lon="6.6121">
        <ele>2133.34</ele>
        <time>2016-01-24T12:25:19Z</time>
      </trkpt>
      <trkpt lat="45.48953" lon="6.61204">
        <ele>2131.34</ele>
        <time>2016-01-24T12:25:21Z</time>
      </trkpt>
      <trkpt lat="45.48941" lon="6.61172">
        <ele>2126.14</ele>
        <time>2016-01-24T12:25:25Z</time>
      </trkpt>
      <trkpt lat="45.48944" lon="6.61165">
        <ele>2124.71</ele>
        <time>2016-01-24T12:25:26Z</time>
      </trkpt>
      <trkpt lat="45.48954" lon="6.61146">
        <ele>2119.97</ele>
        <time>2016-01-24T12:25:29Z</time>
      </trkpt>
      <trkpt lat="45.48963" lon="6.61119">
        <ele>2116.47</ele>
        <time>2016-01-24T12:25:31Z</time>
      </trkpt>
      <trkpt lat="45.48968" lon="6.61104">
        <ele>2112.1</ele>
        <time>2016-01-24T12:25:32Z</time>
      </trkpt>
      <trkpt lat="45.48978" lon="6.61075">
        <ele>2106.6</ele>
        <time>2016-01-24T12:25:34Z</time>
      </trkpt>
      <trkpt lat="45.48988" lon="6.61031">
        <ele>2098.7</ele>
        <time>2016-01-24T12:25:37Z</time>
      </trkpt>
      <trkpt lat="45.48991" lon="6.61007">
        <ele>2093.89</ele>
        <time>2016-01-24T12:25:39Z</time>
      </trkpt>
      <trkpt lat="45.48994" lon="6.6099">
        <ele>2090.21</ele>
        <time>2016-01-24T12:25:41Z</time>
      </trkpt>
      <trkpt lat="45.48999" lon="6.60966">
        <ele>2086.74</ele>
        <time>2016-01-24T12:25:44Z</time>
      </trkpt>
      <trkpt lat="45.49006" lon="6.6093">
        <ele>2083.02</ele>
        <time>2016-01-24T12:25:49Z</time>
      </trkpt>
      <trkpt lat="45.49023" lon="6.60887">
        <ele>2078.57</ele>
        <time>2016-01-24T12:25:55Z</time>
      </trkpt>
      <trkpt lat="45.49031" lon="6.60873">
        <ele>2076.17</ele>
        <time>2016-01-24T12:25:57Z</time>
      </trkpt>
      <trkpt lat="45.4904" lon="6.60844">
        <ele>2073.41</ele>
        <time>2016-01-24T12:26:01Z</time>
      </trkpt>
      <trkpt lat="45.49047" lon="6.60809">
        <ele>2069.46</ele>
        <time>2016-01-24T12:26:08Z</time>
      </trkpt>
      <trkpt lat="45.49048" lon="6.60804">
        <ele>2068.99</ele>
        <time>2016-01-24T12:26:09Z</time>
      </trkpt>
      <trkpt lat="45.49063" lon="6.60781">
        <ele>2067.21</ele>
        <time>2016-01-24T12:26:13Z</time>
      </trkpt>
      <trkpt lat="45.4909" lon="6.60755">
        <ele>2063.74</ele>
        <time>2016-01-24T12:26:17Z</time>
      </trkpt>
      <trkpt lat="45.491" lon="6.60742">
        <ele>2061.13</ele>
        <time>2016-01-24T12:26:19Z</time>
      </trkpt>
      <trkpt lat="45.49104" lon="6.60735">
        <ele>2058.83</ele>
        <time>2016-01-24T12:26:20Z</time>
      </trkpt>
      <trkpt lat="45.49115" lon="6.60712">
        <ele>2055.67</ele>
        <time>2016-01-24T12:26:24Z</time>
      </trkpt>
      <trkpt lat="45.49123" lon="6.60679">
        <ele>2052.63</ele>
        <time>2016-01-24T12:26:30Z</time>
      </trkpt>
      <trkpt lat="45.49125" lon="6.60667">
        <ele>2051.86</ele>
        <time>2016-01-24T12:26:32Z</time>
      </trkpt>
      <trkpt lat="45.49126" lon="6.60662">
        <ele>2051.5</ele>
        <time>2016-01-24T12:26:33Z</time>
      </trkpt>
      <trkpt lat="45.49129" lon="6.60662">
        <ele>2049.26</ele>
        <time>2016-01-24T12:26:38Z</time>
      </trkpt>
      <trkpt lat="45.49129" lon="6.60662">
        <ele>2047.48</ele>
        <time>2016-01-24T12:27:01Z</time>
      </trkpt>
      <trkpt lat="45.49128" lon="6.60664">
        <ele>2047.11</ele>
        <time>2016-01-24T12:27:24Z</time>
      </trkpt>
      <trkpt lat="45.49129" lon="6.60664">
        <ele>2047.02</ele>
        <time>2016-01-24T12:27:42Z</time>
      </trkpt>
      <trkpt lat="45.49129" lon="6.60664">
        <ele>2046.94</ele>
        <time>2016-01-24T12:28:09Z</time>
      </trkpt>
      <trkpt lat="45.49128" lon="6.60664">
        <ele>2046.93</ele>
        <time>2016-01-24T12:28:26Z</time>
      </trkpt>
      <trkpt lat="45.49128" lon="6.60665">
        <ele>2046.79</ele>
        <time>2016-01-24T12:28:45Z</time>
      </trkpt>
      <trkpt lat="45.49131" lon="6.60665">
        <ele>2046.68</ele>
        <time>2016-01-24T12:28:55Z</time>
      </trkpt>
      <trkpt lat="45.49133" lon="6.60665">
        <ele>2046.65</ele>
        <time>2016-01-24T12:28:56Z</time>
      </trkpt>
      <trkpt lat="45.4915" lon="6.60642">
        <ele>2045.35</ele>
        <time>2016-01-24T12:29:01Z</time>
      </trkpt>
      <trkpt lat="45.4917" lon="6.60639">
        <ele>2041.64</ele>
        <time>2016-01-24T12:29:04Z</time>
      </trkpt>
      <trkpt lat="45.49175" lon="6.60623">
        <ele>2038.15</ele>
        <time>2016-01-24T12:29:06Z</time>
      </trkpt>
      <trkpt lat="45.49184" lon="6.60615">
        <ele>2034.62</ele>
        <time>2016-01-24T12:29:08Z</time>
      </trkpt>
      <trkpt lat="45.49189" lon="6.60613">
        <ele>2032.85</ele>
        <time>2016-01-24T12:29:09Z</time>
      </trkpt>
      <trkpt lat="45.49197" lon="6.60611">
        <ele>2027.64</ele>
        <time>2016-01-24T12:29:12Z</time>
      </trkpt>
      <trkpt lat="45.49199" lon="6.60618">
        <ele>2024.33</ele>
        <time>2016-01-24T12:29:14Z</time>
      </trkpt>
      <trkpt lat="45.49199" lon="6.60622">
        <ele>2019.53</ele>
        <time>2016-01-24T12:29:17Z</time>
      </trkpt>
      <trkpt lat="45.492" lon="6.60621">
        <ele>2017.48</ele>
        <time>2016-01-24T12:29:20Z</time>
      </trkpt>
      <trkpt lat="45.49214" lon="6.6061">
        <ele>2014.89</ele>
        <time>2016-01-24T12:29:26Z</time>
      </trkpt>
      <trkpt lat="45.49219" lon="6.60617">
        <ele>2011.59</ele>
        <time>2016-01-24T12:29:30Z</time>
      </trkpt>
      <trkpt lat="45.49222" lon="6.60612">
        <ele>2007.8</ele>
        <time>2016-01-24T12:29:34Z</time>
      </trkpt>
      <trkpt lat="45.49223" lon="6.60612">
        <ele>2006.69</ele>
        <time>2016-01-24T12:29:35Z</time>
      </trkpt>
      <trkpt lat="45.49234" lon="6.60617">
        <ele>2003.06</ele>
        <time>2016-01-24T12:29:40Z</time>
      </trkpt>
      <trkpt lat="45.49246" lon="6.60619">
        <ele>2000.05</ele>
        <time>2016-01-24T12:29:43Z</time>
      </trkpt>
      <trkpt lat="45.49253" lon="6.60613">
        <ele>1996.46</ele>
        <time>2016-01-24T12:29:46Z</time>
      </trkpt>
      <trkpt lat="45.4926" lon="6.60614">
        <ele>1993.67</ele>
        <time>2016-01-24T12:29:48Z</time>
      </trkpt>
      <trkpt lat="45.49275" lon="6.60611">
        <ele>1987.27</ele>
        <time>2016-01-24T12:29:52Z</time>
      </trkpt>
      <trkpt lat="45.49281" lon="6.60618">
        <ele>1983.73</ele>
        <time>2016-01-24T12:29:54Z</time>
      </trkpt>
      <trkpt lat="45.49287" lon="6.60615">
        <ele>1980.64</ele>
        <time>2016-01-24T12:29:56Z</time>
      </trkpt>
      <trkpt lat="45.4929" lon="6.60607">
        <ele>1977.61</ele>
        <time>2016-01-24T12:29:58Z</time>
      </trkpt>
      <trkpt lat="45.49292" lon="6.60602">
        <ele>1976.08</ele>
        <time>2016-01-24T12:29:59Z</time>
      </trkpt>
      <trkpt lat="45.49297" lon="6.60585">
        <ele>1972.35</ele>
        <time>2016-01-24T12:30:02Z</time>
      </trkpt>
      <trkpt lat="45.49306" lon="6.60584">
        <ele>1967.8</ele>
        <time>2016-01-24T12:30:06Z</time>
      </trkpt>
      <trkpt lat="45.4931" lon="6.60581">
        <ele>1966.6</ele>
        <time>2016-01-24T12:30:07Z</time>
      </trkpt>
      <trkpt lat="45.49329" lon="6.6058">
        <ele>1960.64</ele>
        <time>2016-01-24T12:30:11Z</time>
      </trkpt>
      <trkpt lat="45.49336" lon="6.60576">
        <ele>1957.6</ele>
        <time>2016-01-24T12:30:13Z</time>
      </trkpt>
      <trkpt lat="45.49346" lon="6.60559">
        <ele>1953.24</ele>
        <time>2016-01-24T12:30:16Z</time>
      </trkpt>
      <trkpt lat="45.49352" lon="6.60548">
        <ele>1950.07</ele>
        <time>2016-01-24T12:30:18Z</time>
      </trkpt>
      <trkpt lat="45.49357" lon="6.6054">
        <ele>1946.84</ele>
        <time>2016-01-24T12:30:20Z</time>
      </trkpt>
      <trkpt lat="45.49366" lon="6.6054">
        <ele>1943.66</ele>
        <time>2016-01-24T12:30:22Z</time>
      </trkpt>
      <trkpt lat="45.49381" lon="6.60538">
        <ele>1939.69</ele>
        <time>2016-01-24T12:30:25Z</time>
      </trkpt>
      <trkpt lat="45.49392" lon="6.60542">
        <ele>1935.39</ele>
        <time>2016-01-24T12:30:28Z</time>
      </trkpt>
      <trkpt lat="45.49394" lon="6.60541">
        <ele>1931.75</ele>
        <time>2016-01-24T12:30:31Z</time>
      </trkpt>
      <trkpt lat="45.49397" lon="6.6054">
        <ele>1928.37</ele>
        <time>2016-01-24T12:30:36Z</time>
      </trkpt>
      <trkpt lat="45.49399" lon="6.60542">
        <ele>1927.48</ele>
        <time>2016-01-24T12:30:38Z</time>
      </trkpt>
      <trkpt lat="45.49407" lon="6.60561">
        <ele>1926.51</ele>
        <time>2016-01-24T12:30:42Z</time>
      </trkpt>
      <trkpt lat="45.49409" lon="6.60568">
        <ele>1923.28</ele>
        <time>2016-01-24T12:30:51Z</time>
      </trkpt>
      <trkpt lat="45.49411" lon="6.6057">
        <ele>1922.28</ele>
        <time>2016-01-24T12:31:03Z</time>
      </trkpt>
      <trkpt lat="45.49419" lon="6.60586">
        <ele>1920.95</ele>
        <time>2016-01-24T12:31:10Z</time>
      </trkpt>
      <trkpt lat="45.4942" lon="6.6059">
        <ele>1920.56</ele>
        <time>2016-01-24T12:31:11Z</time>
      </trkpt>
      <trkpt lat="45.49442" lon="6.60621">
        <ele>1915.98</ele>
        <time>2016-01-24T12:31:18Z</time>
      </trkpt>
      <trkpt lat="45.49466" lon="6.60621">
        <ele>1910.58</ele>
        <time>2016-01-24T12:31:22Z</time>
      </trkpt>
      <trkpt lat="45.49491" lon="6.60611">
        <ele>1906.34</ele>
        <time>2016-01-24T12:31:26Z</time>
      </trkpt>
      <trkpt lat="45.49509" lon="6.60594">
        <ele>1903.01</ele>
        <time>2016-01-24T12:31:29Z</time>
      </trkpt>
      <trkpt lat="45.4952" lon="6.60578">
        <ele>1898.81</ele>
        <time>2016-01-24T12:31:31Z</time>
      </trkpt>
      <trkpt lat="45.49541" lon="6.60534">
        <ele>1891.09</ele>
        <time>2016-01-24T12:31:35Z</time>
      </trkpt>
      <trkpt lat="45.49546" lon="6.60508">
        <ele>1886.49</ele>
        <time>2016-01-24T12:31:37Z</time>
      </trkpt>
      <trkpt lat="45.49548" lon="6.60495">
        <ele>1884.28</ele>
        <time>2016-01-24T12:31:38Z</time>
      </trkpt>
      <trkpt lat="45.4955" lon="6.60459">
        <ele>1877.8</ele>
        <time>2016-01-24T12:31:41Z</time>
      </trkpt>
      <trkpt lat="45.49551" lon="6.60437">
        <ele>1874.62</ele>
        <time>2016-01-24T12:31:43Z</time>
      </trkpt>
      <trkpt lat="45.49552" lon="6.60428">
        <ele>1873.22</ele>
        <time>2016-01-24T12:31:44Z</time>
      </trkpt>
      <trkpt lat="45.49556" lon="6.60402">
        <ele>1868.51</ele>
        <time>2016-01-24T12:31:49Z</time>
      </trkpt>
      <trkpt lat="45.49561" lon="6.60391">
        <ele>1867.33</ele>
        <time>2016-01-24T12:31:52Z</time>
      </trkpt>
      <trkpt lat="45.49562" lon="6.60388">
        <ele>1864.2</ele>
        <time>2016-01-24T12:32:03Z</time>
      </trkpt>
      <trkpt lat="45.49563" lon="6.60386">
        <ele>1864</ele>
        <time>2016-01-24T12:32:06Z</time>
      </trkpt>
      <trkpt lat="45.49564" lon="6.60381">
        <ele>1863.86</ele>
        <time>2016-01-24T12:32:08Z</time>
      </trkpt>
      <trkpt lat="45.49568" lon="6.60373">
        <ele>1863.67</ele>
        <time>2016-01-24T12:32:10Z</time>
      </trkpt>
      <trkpt lat="45.49575" lon="6.60359">
        <ele>1861.82</ele>
        <time>2016-01-24T12:32:16Z</time>
      </trkpt>
      <trkpt lat="45.49574" lon="6.60359">
        <ele>1858.8</ele>
        <time>2016-01-24T12:32:29Z</time>
      </trkpt>
      <trkpt lat="45.49575" lon="6.60359">
        <ele>1858.76</ele>
        <time>2016-01-24T12:32:43Z</time>
      </trkpt>
      <trkpt lat="45.49574" lon="6.60359">
        <ele>1858.5</ele>
        <time>2016-01-24T12:33:00Z</time>
      </trkpt>
      <trkpt lat="45.49574" lon="6.60359">
        <ele>1858.53</ele>
        <time>2016-01-24T12:33:21Z</time>
      </trkpt>
      <trkpt lat="45.49574" lon="6.60358">
        <ele>1858.65</ele>
        <time>2016-01-24T12:33:30Z</time>
      </trkpt>
      <trkpt lat="45.49567" lon="6.60335">
        <ele>1858.33</ele>
        <time>2016-01-24T12:33:35Z</time>
      </trkpt>
      <trkpt lat="45.49553" lon="6.60308">
        <ele>1854.86</ele>
        <time>2016-01-24T12:33:41Z</time>
      </trkpt>
      <trkpt lat="45.4955" lon="6.60289">
        <ele>1853.24</ele>
        <time>2016-01-24T12:33:45Z</time>
      </trkpt>
      <trkpt lat="45.49552" lon="6.60248">
        <ele>1850.27</ele>
        <time>2016-01-24T12:33:53Z</time>
      </trkpt>
      <trkpt lat="45.4956" lon="6.60215">
        <ele>1849.54</ele>
        <time>2016-01-24T12:33:58Z</time>
      </trkpt>
      <trkpt lat="45.49564" lon="6.60183">
        <ele>1847.23</ele>
        <time>2016-01-24T12:34:02Z</time>
      </trkpt>
      <trkpt lat="45.49566" lon="6.60166">
        <ele>1846.11</ele>
        <time>2016-01-24T12:34:04Z</time>
      </trkpt>
      <trkpt lat="45.49573" lon="6.60136">
        <ele>1842.23</ele>
        <time>2016-01-24T12:34:09Z</time>
      </trkpt>
      <trkpt lat="45.49587" lon="6.60118">
        <ele>1838.06</ele>
        <time>2016-01-24T12:34:13Z</time>
      </trkpt>
      <trkpt lat="45.49591" lon="6.60109">
        <ele>1834.25</ele>
        <time>2016-01-24T12:34:15Z</time>
      </trkpt>
      <trkpt lat="45.49593" lon="6.60092">
        <ele>1831.84</ele>
        <time>2016-01-24T12:34:17Z</time>
      </trkpt>
      <trkpt lat="45.49593" lon="6.6006">
        <ele>1827.69</ele>
        <time>2016-01-24T12:34:20Z</time>
      </trkpt>
      <trkpt lat="45.49591" lon="6.60032">
        <ele>1822.77</ele>
        <time>2016-01-24T12:34:23Z</time>
      </trkpt>
      <trkpt lat="45.49585" lon="6.60016">
        <ele>1819.68</ele>
        <time>2016-01-24T12:34:25Z</time>
      </trkpt>
      <trkpt lat="45.49561" lon="6.59976">
        <ele>1812.94</ele>
        <time>2016-01-24T12:34:30Z</time>
      </trkpt>
      <trkpt lat="45.49551" lon="6.59966">
        <ele>1809.37</ele>
        <time>2016-01-24T12:34:33Z</time>
      </trkpt>
      <trkpt lat="45.49551" lon="6.59966">
        <ele>1806.28</ele>
        <time>2016-01-24T12:34:38Z</time>
      </trkpt>
      <trkpt lat="45.49552" lon="6.59965">
        <ele>1805.35</ele>
        <time>2016-01-24T12:34:46Z</time>
      </trkpt>
      <trkpt lat="45.4957" lon="6.59969">
        <ele>1804.75</ele>
        <time>2016-01-24T12:34:53Z</time>
      </trkpt>
      <trkpt lat="45.49586" lon="6.5997">
        <ele>1803.71</ele>
        <time>2016-01-24T12:34:56Z</time>
      </trkpt>
      <trkpt lat="45.49625" lon="6.59995">
        <ele>1798.39</ele>
        <time>2016-01-24T12:35:02Z</time>
      </trkpt>
      <trkpt lat="45.49632" lon="6.59995">
        <ele>1798.39</ele>
        <time>2016-01-24T12:35:03Z</time>
      </trkpt>
      <trkpt lat="45.49634" lon="6.59987">
        <ele>1795.05</ele>
        <time>2016-01-24T12:35:05Z</time>
      </trkpt>
      <trkpt lat="45.49632" lon="6.59983">
        <ele>1793.9</ele>
        <time>2016-01-24T12:35:06Z</time>
      </trkpt>
      <trkpt lat="45.49618" lon="6.59954">
        <ele>1788.44</ele>
        <time>2016-01-24T12:35:12Z</time>
      </trkpt>
      <trkpt lat="45.49615" lon="6.59944">
        <ele>1787.14</ele>
        <time>2016-01-24T12:35:14Z</time>
      </trkpt>
      <trkpt lat="45.4961" lon="6.5992">
        <ele>1784.83</ele>
        <time>2016-01-24T12:35:18Z</time>
      </trkpt>
      <trkpt lat="45.49602" lon="6.59894">
        <ele>1782.17</ele>
        <time>2016-01-24T12:35:22Z</time>
      </trkpt>
      <trkpt lat="45.49583" lon="6.59869">
        <ele>1777.05</ele>
        <time>2016-01-24T12:35:27Z</time>
      </trkpt>
      <trkpt lat="45.49566" lon="6.59853">
        <ele>1773.93</ele>
        <time>2016-01-24T12:35:30Z</time>
      </trkpt>
      <trkpt lat="45.49561" lon="6.5985">
        <ele>1773.05</ele>
        <time>2016-01-24T12:35:31Z</time>
      </trkpt>
      <trkpt lat="45.49552" lon="6.59846">
        <ele>1771.2</ele>
        <time>2016-01-24T12:35:33Z</time>
      </trkpt>
      <trkpt lat="45.49542" lon="6.59839">
        <ele>1769.3</ele>
        <time>2016-01-24T12:35:35Z</time>
      </trkpt>
      <trkpt lat="45.49512" lon="6.59812">
        <ele>1764.73</ele>
        <time>2016-01-24T12:35:41Z</time>
      </trkpt>
      <trkpt lat="45.49511" lon="6.598">
        <ele>1761.74</ele>
        <time>2016-01-24T12:35:45Z</time>
      </trkpt>
      <trkpt lat="45.49511" lon="6.598">
        <ele>1759.17</ele>
        <time>2016-01-24T12:35:55Z</time>
      </trkpt>
      <trkpt lat="45.4951" lon="6.598">
        <ele>1758.63</ele>
        <time>2016-01-24T12:36:11Z</time>
      </trkpt>
      <trkpt lat="45.49509" lon="6.59802">
        <ele>1758.25</ele>
        <time>2016-01-24T12:36:29Z</time>
      </trkpt>
      <trkpt lat="45.49509" lon="6.59802">
        <ele>1758.45</ele>
        <time>2016-01-24T12:36:48Z</time>
      </trkpt>
      <trkpt lat="45.49509" lon="6.59803">
        <ele>1758.31</ele>
        <time>2016-01-24T12:37:11Z</time>
      </trkpt>
      <trkpt lat="45.49508" lon="6.59802">
        <ele>1758.14</ele>
        <time>2016-01-24T12:37:23Z</time>
      </trkpt>
      <trkpt lat="45.49509" lon="6.59802">
        <ele>1758.13</ele>
        <time>2016-01-24T12:37:38Z</time>
      </trkpt>
      <trkpt lat="45.49508" lon="6.59802">
        <ele>1758.34</ele>
        <time>2016-01-24T12:37:59Z</time>
      </trkpt>
      <trkpt lat="45.49509" lon="6.59803">
        <ele>1758.16</ele>
        <time>2016-01-24T12:38:16Z</time>
      </trkpt>
      <trkpt lat="45.49508" lon="6.59804">
        <ele>1757.65</ele>
        <time>2016-01-24T12:38:31Z</time>
      </trkpt>
      <trkpt lat="45.49506" lon="6.59804">
        <ele>1757.6</ele>
        <time>2016-01-24T12:38:57Z</time>
      </trkpt>
      <trkpt lat="45.49506" lon="6.59805">
        <ele>1757.2</ele>
        <time>2016-01-24T12:39:23Z</time>
      </trkpt>
      <trkpt lat="45.49506" lon="6.59805">
        <ele>1757.22</ele>
        <time>2016-01-24T12:39:50Z</time>
      </trkpt>
      <trkpt lat="45.49506" lon="6.59806">
        <ele>1757.21</ele>
        <time>2016-01-24T12:40:16Z</time>
      </trkpt>
      <trkpt lat="45.49507" lon="6.59806">
        <ele>1756.97</ele>
        <time>2016-01-24T12:40:33Z</time>
      </trkpt>
      <trkpt lat="45.49507" lon="6.59806">
        <ele>1756.94</ele>
        <time>2016-01-24T12:41:00Z</time>
      </trkpt>
      <trkpt lat="45.49506" lon="6.59805">
        <ele>1756.81</ele>
        <time>2016-01-24T12:41:16Z</time>
      </trkpt>
      <trkpt lat="45.49509" lon="6.59788">
        <ele>1756.41</ele>
        <time>2016-01-24T12:41:23Z</time>
      </trkpt>
      <trkpt lat="45.49509" lon="6.59767">
        <ele>1754.39</ele>
        <time>2016-01-24T12:41:27Z</time>
      </trkpt>
      <trkpt lat="45.49506" lon="6.59757">
        <ele>1751.27</ele>
        <time>2016-01-24T12:41:30Z</time>
      </trkpt>
      <trkpt lat="45.49496" lon="6.59743">
        <ele>1747.49</ele>
        <time>2016-01-24T12:41:34Z</time>
      </trkpt>
      <trkpt lat="45.49499" lon="6.59738">
        <ele>1746.6</ele>
        <time>2016-01-24T12:41:35Z</time>
      </trkpt>
      <trkpt lat="45.495" lon="6.59713">
        <ele>1741.41</ele>
        <time>2016-01-24T12:41:41Z</time>
      </trkpt>
      <trkpt lat="45.49494" lon="6.59704">
        <ele>1738.7</ele>
        <time>2016-01-24T12:41:44Z</time>
      </trkpt>
      <trkpt lat="45.49484" lon="6.5969">
        <ele>1733.08</ele>
        <time>2016-01-24T12:41:50Z</time>
      </trkpt>
      <trkpt lat="45.49483" lon="6.59686">
        <ele>1732.03</ele>
        <time>2016-01-24T12:41:51Z</time>
      </trkpt>
      <trkpt lat="45.49482" lon="6.59674">
        <ele>1730.05</ele>
        <time>2016-01-24T12:41:53Z</time>
      </trkpt>
      <trkpt lat="45.49473" lon="6.59664">
        <ele>1726.22</ele>
        <time>2016-01-24T12:41:57Z</time>
      </trkpt>
      <trkpt lat="45.49475" lon="6.59654">
        <ele>1722.71</ele>
        <time>2016-01-24T12:41:59Z</time>
      </trkpt>
      <trkpt lat="45.49467" lon="6.59644">
        <ele>1719.38</ele>
        <time>2016-01-24T12:42:02Z</time>
      </trkpt>
      <trkpt lat="45.49464" lon="6.5963">
        <ele>1715.29</ele>
        <time>2016-01-24T12:42:05Z</time>
      </trkpt>
      <trkpt lat="45.49458" lon="6.59618">
        <ele>1711.13</ele>
        <time>2016-01-24T12:42:08Z</time>
      </trkpt>
      <trkpt lat="45.49455" lon="6.59611">
        <ele>1707.98</ele>
        <time>2016-01-24T12:42:10Z</time>
      </trkpt>
      <trkpt lat="45.49447" lon="6.59611">
        <ele>1704.78</ele>
        <time>2016-01-24T12:42:12Z</time>
      </trkpt>
      <trkpt lat="45.49446" lon="6.59599">
        <ele>1701.5</ele>
        <time>2016-01-24T12:42:14Z</time>
      </trkpt>
      <trkpt lat="45.49441" lon="6.59595">
        <ele>1698.13</ele>
        <time>2016-01-24T12:42:16Z</time>
      </trkpt>
      <trkpt lat="45.49436" lon="6.596">
        <ele>1694.75</ele>
        <time>2016-01-24T12:42:18Z</time>
      </trkpt>
      <trkpt lat="45.49428" lon="6.59604">
        <ele>1688.08</ele>
        <time>2016-01-24T12:42:22Z</time>
      </trkpt>
      <trkpt lat="45.49427" lon="6.59605">
        <ele>1687.23</ele>
        <time>2016-01-24T12:42:23Z</time>
      </trkpt>
      <trkpt lat="45.4942" lon="6.59596">
        <ele>1684.01</ele>
        <time>2016-01-24T12:42:28Z</time>
      </trkpt>
      <trkpt lat="45.49412" lon="6.59581">
        <ele>1680.84</ele>
        <time>2016-01-24T12:42:32Z</time>
      </trkpt>
      <trkpt lat="45.49408" lon="6.59568">
        <ele>1677.74</ele>
        <time>2016-01-24T12:42:35Z</time>
      </trkpt>
      <trkpt lat="45.49405" lon="6.59568">
        <ele>1676.65</ele>
        <time>2016-01-24T12:42:36Z</time>
      </trkpt>
      <trkpt lat="45.49399" lon="6.59571">
        <ele>1674.56</ele>
        <time>2016-01-24T12:42:38Z</time>
      </trkpt>
      <trkpt lat="45.49392" lon="6.59554">
        <ele>1670.37</ele>
        <time>2016-01-24T12:42:42Z</time>
      </trkpt>
      <trkpt lat="45.4938" lon="6.59556">
        <ele>1666.87</ele>
        <time>2016-01-24T12:42:45Z</time>
      </trkpt>
      <trkpt lat="45.49377" lon="6.59552">
        <ele>1662.72</ele>
        <time>2016-01-24T12:42:47Z</time>
      </trkpt>
      <trkpt lat="45.49377" lon="6.59547">
        <ele>1661.5</ele>
        <time>2016-01-24T12:42:48Z</time>
      </trkpt>
      <trkpt lat="45.49368" lon="6.59534">
        <ele>1655.79</ele>
        <time>2016-01-24T12:42:54Z</time>
      </trkpt>
      <trkpt lat="45.49368" lon="6.59532">
        <ele>1652.73</ele>
        <time>2016-01-24T12:43:00Z</time>
      </trkpt>
      <trkpt lat="45.49367" lon="6.59531">
        <ele>1651.53</ele>
        <time>2016-01-24T12:43:12Z</time>
      </trkpt>
      <trkpt lat="45.49365" lon="6.59529">
        <ele>1651.33</ele>
        <time>2016-01-24T12:43:25Z</time>
      </trkpt>
      <trkpt lat="45.49362" lon="6.59515">
        <ele>1651.18</ele>
        <time>2016-01-24T12:43:29Z</time>
      </trkpt>
      <trkpt lat="45.49365" lon="6.59499">
        <ele>1650.17</ele>
        <time>2016-01-24T12:43:32Z</time>
      </trkpt>
      <trkpt lat="45.49364" lon="6.59485">
        <ele>1649.33</ele>
        <time>2016-01-24T12:43:34Z</time>
      </trkpt>
      <trkpt lat="45.49361" lon="6.59459">
        <ele>1646.29</ele>
        <time>2016-01-24T12:43:39Z</time>
      </trkpt>
      <trkpt lat="45.49364" lon="6.59444">
        <ele>1643.97</ele>
        <time>2016-01-24T12:43:42Z</time>
      </trkpt>
      <trkpt lat="45.49359" lon="6.59427">
        <ele>1637.85</ele>
        <time>2016-01-24T12:43:49Z</time>
      </trkpt>
      <trkpt lat="45.49358" lon="6.59422">
        <ele>1635.48</ele>
        <time>2016-01-24T12:43:53Z</time>
      </trkpt>
      <trkpt lat="45.49356" lon="6.59424">
        <ele>1632.46</ele>
        <time>2016-01-24T12:44:02Z</time>
      </trkpt>
      <trkpt lat="45.49353" lon="6.59422">
        <ele>1631.65</ele>
        <time>2016-01-24T12:44:21Z</time>
      </trkpt>
      <trkpt lat="45.49354" lon="6.59425">
        <ele>1631.58</ele>
        <time>2016-01-24T12:44:43Z</time>
      </trkpt>
      <trkpt lat="45.49354" lon="6.59426">
        <ele>1631.72</ele>
        <time>2016-01-24T12:45:04Z</time>
      </trkpt>
      <trkpt lat="45.49356" lon="6.59426">
        <ele>1631.63</ele>
        <time>2016-01-24T12:45:24Z</time>
      </trkpt>
      <trkpt lat="45.49355" lon="6.59424">
        <ele>1631.63</ele>
        <time>2016-01-24T12:45:25Z</time>
      </trkpt>
      <trkpt lat="45.49344" lon="6.59414">
        <ele>1631.37</ele>
        <time>2016-01-24T12:45:29Z</time>
      </trkpt>
      <trkpt lat="45.49337" lon="6.59398">
        <ele>1628.34</ele>
        <time>2016-01-24T12:45:35Z</time>
      </trkpt>
      <trkpt lat="45.49343" lon="6.59388">
        <ele>1625.08</ele>
        <time>2016-01-24T12:45:40Z</time>
      </trkpt>
      <trkpt lat="45.49345" lon="6.59384">
        <ele>1621.29</ele>
        <time>2016-01-24T12:45:47Z</time>
      </trkpt>
      <trkpt lat="45.49346" lon="6.59383">
        <ele>1620.05</ele>
        <time>2016-01-24T12:45:51Z</time>
      </trkpt>
      <trkpt lat="45.49343" lon="6.59367">
        <ele>1617.61</ele>
        <time>2016-01-24T12:45:58Z</time>
      </trkpt>
      <trkpt lat="45.49342" lon="6.59365">
        <ele>1614.51</ele>
        <time>2016-01-24T12:46:03Z</time>
      </trkpt>
      <trkpt lat="45.49344" lon="6.59362">
        <ele>1613.11</ele>
        <time>2016-01-24T12:46:08Z</time>
      </trkpt>
      <trkpt lat="45.49347" lon="6.59348">
        <ele>1610.97</ele>
        <time>2016-01-24T12:46:14Z</time>
      </trkpt>
      <trkpt lat="45.49347" lon="6.59345">
        <ele>1609.83</ele>
        <time>2016-01-24T12:46:16Z</time>
      </trkpt>
      <trkpt lat="45.49367" lon="6.59312">
        <ele>1605.8</ele>
        <time>2016-01-24T12:46:22Z</time>
      </trkpt>
      <trkpt lat="45.49371" lon="6.59304">
        <ele>1604.22</ele>
        <time>2016-01-24T12:46:24Z</time>
      </trkpt>
      <trkpt lat="45.49371" lon="6.593">
        <ele>1600.55</ele>
        <time>2016-01-24T12:46:34Z</time>
      </trkpt>
      <trkpt lat="45.49371" lon="6.59299">
        <ele>1599.59</ele>
        <time>2016-01-24T12:46:47Z</time>
      </trkpt>
      <trkpt lat="45.49368" lon="6.59297">
        <ele>1599.56</ele>
        <time>2016-01-24T12:46:49Z</time>
      </trkpt>
      <trkpt lat="45.49357" lon="6.59279">
        <ele>1598.24</ele>
        <time>2016-01-24T12:46:54Z</time>
      </trkpt>
      <trkpt lat="45.49354" lon="6.59264">
        <ele>1595.16</ele>
        <time>2016-01-24T12:46:57Z</time>
      </trkpt>
      <trkpt lat="45.49346" lon="6.59254">
        <ele>1591.45</ele>
        <time>2016-01-24T12:47:00Z</time>
      </trkpt>
      <trkpt lat="45.49345" lon="6.59251">
        <ele>1588.97</ele>
        <time>2016-01-24T12:47:03Z</time>
      </trkpt>
      <trkpt lat="45.49345" lon="6.5925">
        <ele>1585.77</ele>
        <time>2016-01-24T12:47:06Z</time>
      </trkpt>
      <trkpt lat="45.49342" lon="6.59249">
        <ele>1584.26</ele>
        <time>2016-01-24T12:47:12Z</time>
      </trkpt>
      <trkpt lat="45.49332" lon="6.59227">
        <ele>1583.58</ele>
        <time>2016-01-24T12:47:16Z</time>
      </trkpt>
      <trkpt lat="45.4933" lon="6.59215">
        <ele>1579.51</ele>
        <time>2016-01-24T12:47:21Z</time>
      </trkpt>
      <trkpt lat="45.49328" lon="6.59204">
        <ele>1576.63</ele>
        <time>2016-01-24T12:47:30Z</time>
      </trkpt>
      <trkpt lat="45.49328" lon="6.592">
        <ele>1576.44</ele>
        <time>2016-01-24T12:47:31Z</time>
      </trkpt>
      <trkpt lat="45.4933" lon="6.59183">
        <ele>1575.32</ele>
        <time>2016-01-24T12:47:34Z</time>
      </trkpt>
      <trkpt lat="45.4932" lon="6.59154">
        <ele>1572.79</ele>
        <time>2016-01-24T12:47:38Z</time>
      </trkpt>
      <trkpt lat="45.49316" lon="6.59128">
        <ele>1568.57</ele>
        <time>2016-01-24T12:47:41Z</time>
      </trkpt>
      <trkpt lat="45.49307" lon="6.59109">
        <ele>1564.42</ele>
        <time>2016-01-24T12:47:44Z</time>
      </trkpt>
      <trkpt lat="45.49306" lon="6.59101">
        <ele>1563.12</ele>
        <time>2016-01-24T12:47:45Z</time>
      </trkpt>
      <trkpt lat="45.49308" lon="6.59066">
        <ele>1556.7</ele>
        <time>2016-01-24T12:47:49Z</time>
      </trkpt>
      <trkpt lat="45.49309" lon="6.59051">
        <ele>1553.7</ele>
        <time>2016-01-24T12:47:51Z</time>
      </trkpt>
      <trkpt lat="45.49309" lon="6.59043">
        <ele>1549.05</ele>
        <time>2016-01-24T12:47:55Z</time>
      </trkpt>
      <trkpt lat="45.49309" lon="6.59044">
        <ele>1545.66</ele>
        <time>2016-01-24T12:47:59Z</time>
      </trkpt>
      <trkpt lat="45.4931" lon="6.59046">
        <ele>1544.32</ele>
        <time>2016-01-24T12:48:19Z</time>
      </trkpt>
      <trkpt lat="45.49311" lon="6.5904">
        <ele>1544.34</ele>
        <time>2016-01-24T12:48:33Z</time>
      </trkpt>
      <trkpt lat="45.49314" lon="6.59035">
        <ele>1542.86</ele>
        <time>2016-01-24T12:48:41Z</time>
      </trkpt>
      <trkpt lat="45.49317" lon="6.59034">
        <ele>1542.56</ele>
        <time>2016-01-24T12:48:43Z</time>
      </trkpt>
      <trkpt lat="45.49317" lon="6.59015">
        <ele>1540.11</ele>
        <time>2016-01-24T12:48:48Z</time>
      </trkpt>
      <trkpt lat="45.49318" lon="6.59016">
        <ele>1537.1</ele>
        <time>2016-01-24T12:48:53Z</time>
      </trkpt>
      <trkpt lat="45.4932" lon="6.59019">
        <ele>1535.61</ele>
        <time>2016-01-24T12:49:10Z</time>
      </trkpt>
      <trkpt lat="45.49325" lon="6.59027">
        <ele>1535.1</ele>
        <time>2016-01-24T12:49:24Z</time>
      </trkpt>
      <trkpt lat="45.49329" lon="6.59027">
        <ele>1535.02</ele>
        <time>2016-01-24T12:49:50Z</time>
      </trkpt>
      <trkpt lat="45.49326" lon="6.59036">
        <ele>1535.02</ele>
        <time>2016-01-24T12:50:09Z</time>
      </trkpt>
      <trkpt lat="45.49328" lon="6.59039">
        <ele>1534.96</ele>
        <time>2016-01-24T12:50:12Z</time>
      </trkpt>
      <trkpt lat="45.49335" lon="6.59056">
        <ele>1533.92</ele>
        <time>2016-01-24T12:50:22Z</time>
      </trkpt>
      <trkpt lat="45.49351" lon="6.59075">
        <ele>1532.89</ele>
        <time>2016-01-24T12:50:30Z</time>
      </trkpt>
      <trkpt lat="45.49373" lon="6.59089">
        <ele>1532.18</ele>
        <time>2016-01-24T12:50:38Z</time>
      </trkpt>
      <trkpt lat="45.49374" lon="6.5909">
        <ele>1532.09</ele>
        <time>2016-01-24T12:50:39Z</time>
      </trkpt>
      <trkpt lat="45.49376" lon="6.5909">
        <ele>1531.99</ele>
        <time>2016-01-24T12:50:40Z</time>
      </trkpt>
      <trkpt lat="45.4938" lon="6.59092">
        <ele>1531.9</ele>
        <time>2016-01-24T12:50:41Z</time>
      </trkpt>
      <trkpt lat="45.49384" lon="6.59094">
        <ele>1531.81</ele>
        <time>2016-01-24T12:50:42Z</time>
      </trkpt>
      <trkpt lat="45.49387" lon="6.59098">
        <ele>1531.74</ele>
        <time>2016-01-24T12:50:43Z</time>
      </trkpt>
      <trkpt lat="45.49389" lon="6.591">
        <ele>1531.68</ele>
        <time>2016-01-24T12:50:44Z</time>
      </trkpt>
      <trkpt lat="45.49392" lon="6.59103">
        <ele>1531.63</ele>
        <time>2016-01-24T12:50:45Z</time>
      </trkpt>
      <trkpt lat="45.49394" lon="6.59107">
        <ele>1531.55</ele>
        <time>2016-01-24T12:50:46Z</time>
      </trkpt>
      <trkpt lat="45.49396" lon="6.5911">
        <ele>1531.48</ele>
        <time>2016-01-24T12:50:47Z</time>
      </trkpt>
      <trkpt lat="45.49397" lon="6.59113">
        <ele>1531.4</ele>
        <time>2016-01-24T12:50:48Z</time>
      </trkpt>
      <trkpt lat="45.49416" lon="6.59154">
        <ele>1529.73</ele>
        <time>2016-01-24T12:50:58Z</time>
      </trkpt>
      <trkpt lat="45.49419" lon="6.5916">
        <ele>1529.54</ele>
        <time>2016-01-24T12:50:59Z</time>
      </trkpt>
      <trkpt lat="45.49422" lon="6.59165">
        <ele>1529.33</ele>
        <time>2016-01-24T12:51:00Z</time>
      </trkpt>
      <trkpt lat="45.49426" lon="6.59171">
        <ele>1529.07</ele>
        <time>2016-01-24T12:51:01Z</time>
      </trkpt>
      <trkpt lat="45.4943" lon="6.59175">
        <ele>1528.76</ele>
        <time>2016-01-24T12:51:02Z</time>
      </trkpt>
      <trkpt lat="45.49435" lon="6.59179">
        <ele>1528.47</ele>
        <time>2016-01-24T12:51:03Z</time>
      </trkpt>
      <trkpt lat="45.49439" lon="6.59183">
        <ele>1528.17</ele>
        <time>2016-01-24T12:51:04Z</time>
      </trkpt>
      <trkpt lat="45.49447" lon="6.5919">
        <ele>1527.61</ele>
        <time>2016-01-24T12:51:06Z</time>
      </trkpt>
      <trkpt lat="45.49451" lon="6.59194">
        <ele>1527.3</ele>
        <time>2016-01-24T12:51:07Z</time>
      </trkpt>
      <trkpt lat="45.49459" lon="6.59203">
        <ele>1526.54</ele>
        <time>2016-01-24T12:51:09Z</time>
      </trkpt>
      <trkpt lat="45.49464" lon="6.59206">
        <ele>1526.09</ele>
        <time>2016-01-24T12:51:10Z</time>
      </trkpt>
      <trkpt lat="45.4947" lon="6.59209">
        <ele>1525.65</ele>
        <time>2016-01-24T12:51:11Z</time>
      </trkpt>
      <trkpt lat="45.49475" lon="6.59211">
        <ele>1525.22</ele>
        <time>2016-01-24T12:51:12Z</time>
      </trkpt>
      <trkpt lat="45.4948" lon="6.59213">
        <ele>1524.78</ele>
        <time>2016-01-24T12:51:13Z</time>
      </trkpt>
      <trkpt lat="45.49515" lon="6.59223">
        <ele>1521.83</ele>
        <time>2016-01-24T12:51:19Z</time>
      </trkpt>
      <trkpt lat="45.49537" lon="6.59226">
        <ele>1519.88</ele>
        <time>2016-01-24T12:51:23Z</time>
      </trkpt>
      <trkpt lat="45.49541" lon="6.59228">
        <ele>1519.46</ele>
        <time>2016-01-24T12:51:24Z</time>
      </trkpt>
      <trkpt lat="45.49546" lon="6.59231">
        <ele>1519.09</ele>
        <time>2016-01-24T12:51:25Z</time>
      </trkpt>
      <trkpt lat="45.4955" lon="6.59234">
        <ele>1518.74</ele>
        <time>2016-01-24T12:51:26Z</time>
      </trkpt>
      <trkpt lat="45.49555" lon="6.59236">
        <ele>1518.38</ele>
        <time>2016-01-24T12:51:27Z</time>
      </trkpt>
      <trkpt lat="45.49561" lon="6.59236">
        <ele>1518.01</ele>
        <time>2016-01-24T12:51:28Z</time>
      </trkpt>
      <trkpt lat="45.49566" lon="6.59234">
        <ele>1517.68</ele>
        <time>2016-01-24T12:51:29Z</time>
      </trkpt>
      <trkpt lat="45.4957" lon="6.5923">
        <ele>1517.33</ele>
        <time>2016-01-24T12:51:30Z</time>
      </trkpt>
      <trkpt lat="45.49574" lon="6.59226">
        <ele>1516.92</ele>
        <time>2016-01-24T12:51:31Z</time>
      </trkpt>
      <trkpt lat="45.49577" lon="6.5922">
        <ele>1516.46</ele>
        <time>2016-01-24T12:51:32Z</time>
      </trkpt>
      <trkpt lat="45.49581" lon="6.59215">
        <ele>1515.97</ele>
        <time>2016-01-24T12:51:33Z</time>
      </trkpt>
      <trkpt lat="45.49585" lon="6.59209">
        <ele>1515.52</ele>
        <time>2016-01-24T12:51:34Z</time>
      </trkpt>
      <trkpt lat="45.4959" lon="6.59205">
        <ele>1515.11</ele>
        <time>2016-01-24T12:51:35Z</time>
      </trkpt>
      <trkpt lat="45.49595" lon="6.59202">
        <ele>1514.69</ele>
        <time>2016-01-24T12:51:36Z</time>
      </trkpt>
      <trkpt lat="45.49601" lon="6.59199">
        <ele>1514.25</ele>
        <time>2016-01-24T12:51:37Z</time>
      </trkpt>
      <trkpt lat="45.49607" lon="6.59197">
        <ele>1513.71</ele>
        <time>2016-01-24T12:51:38Z</time>
      </trkpt>
      <trkpt lat="45.49621" lon="6.59193">
        <ele>1512.64</ele>
        <time>2016-01-24T12:51:40Z</time>
      </trkpt>
      <trkpt lat="45.49628" lon="6.59193">
        <ele>1512.15</ele>
        <time>2016-01-24T12:51:41Z</time>
      </trkpt>
      <trkpt lat="45.4965" lon="6.59192">
        <ele>1509.13</ele>
        <time>2016-01-24T12:51:44Z</time>
      </trkpt>
      <trkpt lat="45.49685" lon="6.59191">
        <ele>1505.56</ele>
        <time>2016-01-24T12:51:49Z</time>
      </trkpt>
      <trkpt lat="45.49698" lon="6.59189">
        <ele>1504.27</ele>
        <time>2016-01-24T12:51:51Z</time>
      </trkpt>
      <trkpt lat="45.49715" lon="6.59186">
        <ele>1502.42</ele>
        <time>2016-01-24T12:51:54Z</time>
      </trkpt>
      <trkpt lat="45.49719" lon="6.59186">
        <ele>1501.86</ele>
        <time>2016-01-24T12:51:55Z</time>
      </trkpt>
      <trkpt lat="45.49724" lon="6.59186">
        <ele>1501.38</ele>
        <time>2016-01-24T12:51:56Z</time>
      </trkpt>
      <trkpt lat="45.49728" lon="6.59186">
        <ele>1500.98</ele>
        <time>2016-01-24T12:51:57Z</time>
      </trkpt>
      <trkpt lat="45.49733" lon="6.59188">
        <ele>1500.65</ele>
        <time>2016-01-24T12:51:58Z</time>
      </trkpt>
      <trkpt lat="45.49737" lon="6.59189">
        <ele>1500.39</ele>
        <time>2016-01-24T12:51:59Z</time>
      </trkpt>
      <trkpt lat="45.49741" lon="6.59191">
        <ele>1500.15</ele>
        <time>2016-01-24T12:52:00Z</time>
      </trkpt>
      <trkpt lat="45.49776" lon="6.59203">
        <ele>1497.48</ele>
        <time>2016-01-24T12:52:10Z</time>
      </trkpt>
      <trkpt lat="45.49814" lon="6.59224">
        <ele>1494.68</ele>
        <time>2016-01-24T12:52:20Z</time>
      </trkpt>
      <trkpt lat="45.49844" lon="6.59239">
        <ele>1492.55</ele>
        <time>2016-01-24T12:52:27Z</time>
      </trkpt>
      <trkpt lat="45.49849" lon="6.59242">
        <ele>1492.18</ele>
        <time>2016-01-24T12:52:28Z</time>
      </trkpt>
      <trkpt lat="45.49886" lon="6.59255">
        <ele>1488.77</ele>
        <time>2016-01-24T12:52:35Z</time>
      </trkpt>
      <trkpt lat="45.49897" lon="6.5926">
        <ele>1487.48</ele>
        <time>2016-01-24T12:52:37Z</time>
      </trkpt>
      <trkpt lat="45.49902" lon="6.59263">
        <ele>1486.83</ele>
        <time>2016-01-24T12:52:38Z</time>
      </trkpt>
      <trkpt lat="45.49926" lon="6.59278">
        <ele>1484.04</ele>
        <time>2016-01-24T12:52:43Z</time>
      </trkpt>
      <trkpt lat="45.49931" lon="6.5928">
        <ele>1483.63</ele>
        <time>2016-01-24T12:52:44Z</time>
      </trkpt>
      <trkpt lat="45.49936" lon="6.5928">
        <ele>1483.22</ele>
        <time>2016-01-24T12:52:45Z</time>
      </trkpt>
      <trkpt lat="45.49941" lon="6.59282">
        <ele>1482.85</ele>
        <time>2016-01-24T12:52:46Z</time>
      </trkpt>
      <trkpt lat="45.49946" lon="6.59283">
        <ele>1482.48</ele>
        <time>2016-01-24T12:52:47Z</time>
      </trkpt>
      <trkpt lat="45.49957" lon="6.59286">
        <ele>1481.71</ele>
        <time>2016-01-24T12:52:49Z</time>
      </trkpt>
      <trkpt lat="45.49963" lon="6.59288">
        <ele>1481.32</ele>
        <time>2016-01-24T12:52:50Z</time>
      </trkpt>
      <trkpt lat="45.49969" lon="6.59289">
        <ele>1480.85</ele>
        <time>2016-01-24T12:52:51Z</time>
      </trkpt>
      <trkpt lat="45.49975" lon="6.59289">
        <ele>1480.32</ele>
        <time>2016-01-24T12:52:52Z</time>
      </trkpt>
      <trkpt lat="45.49981" lon="6.5929">
        <ele>1479.78</ele>
        <time>2016-01-24T12:52:53Z</time>
      </trkpt>
      <trkpt lat="45.50016" lon="6.59292">
        <ele>1476.33</ele>
        <time>2016-01-24T12:52:59Z</time>
      </trkpt>
      <trkpt lat="45.50022" lon="6.59292">
        <ele>1475.84</ele>
        <time>2016-01-24T12:53:00Z</time>
      </trkpt>
      <trkpt lat="45.50048" lon="6.59293">
        <ele>1473.88</ele>
        <time>2016-01-24T12:53:05Z</time>
      </trkpt>
      <trkpt lat="45.50053" lon="6.59295">
        <ele>1473.43</ele>
        <time>2016-01-24T12:53:06Z</time>
      </trkpt>
      <trkpt lat="45.50058" lon="6.59299">
        <ele>1472.92</ele>
        <time>2016-01-24T12:53:07Z</time>
      </trkpt>
      <trkpt lat="45.50063" lon="6.59304">
        <ele>1472.4</ele>
        <time>2016-01-24T12:53:08Z</time>
      </trkpt>
      <trkpt lat="45.50068" lon="6.59309">
        <ele>1471.9</ele>
        <time>2016-01-24T12:53:09Z</time>
      </trkpt>
      <trkpt lat="45.50083" lon="6.59322">
        <ele>1470.37</ele>
        <time>2016-01-24T12:53:12Z</time>
      </trkpt>
      <trkpt lat="45.50089" lon="6.59325">
        <ele>1469.79</ele>
        <time>2016-01-24T12:53:13Z</time>
      </trkpt>
      <trkpt lat="45.50112" lon="6.59338">
        <ele>1467.56</ele>
        <time>2016-01-24T12:53:17Z</time>
      </trkpt>
      <trkpt lat="45.50117" lon="6.59343">
        <ele>1466.93</ele>
        <time>2016-01-24T12:53:18Z</time>
      </trkpt>
      <trkpt lat="45.50122" lon="6.59348">
        <ele>1466.33</ele>
        <time>2016-01-24T12:53:19Z</time>
      </trkpt>
      <trkpt lat="45.50131" lon="6.5936">
        <ele>1465.18</ele>
        <time>2016-01-24T12:53:21Z</time>
      </trkpt>
      <trkpt lat="45.50139" lon="6.59368">
        <ele>1463.7</ele>
        <time>2016-01-24T12:53:23Z</time>
      </trkpt>
      <trkpt lat="45.50157" lon="6.59382">
        <ele>1461.96</ele>
        <time>2016-01-24T12:53:27Z</time>
      </trkpt>
      <trkpt lat="45.50185" lon="6.59409">
        <ele>1458.92</ele>
        <time>2016-01-24T12:53:33Z</time>
      </trkpt>
      <trkpt lat="45.50189" lon="6.59414">
        <ele>1458.29</ele>
        <time>2016-01-24T12:53:34Z</time>
      </trkpt>
      <trkpt lat="45.50194" lon="6.59419">
        <ele>1457.59</ele>
        <time>2016-01-24T12:53:35Z</time>
      </trkpt>
      <trkpt lat="45.50199" lon="6.59425">
        <ele>1456.93</ele>
        <time>2016-01-24T12:53:36Z</time>
      </trkpt>
      <trkpt lat="45.50223" lon="6.59455">
        <ele>1453.74</ele>
        <time>2016-01-24T12:53:41Z</time>
      </trkpt>
      <trkpt lat="45.50242" lon="6.59478">
        <ele>1451.2</ele>
        <time>2016-01-24T12:53:45Z</time>
      </trkpt>
      <trkpt lat="45.50265" lon="6.59495">
        <ele>1448.34</ele>
        <time>2016-01-24T12:53:49Z</time>
      </trkpt>
      <trkpt lat="45.50276" lon="6.59501">
        <ele>1447.08</ele>
        <time>2016-01-24T12:53:51Z</time>
      </trkpt>
      <trkpt lat="45.5028" lon="6.59505">
        <ele>1446.39</ele>
        <time>2016-01-24T12:53:52Z</time>
      </trkpt>
      <trkpt lat="45.50284" lon="6.59509">
        <ele>1445.68</ele>
        <time>2016-01-24T12:53:53Z</time>
      </trkpt>
      <trkpt lat="45.50288" lon="6.59512">
        <ele>1444.92</ele>
        <time>2016-01-24T12:53:54Z</time>
      </trkpt>
      <trkpt lat="45.50292" lon="6.59516">
        <ele>1444.06</ele>
        <time>2016-01-24T12:53:55Z</time>
      </trkpt>
      <trkpt lat="45.50303" lon="6.59528">
        <ele>1440.82</ele>
        <time>2016-01-24T12:53:59Z</time>
      </trkpt>
      <trkpt lat="45.50312" lon="6.59532">
        <ele>1437.94</ele>
        <time>2016-01-24T12:54:06Z</time>
      </trkpt>
      <trkpt lat="45.50318" lon="6.59536">
        <ele>1436.37</ele>
        <time>2016-01-24T12:54:22Z</time>
      </trkpt>
      <trkpt lat="45.50321" lon="6.59536">
        <ele>1436.18</ele>
        <time>2016-01-24T12:54:40Z</time>
      </trkpt>
      <trkpt lat="45.50324" lon="6.59531">
        <ele>1436.1</ele>
        <time>2016-01-24T12:54:42Z</time>
      </trkpt>
      <trkpt lat="45.50344" lon="6.59512">
        <ele>1435.16</ele>
        <time>2016-01-24T12:54:45Z</time>
      </trkpt>
      <trkpt lat="45.50352" lon="6.59508">
        <ele>1434.31</ele>
        <time>2016-01-24T12:54:46Z</time>
      </trkpt>
      <trkpt lat="45.50372" lon="6.59498">
        <ele>1431.26</ele>
        <time>2016-01-24T12:54:49Z</time>
      </trkpt>
      <trkpt lat="45.50385" lon="6.59498">
        <ele>1428.12</ele>
        <time>2016-01-24T12:54:52Z</time>
      </trkpt>
      <trkpt lat="45.50388" lon="6.59499">
        <ele>1427.35</ele>
        <time>2016-01-24T12:54:53Z</time>
      </trkpt>
      <trkpt lat="45.50404" lon="6.59493">
        <ele>1424.87</ele>
        <time>2016-01-24T12:54:58Z</time>
      </trkpt>
      <trkpt lat="45.50408" lon="6.59488">
        <ele>1424.37</ele>
        <time>2016-01-24T12:54:59Z</time>
      </trkpt>
      <trkpt lat="45.50412" lon="6.59483">
        <ele>1423.8</ele>
        <time>2016-01-24T12:55:00Z</time>
      </trkpt>
      <trkpt lat="45.50418" lon="6.5948">
        <ele>1423.1</ele>
        <time>2016-01-24T12:55:01Z</time>
      </trkpt>
      <trkpt lat="45.50424" lon="6.59479">
        <ele>1421.07</ele>
        <time>2016-01-24T12:55:02Z</time>
      </trkpt>
      <trkpt lat="45.5043" lon="6.59477">
        <ele>1419.93</ele>
        <time>2016-01-24T12:55:03Z</time>
      </trkpt>
      <trkpt lat="45.50449" lon="6.59464">
        <ele>1416.78</ele>
        <time>2016-01-24T12:55:06Z</time>
      </trkpt>
      <trkpt lat="45.5046" lon="6.59449">
        <ele>1414.8</ele>
        <time>2016-01-24T12:55:08Z</time>
      </trkpt>
      <trkpt lat="45.50485" lon="6.59427">
        <ele>1409.91</ele>
        <time>2016-01-24T12:55:12Z</time>
      </trkpt>
      <trkpt lat="45.50492" lon="6.59427">
        <ele>1408.48</ele>
        <time>2016-01-24T12:55:13Z</time>
      </trkpt>
      <trkpt lat="45.50498" lon="6.59426">
        <ele>1407.17</ele>
        <time>2016-01-24T12:55:14Z</time>
      </trkpt>
      <trkpt lat="45.50504" lon="6.59424">
        <ele>1406.03</ele>
        <time>2016-01-24T12:55:15Z</time>
      </trkpt>
      <trkpt lat="45.50519" lon="6.59411">
        <ele>1403.17</ele>
        <time>2016-01-24T12:55:18Z</time>
      </trkpt>
      <trkpt lat="45.50543" lon="6.59376">
        <ele>1398.23</ele>
        <time>2016-01-24T12:55:24Z</time>
      </trkpt>
      <trkpt lat="45.5055" lon="6.59377">
        <ele>1394.97</ele>
        <time>2016-01-24T12:55:27Z</time>
      </trkpt>
      <trkpt lat="45.50552" lon="6.59376">
        <ele>1392.33</ele>
        <time>2016-01-24T12:55:37Z</time>
      </trkpt>
      <trkpt lat="45.50551" lon="6.59377">
        <ele>1391.92</ele>
        <time>2016-01-24T12:56:02Z</time>
      </trkpt>
      <trkpt lat="45.50552" lon="6.59376">
        <ele>1391.71</ele>
        <time>2016-01-24T12:56:26Z</time>
      </trkpt>
      <trkpt lat="45.50551" lon="6.59375">
        <ele>1391.66</ele>
        <time>2016-01-24T12:56:50Z</time>
      </trkpt>
      <trkpt lat="45.50552" lon="6.59375">
        <ele>1391.84</ele>
        <time>2016-01-24T12:57:20Z</time>
      </trkpt>
      <trkpt lat="45.50554" lon="6.5936">
        <ele>1391.15</ele>
        <time>2016-01-24T12:57:26Z</time>
      </trkpt>
      <trkpt lat="45.50555" lon="6.59348">
        <ele>1388.84</ele>
        <time>2016-01-24T12:57:30Z</time>
      </trkpt>
      <trkpt lat="45.50553" lon="6.59347">
        <ele>1387.94</ele>
        <time>2016-01-24T12:57:31Z</time>
      </trkpt>
      <trkpt lat="45.50546" lon="6.59344">
        <ele>1384.34</ele>
        <time>2016-01-24T12:57:34Z</time>
      </trkpt>
      <trkpt lat="45.50542" lon="6.59343">
        <ele>1382.43</ele>
        <time>2016-01-24T12:57:37Z</time>
      </trkpt>
      <trkpt lat="45.50536" lon="6.59342">
        <ele>1378.88</ele>
        <time>2016-01-24T12:57:48Z</time>
      </trkpt>
      <trkpt lat="45.50532" lon="6.59336">
        <ele>1378.59</ele>
        <time>2016-01-24T12:57:50Z</time>
      </trkpt>
      <trkpt lat="45.50522" lon="6.59313">
        <ele>1377.39</ele>
        <time>2016-01-24T12:57:54Z</time>
      </trkpt>
      <trkpt lat="45.50512" lon="6.59311">
        <ele>1373.92</ele>
        <time>2016-01-24T12:57:56Z</time>
      </trkpt>
      <trkpt lat="45.50503" lon="6.59312">
        <ele>1370.8</ele>
        <time>2016-01-24T12:57:58Z</time>
      </trkpt>
      <trkpt lat="45.50491" lon="6.593">
        <ele>1367.46</ele>
        <time>2016-01-24T12:58:01Z</time>
      </trkpt>
      <trkpt lat="45.50498" lon="6.59284">
        <ele>1364.38</ele>
        <time>2016-01-24T12:58:04Z</time>
      </trkpt>
      <trkpt lat="45.50497" lon="6.59267">
        <ele>1361.12</ele>
        <time>2016-01-24T12:58:07Z</time>
      </trkpt>
      <trkpt lat="45.50499" lon="6.5925">
        <ele>1356.77</ele>
        <time>2016-01-24T12:58:10Z</time>
      </trkpt>
      <trkpt lat="45.50503" lon="6.59238">
        <ele>1353.63</ele>
        <time>2016-01-24T12:58:12Z</time>
      </trkpt>
      <trkpt lat="45.50508" lon="6.59235">
        <ele>1351.93</ele>
        <time>2016-01-24T12:58:13Z</time>
      </trkpt>
      <trkpt lat="45.50514" lon="6.59232">
        <ele>1350.13</ele>
        <time>2016-01-24T12:58:14Z</time>
      </trkpt>
      <trkpt lat="45.50519" lon="6.5923">
        <ele>1348.4</ele>
        <time>2016-01-24T12:58:15Z</time>
      </trkpt>
      <trkpt lat="45.50523" lon="6.5923">
        <ele>1346.87</ele>
        <time>2016-01-24T12:58:16Z</time>
      </trkpt>
      <trkpt lat="45.50526" lon="6.5923">
        <ele>1345.52</ele>
        <time>2016-01-24T12:58:17Z</time>
      </trkpt>
      <trkpt lat="45.50529" lon="6.5923">
        <ele>1344.31</ele>
        <time>2016-01-24T12:58:18Z</time>
      </trkpt>
      <trkpt lat="45.50533" lon="6.59229">
        <ele>1343.24</ele>
        <time>2016-01-24T12:58:19Z</time>
      </trkpt>
      <trkpt lat="45.50537" lon="6.59229">
        <ele>1341.56</ele>
        <time>2016-01-24T12:58:20Z</time>
      </trkpt>
      <trkpt lat="45.50542" lon="6.59229">
        <ele>1341.56</ele>
        <time>2016-01-24T12:58:21Z</time>
      </trkpt>
      <trkpt lat="45.50547" lon="6.59227">
        <ele>1339.88</ele>
        <time>2016-01-24T12:58:22Z</time>
      </trkpt>
      <trkpt lat="45.50554" lon="6.59225">
        <ele>1339.02</ele>
        <time>2016-01-24T12:58:23Z</time>
      </trkpt>
      <trkpt lat="45.50561" lon="6.59223">
        <ele>1338.22</ele>
        <time>2016-01-24T12:58:24Z</time>
      </trkpt>
      <trkpt lat="45.50568" lon="6.59222">
        <ele>1337.32</ele>
        <time>2016-01-24T12:58:25Z</time>
      </trkpt>
      <trkpt lat="45.50575" lon="6.5922">
        <ele>1336.28</ele>
        <time>2016-01-24T12:58:26Z</time>
      </trkpt>
      <trkpt lat="45.5058" lon="6.59219">
        <ele>1335.17</ele>
        <time>2016-01-24T12:58:27Z</time>
      </trkpt>
      <trkpt lat="45.50584" lon="6.59219">
        <ele>1334.09</ele>
        <time>2016-01-24T12:58:28Z</time>
      </trkpt>
      <trkpt lat="45.50596" lon="6.59216">
        <ele>1331.2</ele>
        <time>2016-01-24T12:58:31Z</time>
      </trkpt>
      <trkpt lat="45.506" lon="6.59218">
        <ele>1330.44</ele>
        <time>2016-01-24T12:58:32Z</time>
      </trkpt>
      <trkpt lat="45.50604" lon="6.59221">
        <ele>1329.68</ele>
        <time>2016-01-24T12:58:33Z</time>
      </trkpt>
      <trkpt lat="45.50608" lon="6.59224">
        <ele>1328.84</ele>
        <time>2016-01-24T12:58:34Z</time>
      </trkpt>
      <trkpt lat="45.50612" lon="6.59226">
        <ele>1328.06</ele>
        <time>2016-01-24T12:58:35Z</time>
      </trkpt>
      <trkpt lat="45.50616" lon="6.59229">
        <ele>1327.41</ele>
        <time>2016-01-24T12:58:36Z</time>
      </trkpt>
      <trkpt lat="45.5062" lon="6.5923">
        <ele>1326.79</ele>
        <time>2016-01-24T12:58:37Z</time>
      </trkpt>
      <trkpt lat="45.50625" lon="6.59229">
        <ele>1326.16</ele>
        <time>2016-01-24T12:58:38Z</time>
      </trkpt>
      <trkpt lat="45.50627" lon="6.59227">
        <ele>1325.54</ele>
        <time>2016-01-24T12:58:39Z</time>
      </trkpt>
      <trkpt lat="45.50628" lon="6.59225">
        <ele>1324.97</ele>
        <time>2016-01-24T12:58:40Z</time>
      </trkpt>
      <trkpt lat="45.50627" lon="6.59223">
        <ele>1321.94</ele>
        <time>2016-01-24T12:58:49Z</time>
      </trkpt>
      <trkpt lat="45.50628" lon="6.59224">
        <ele>1321.29</ele>
        <time>2016-01-24T12:59:11Z</time>
      </trkpt>
      <trkpt lat="45.50628" lon="6.59225">
        <ele>1321.12</ele>
        <time>2016-01-24T12:59:39Z</time>
      </trkpt>
      <trkpt lat="45.50627" lon="6.59224">
        <ele>1321.05</ele>
        <time>2016-01-24T13:00:07Z</time>
      </trkpt>
      <trkpt lat="45.50626" lon="6.59223">
        <ele>1320.81</ele>
        <time>2016-01-24T13:00:33Z</time>
      </trkpt>
      <trkpt lat="45.50625" lon="6.59219">
        <ele>1320.79</ele>
        <time>2016-01-24T13:00:46Z</time>
      </trkpt>
      <trkpt lat="45.50619" lon="6.59211">
        <ele>1320.53</ele>
        <time>2016-01-24T13:00:49Z</time>
      </trkpt>
      <trkpt lat="45.50617" lon="6.59208">
        <ele>1320.41</ele>
        <time>2016-01-24T13:00:50Z</time>
      </trkpt>
      <trkpt lat="45.50614" lon="6.59204">
        <ele>1320.23</ele>
        <time>2016-01-24T13:00:51Z</time>
      </trkpt>
      <trkpt lat="45.50612" lon="6.592">
        <ele>1320.03</ele>
        <time>2016-01-24T13:00:52Z</time>
      </trkpt>
      <trkpt lat="45.5061" lon="6.59196">
        <ele>1319.8</ele>
        <time>2016-01-24T13:00:53Z</time>
      </trkpt>
      <trkpt lat="45.50607" lon="6.59192">
        <ele>1319.51</ele>
        <time>2016-01-24T13:00:54Z</time>
      </trkpt>
      <trkpt lat="45.50605" lon="6.59187">
        <ele>1319.19</ele>
        <time>2016-01-24T13:00:55Z</time>
      </trkpt>
      <trkpt lat="45.50602" lon="6.59181">
        <ele>1318.88</ele>
        <time>2016-01-24T13:00:56Z</time>
      </trkpt>
      <trkpt lat="45.50599" lon="6.59176">
        <ele>1318.54</ele>
        <time>2016-01-24T13:00:57Z</time>
      </trkpt>
      <trkpt lat="45.50596" lon="6.59171">
        <ele>1317.69</ele>
        <time>2016-01-24T13:00:58Z</time>
      </trkpt>
      <trkpt lat="45.50593" lon="6.59166">
        <ele>1317.17</ele>
        <time>2016-01-24T13:00:59Z</time>
      </trkpt>
      <trkpt lat="45.50591" lon="6.59162">
        <ele>1316.56</ele>
        <time>2016-01-24T13:01:00Z</time>
      </trkpt>
      <trkpt lat="45.50587" lon="6.59158">
        <ele>1315.92</ele>
        <time>2016-01-24T13:01:01Z</time>
      </trkpt>
      <trkpt lat="45.50583" lon="6.59155">
        <ele>1315.27</ele>
        <time>2016-01-24T13:01:02Z</time>
      </trkpt>
      <trkpt lat="45.50571" lon="6.59143">
        <ele>1313.41</ele>
        <time>2016-01-24T13:01:05Z</time>
      </trkpt>
      <trkpt lat="45.50567" lon="6.59137">
        <ele>1312.85</ele>
        <time>2016-01-24T13:01:06Z</time>
      </trkpt>
      <trkpt lat="45.50548" lon="6.59103">
        <ele>1309.83</ele>
        <time>2016-01-24T13:01:11Z</time>
      </trkpt>
      <trkpt lat="45.50545" lon="6.59095">
        <ele>1309.06</ele>
        <time>2016-01-24T13:01:12Z</time>
      </trkpt>
      <trkpt lat="45.50541" lon="6.59086">
        <ele>1308.34</ele>
        <time>2016-01-24T13:01:13Z</time>
      </trkpt>
      <trkpt lat="45.50538" lon="6.59077">
        <ele>1307.51</ele>
        <time>2016-01-24T13:01:14Z</time>
      </trkpt>
      <trkpt lat="45.50535" lon="6.59068">
        <ele>1306.51</ele>
        <time>2016-01-24T13:01:15Z</time>
      </trkpt>
      <trkpt lat="45.50532" lon="6.59059">
        <ele>1305.43</ele>
        <time>2016-01-24T13:01:16Z</time>
      </trkpt>
      <trkpt lat="45.5053" lon="6.5905">
        <ele>1304.42</ele>
        <time>2016-01-24T13:01:17Z</time>
      </trkpt>
      <trkpt lat="45.50524" lon="6.59031">
        <ele>1302.53</ele>
        <time>2016-01-24T13:01:19Z</time>
      </trkpt>
      <trkpt lat="45.50521" lon="6.59023">
        <ele>1301.56</ele>
        <time>2016-01-24T13:01:20Z</time>
      </trkpt>
      <trkpt lat="45.50516" lon="6.59015">
        <ele>1300.54</ele>
        <time>2016-01-24T13:01:21Z</time>
      </trkpt>
      <trkpt lat="45.50511" lon="6.59008">
        <ele>1298.53</ele>
        <time>2016-01-24T13:01:22Z</time>
      </trkpt>
      <trkpt lat="45.50505" lon="6.59003">
        <ele>1297.46</ele>
        <time>2016-01-24T13:01:23Z</time>
      </trkpt>
      <trkpt lat="45.50499" lon="6.59">
        <ele>1296.38</ele>
        <time>2016-01-24T13:01:24Z</time>
      </trkpt>
      <trkpt lat="45.50494" lon="6.58999">
        <ele>1295.43</ele>
        <time>2016-01-24T13:01:25Z</time>
      </trkpt>
      <trkpt lat="45.50488" lon="6.58999">
        <ele>1294.63</ele>
        <time>2016-01-24T13:01:26Z</time>
      </trkpt>
      <trkpt lat="45.50482" lon="6.58999">
        <ele>1293.92</ele>
        <time>2016-01-24T13:01:27Z</time>
      </trkpt>
      <trkpt lat="45.50476" lon="6.58999">
        <ele>1293.27</ele>
        <time>2016-01-24T13:01:28Z</time>
      </trkpt>
      <trkpt lat="45.5047" lon="6.58999">
        <ele>1292.64</ele>
        <time>2016-01-24T13:01:29Z</time>
      </trkpt>
      <trkpt lat="45.50464" lon="6.58997">
        <ele>1291.99</ele>
        <time>2016-01-24T13:01:30Z</time>
      </trkpt>
      <trkpt lat="45.5046" lon="6.58992">
        <ele>1291.3</ele>
        <time>2016-01-24T13:01:31Z</time>
      </trkpt>
      <trkpt lat="45.50458" lon="6.58986">
        <ele>1290.57</ele>
        <time>2016-01-24T13:01:32Z</time>
      </trkpt>
      <trkpt lat="45.50461" lon="6.5898">
        <ele>1289.78</ele>
        <time>2016-01-24T13:01:33Z</time>
      </trkpt>
      <trkpt lat="45.50466" lon="6.58977">
        <ele>1288.86</ele>
        <time>2016-01-24T13:01:34Z</time>
      </trkpt>
      <trkpt lat="45.50471" lon="6.58974">
        <ele>1287.81</ele>
        <time>2016-01-24T13:01:35Z</time>
      </trkpt>
      <trkpt lat="45.50476" lon="6.58973">
        <ele>1286.72</ele>
        <time>2016-01-24T13:01:36Z</time>
      </trkpt>
      <trkpt lat="45.50491" lon="6.5897">
        <ele>1284.09</ele>
        <time>2016-01-24T13:01:39Z</time>
      </trkpt>
      <trkpt lat="45.50496" lon="6.5897">
        <ele>1283.32</ele>
        <time>2016-01-24T13:01:40Z</time>
      </trkpt>
      <trkpt lat="45.50501" lon="6.58971">
        <ele>1282.58</ele>
        <time>2016-01-24T13:01:41Z</time>
      </trkpt>
      <trkpt lat="45.50511" lon="6.58978">
        <ele>1280.46</ele>
        <time>2016-01-24T13:01:45Z</time>
      </trkpt>
      <trkpt lat="45.50514" lon="6.58987">
        <ele>1279.45</ele>
        <time>2016-01-24T13:01:50Z</time>
      </trkpt>
      <trkpt lat="45.50515" lon="6.58989">
        <ele>1279.43</ele>
        <time>2016-01-24T13:01:51Z</time>
      </trkpt>
      <trkpt lat="45.50515" lon="6.58991">
        <ele>1279.44</ele>
        <time>2016-01-24T13:01:52Z</time>
      </trkpt>
      <trkpt lat="45.50515" lon="6.58994">
        <ele>1279.42</ele>
        <time>2016-01-24T13:01:53Z</time>
      </trkpt>
      <trkpt lat="45.50515" lon="6.58996">
        <ele>1279.42</ele>
        <time>2016-01-24T13:01:54Z</time>
      </trkpt>
      <trkpt lat="45.50516" lon="6.58999">
        <ele>1279.45</ele>
        <time>2016-01-24T13:01:55Z</time>
      </trkpt>
      <trkpt lat="45.50515" lon="6.59002">
        <ele>1279.47</ele>
        <time>2016-01-24T13:01:56Z</time>
      </trkpt>
      <trkpt lat="45.50515" lon="6.59004">
        <ele>1279.45</ele>
        <time>2016-01-24T13:01:57Z</time>
      </trkpt>
      <trkpt lat="45.50515" lon="6.59006">
        <ele>1279.38</ele>
        <time>2016-01-24T13:01:58Z</time>
      </trkpt>
      <trkpt lat="45.50515" lon="6.59009">
        <ele>1279.3</ele>
        <time>2016-01-24T13:01:59Z</time>
      </trkpt>
      <trkpt lat="45.50516" lon="6.59024">
        <ele>1279.31</ele>
        <time>2016-01-24T13:02:08Z</time>
      </trkpt>
      <trkpt lat="45.5052" lon="6.59034">
        <ele>1279.22</ele>
        <time>2016-01-24T13:02:12Z</time>
      </trkpt>
      <trkpt lat="45.50529" lon="6.59047">
        <ele>1279.05</ele>
        <time>2016-01-24T13:02:16Z</time>
      </trkpt>
      <trkpt lat="45.50531" lon="6.59051">
        <ele>1279.02</ele>
        <time>2016-01-24T13:02:17Z</time>
      </trkpt>
      <trkpt lat="45.5055" lon="6.59076">
        <ele>1278.49</ele>
        <time>2016-01-24T13:02:26Z</time>
      </trkpt>
      <trkpt lat="45.50587" lon="6.59085">
        <ele>1276.35</ele>
        <time>2016-01-24T13:02:36Z</time>
      </trkpt>
      <trkpt lat="45.50619" lon="6.59095">
        <ele>1273.56</ele>
        <time>2016-01-24T13:02:46Z</time>
      </trkpt>
      <trkpt lat="45.50639" lon="6.59118">
        <ele>1271.8</ele>
        <time>2016-01-24T13:02:53Z</time>
      </trkpt>
      <trkpt lat="45.50642" lon="6.59123">
        <ele>1271.18</ele>
        <time>2016-01-24T13:02:54Z</time>
      </trkpt>
      <trkpt lat="45.50661" lon="6.5915">
        <ele>1268.45</ele>
        <time>2016-01-24T13:02:58Z</time>
      </trkpt>
      <trkpt lat="45.50672" lon="6.5917">
        <ele>1266.08</ele>
        <time>2016-01-24T13:03:01Z</time>
      </trkpt>
      <trkpt lat="45.50675" lon="6.59177">
        <ele>1265.61</ele>
        <time>2016-01-24T13:03:02Z</time>
      </trkpt>
      <trkpt lat="45.50676" lon="6.59184">
        <ele>1265.24</ele>
        <time>2016-01-24T13:03:03Z</time>
      </trkpt>
      <trkpt lat="45.50679" lon="6.5919">
        <ele>1264.92</ele>
        <time>2016-01-24T13:03:04Z</time>
      </trkpt>
      <trkpt lat="45.50682" lon="6.59194">
        <ele>1264.66</ele>
        <time>2016-01-24T13:03:05Z</time>
      </trkpt>
      <trkpt lat="45.50685" lon="6.59198">
        <ele>1264.46</ele>
        <time>2016-01-24T13:03:06Z</time>
      </trkpt>
      <trkpt lat="45.50696" lon="6.59209">
        <ele>1264.13</ele>
        <time>2016-01-24T13:03:09Z</time>
      </trkpt>
      <trkpt lat="45.507" lon="6.59214">
        <ele>1264.05</ele>
        <time>2016-01-24T13:03:10Z</time>
      </trkpt>
      <trkpt lat="45.50703" lon="6.59218">
        <ele>1263.99</ele>
        <time>2016-01-24T13:03:11Z</time>
      </trkpt>
      <trkpt lat="45.50705" lon="6.59223">
        <ele>1263.96</ele>
        <time>2016-01-24T13:03:12Z</time>
      </trkpt>
      <trkpt lat="45.50708" lon="6.59229">
        <ele>1263.9</ele>
        <time>2016-01-24T13:03:13Z</time>
      </trkpt>
      <trkpt lat="45.50709" lon="6.59236">
        <ele>1263.86</ele>
        <time>2016-01-24T13:03:14Z</time>
      </trkpt>
      <trkpt lat="45.50711" lon="6.59242">
        <ele>1263.79</ele>
        <time>2016-01-24T13:03:15Z</time>
      </trkpt>
      <trkpt lat="45.50713" lon="6.59247">
        <ele>1263.68</ele>
        <time>2016-01-24T13:03:16Z</time>
      </trkpt>
      <trkpt lat="45.50714" lon="6.59252">
        <ele>1263.52</ele>
        <time>2016-01-24T13:03:17Z</time>
      </trkpt>
      <trkpt lat="45.50716" lon="6.59257">
        <ele>1263.35</ele>
        <time>2016-01-24T13:03:18Z</time>
      </trkpt>
      <trkpt lat="45.5072" lon="6.5926">
        <ele>1263.21</ele>
        <time>2016-01-24T13:03:19Z</time>
      </trkpt>
      <trkpt lat="45.50724" lon="6.59263">
        <ele>1263.08</ele>
        <time>2016-01-24T13:03:20Z</time>
      </trkpt>
      <trkpt lat="45.50728" lon="6.59266">
        <ele>1262.98</ele>
        <time>2016-01-24T13:03:21Z</time>
      </trkpt>
      <trkpt lat="45.50732" lon="6.59267">
        <ele>1262.86</ele>
        <time>2016-01-24T13:03:22Z</time>
      </trkpt>
      <trkpt lat="45.50736" lon="6.59267">
        <ele>1262.73</ele>
        <time>2016-01-24T13:03:23Z</time>
      </trkpt>
      <trkpt lat="45.5074" lon="6.59267">
        <ele>1262.61</ele>
        <time>2016-01-24T13:03:24Z</time>
      </trkpt>
      <trkpt lat="45.50743" lon="6.59267">
        <ele>1262.48</ele>
        <time>2016-01-24T13:03:25Z</time>
      </trkpt>
      <trkpt lat="45.50747" lon="6.59266">
        <ele>1262.2</ele>
        <time>2016-01-24T13:03:26Z</time>
      </trkpt>
      <trkpt lat="45.5075" lon="6.59265">
        <ele>1262.2</ele>
        <time>2016-01-24T13:03:27Z</time>
      </trkpt>
      <trkpt lat="45.50753" lon="6.59263">
        <ele>1261.92</ele>
        <time>2016-01-24T13:03:28Z</time>
      </trkpt>
      <trkpt lat="45.50756" lon="6.59261">
        <ele>1261.78</ele>
        <time>2016-01-24T13:03:29Z</time>
      </trkpt>
      <trkpt lat="45.50758" lon="6.59259">
        <ele>1261.67</ele>
        <time>2016-01-24T13:03:30Z</time>
      </trkpt>
      <trkpt lat="45.50761" lon="6.59256">
        <ele>1261.56</ele>
        <time>2016-01-24T13:03:31Z</time>
      </trkpt>
      <trkpt lat="45.50777" lon="6.59243">
        <ele>1261.37</ele>
        <time>2016-01-24T13:03:40Z</time>
      </trkpt>
      <trkpt lat="45.50779" lon="6.59241">
        <ele>1261.41</ele>
        <time>2016-01-24T13:03:41Z</time>
      </trkpt>
      <trkpt lat="45.5078" lon="6.5924">
        <ele>1261.49</ele>
        <time>2016-01-24T13:03:42Z</time>
      </trkpt>
      <trkpt lat="45.50782" lon="6.59239">
        <ele>1261.54</ele>
        <time>2016-01-24T13:03:43Z</time>
      </trkpt>
      <trkpt lat="45.50783" lon="6.59239">
        <ele>1261.58</ele>
        <time>2016-01-24T13:03:44Z</time>
      </trkpt>
      <trkpt lat="45.50785" lon="6.59234">
        <ele>1261.99</ele>
        <time>2016-01-24T13:03:56Z</time>
      </trkpt>
      <trkpt lat="45.50787" lon="6.59233">
        <ele>1261.99</ele>
        <time>2016-01-24T13:04:12Z</time>
      </trkpt>
      <trkpt lat="45.50788" lon="6.5923">
        <ele>1260.95</ele>
        <time>2016-01-24T13:04:28Z</time>
      </trkpt>
      <trkpt lat="45.50786" lon="6.59229">
        <ele>1260.58</ele>
        <time>2016-01-24T13:04:44Z</time>
      </trkpt>
      <trkpt lat="45.50787" lon="6.59227">
        <ele>1261.14</ele>
        <time>2016-01-24T13:05:01Z</time>
      </trkpt>
      <trkpt lat="45.50786" lon="6.59224">
        <ele>1260.66</ele>
        <time>2016-01-24T13:05:18Z</time>
      </trkpt>
      <trkpt lat="45.50786" lon="6.59224">
        <ele>1260.69</ele>
        <time>2016-01-24T13:05:38Z</time>
      </trkpt>
      <trkpt lat="45.50787" lon="6.59224">
        <ele>1260.87</ele>
        <time>2016-01-24T13:05:48Z</time>
      </trkpt>
      <trkpt lat="45.50786" lon="6.59224">
        <ele>1261.64</ele>
        <time>2016-01-24T13:05:59Z</time>
      </trkpt>
      <trkpt lat="45.5079" lon="6.59225">
        <ele>1262.08</ele>
        <time>2016-01-24T13:06:12Z</time>
      </trkpt>
      <trkpt lat="45.50798" lon="6.5922">
        <ele>1262.48</ele>
        <time>2016-01-24T13:06:22Z</time>
      </trkpt>
      <trkpt lat="45.50808" lon="6.59215">
        <ele>1263.45</ele>
        <time>2016-01-24T13:06:32Z</time>
      </trkpt>
      <trkpt lat="45.50818" lon="6.59214">
        <ele>1264.07</ele>
        <time>2016-01-24T13:06:42Z</time>
      </trkpt>
      <trkpt lat="45.50829" lon="6.59215">
        <ele>1264.75</ele>
        <time>2016-01-24T13:06:52Z</time>
      </trkpt>
      <trkpt lat="45.50841" lon="6.59222">
        <ele>1265.19</ele>
        <time>2016-01-24T13:07:03Z</time>
      </trkpt>
      <trkpt lat="45.50851" lon="6.59228">
        <ele>1265.76</ele>
        <time>2016-01-24T13:07:13Z</time>
      </trkpt>
      <trkpt lat="45.50856" lon="6.59237">
        <ele>1266.25</ele>
        <time>2016-01-24T13:07:22Z</time>
      </trkpt>
      <trkpt lat="45.50865" lon="6.59252">
        <ele>1267.17</ele>
        <time>2016-01-24T13:07:34Z</time>
      </trkpt>
      <trkpt lat="45.50871" lon="6.5926">
        <ele>1267.72</ele>
        <time>2016-01-24T13:07:41Z</time>
      </trkpt>
      <trkpt lat="45.50878" lon="6.59273">
        <ele>1268.23</ele>
        <time>2016-01-24T13:07:51Z</time>
      </trkpt>
      <trkpt lat="45.50885" lon="6.59285">
        <ele>1268.78</ele>
        <time>2016-01-24T13:08:01Z</time>
      </trkpt>
      <trkpt lat="45.50891" lon="6.59297">
        <ele>1269.4</ele>
        <time>2016-01-24T13:08:11Z</time>
      </trkpt>
      <trkpt lat="45.50897" lon="6.59305">
        <ele>1269.78</ele>
        <time>2016-01-24T13:08:18Z</time>
      </trkpt>
      <trkpt lat="45.50902" lon="6.59314">
        <ele>1270.28</ele>
        <time>2016-01-24T13:08:25Z</time>
      </trkpt>
      <trkpt lat="45.50911" lon="6.59326">
        <ele>1270.96</ele>
        <time>2016-01-24T13:08:35Z</time>
      </trkpt>
      <trkpt lat="45.50917" lon="6.59333">
        <ele>1271.38</ele>
        <time>2016-01-24T13:08:42Z</time>
      </trkpt>
      <trkpt lat="45.50919" lon="6.59336">
        <ele>1271.56</ele>
        <time>2016-01-24T13:08:45Z</time>
      </trkpt>
      <trkpt lat="45.50928" lon="6.59345">
        <ele>1272.44</ele>
        <time>2016-01-24T13:08:55Z</time>
      </trkpt>
      <trkpt lat="45.50936" lon="6.59352">
        <ele>1273.23</ele>
        <time>2016-01-24T13:09:03Z</time>
      </trkpt>
      <trkpt lat="45.50948" lon="6.59361">
        <ele>1274.06</ele>
        <time>2016-01-24T13:09:14Z</time>
      </trkpt>
      <trkpt lat="45.50962" lon="6.59368">
        <ele>1274.95</ele>
        <time>2016-01-24T13:09:26Z</time>
      </trkpt>
      <trkpt lat="45.50973" lon="6.59372">
        <ele>1275.3</ele>
        <time>2016-01-24T13:09:34Z</time>
      </trkpt>
      <trkpt lat="45.50987" lon="6.59366">
        <ele>1275.85</ele>
        <time>2016-01-24T13:09:45Z</time>
      </trkpt>
      <trkpt lat="45.50988" lon="6.59365">
        <ele>1275.86</ele>
        <time>2016-01-24T13:09:46Z</time>
      </trkpt>
      <trkpt lat="45.50997" lon="6.59355">
        <ele>1276.08</ele>
        <time>2016-01-24T13:09:56Z</time>
      </trkpt>
      <trkpt lat="45.51003" lon="6.59348">
        <ele>1276.51</ele>
        <time>2016-01-24T13:10:03Z</time>
      </trkpt>
      <trkpt lat="45.51004" lon="6.59346">
        <ele>1276.56</ele>
        <time>2016-01-24T13:10:04Z</time>
      </trkpt>
      <trkpt lat="45.51005" lon="6.59345">
        <ele>1276.6</ele>
        <time>2016-01-24T13:10:05Z</time>
      </trkpt>
      <trkpt lat="45.51006" lon="6.59344">
        <ele>1276.66</ele>
        <time>2016-01-24T13:10:06Z</time>
      </trkpt>
      <trkpt lat="45.51007" lon="6.59342">
        <ele>1276.7</ele>
        <time>2016-01-24T13:10:07Z</time>
      </trkpt>
      <trkpt lat="45.51008" lon="6.59341">
        <ele>1276.77</ele>
        <time>2016-01-24T13:10:08Z</time>
      </trkpt>
      <trkpt lat="45.51017" lon="6.59337">
        <ele>1277.63</ele>
        <time>2016-01-24T13:10:17Z</time>
      </trkpt>
      <trkpt lat="45.51027" lon="6.59345">
        <ele>1278.85</ele>
        <time>2016-01-24T13:10:28Z</time>
      </trkpt>
      <trkpt lat="45.51037" lon="6.59351">
        <ele>1280.08</ele>
        <time>2016-01-24T13:10:39Z</time>
      </trkpt>
      <trkpt lat="45.51046" lon="6.59357">
        <ele>1280.73</ele>
        <time>2016-01-24T13:10:48Z</time>
      </trkpt>
      <trkpt lat="45.51058" lon="6.59364">
        <ele>1281.06</ele>
        <time>2016-01-24T13:10:58Z</time>
      </trkpt>
      <trkpt lat="45.51069" lon="6.5937">
        <ele>1281.07</ele>
        <time>2016-01-24T13:11:09Z</time>
      </trkpt>
      <trkpt lat="45.51072" lon="6.59375">
        <ele>1280.96</ele>
        <time>2016-01-24T13:11:14Z</time>
      </trkpt>
      <trkpt lat="45.51077" lon="6.59386">
        <ele>1281.38</ele>
        <time>2016-01-24T13:11:22Z</time>
      </trkpt>
      <trkpt lat="45.5108" lon="6.59393">
        <ele>1281.69</ele>
        <time>2016-01-24T13:11:27Z</time>
      </trkpt>
      <trkpt lat="45.51086" lon="6.59403">
        <ele>1281.73</ele>
        <time>2016-01-24T13:11:34Z</time>
      </trkpt>
      <trkpt lat="45.51092" lon="6.59412">
        <ele>1282.28</ele>
        <time>2016-01-24T13:11:45Z</time>
      </trkpt>
      <trkpt lat="45.51101" lon="6.59423">
        <ele>1282.42</ele>
        <time>2016-01-24T13:11:56Z</time>
      </trkpt>
      <trkpt lat="45.51102" lon="6.59424">
        <ele>1282.41</ele>
        <time>2016-01-24T13:11:57Z</time>
      </trkpt>
      <trkpt lat="45.51104" lon="6.59425">
        <ele>1282.41</ele>
        <time>2016-01-24T13:11:58Z</time>
      </trkpt>
      <trkpt lat="45.51105" lon="6.59425">
        <ele>1282.43</ele>
        <time>2016-01-24T13:11:59Z</time>
      </trkpt>
      <trkpt lat="45.51118" lon="6.59431">
        <ele>1282.45</ele>
        <time>2016-01-24T13:12:08Z</time>
      </trkpt>
      <trkpt lat="45.51126" lon="6.59438">
        <ele>1282.71</ele>
        <time>2016-01-24T13:12:18Z</time>
      </trkpt>
      <trkpt lat="45.51133" lon="6.59444">
        <ele>1282.99</ele>
        <time>2016-01-24T13:12:31Z</time>
      </trkpt>
      <trkpt lat="45.51134" lon="6.59445">
        <ele>1283.03</ele>
        <time>2016-01-24T13:12:33Z</time>
      </trkpt>
      <trkpt lat="45.51134" lon="6.59446">
        <ele>1282.14</ele>
        <time>2016-01-24T13:12:38Z</time>
      </trkpt>
    </trkseg>
  </trk>
</gpx>